GEFSMW_500_meanwind_000.txt.gz
Wind_Speed
17 17 18 19 22 25 29 32 33 31 30 28 26 25 26 26 27 29 30 32 33 35 36 37 38 40 42 43 45 46 48 49 52 55 57 58 58 58 58 59 60 59 59
17 18 21 24 28 31 34 34 31 28 26 25 25 26 27 29 31 32 34 35 37 39 41 42 44 45 47 49 50 52 53 53 55 57 61 62 61 60 62 63 63 63 63
19 21 25 29 33 35 35 33 29 27 26 26 26 27 29 31 34 37 39 42 44 46 47 49 51 53 54 55 56 57 59 60 60 61 64 67 67 66 63 63 64 65 64
22 25 29 32 32 31 30 28 27 28 28 29 31 33 35 37 38 41 43 45 47 49 50 52 54 56 58 59 61 62 63 64 65 66 67 69 71 75 74 68 66 67 65
25 28 29 28 27 26 26 26 27 29 31 33 35 37 38 40 42 43 46 48 50 53 55 57 59 61 63 65 66 68 69 70 71 71 73 74 75 75 77 76 69 66 63
28 27 25 24 24 24 26 27 29 30 32 34 37 39 41 43 45 47 49 52 54 56 58 59 61 62 64 66 67 69 69 70 71 72 72 72 71 66 67 70 69 66 62
26 24 23 23 24 26 27 28 30 32 35 37 39 42 44 46 48 50 51 53 54 56 57 59 61 64 65 66 67 68 69 69 71 72 72 71 67 64 63 65 67 68 69
24 22 22 23 25 26 29 31 34 36 38 40 42 44 46 48 50 52 54 57 59 60 63 65 67 69 70 71 72 72 73 74 75 75 75 75 74 72 70 69 69 70 69
23 23 24 25 27 30 32 34 36 39 40 41 43 46 48 51 54 57 60 61 63 65 67 70 71 73 74 75 76 77 77 78 79 80 80 79 78 76 74 73 71 71 71
24 26 27 29 31 33 35 37 38 40 42 46 49 51 54 57 58 59 61 64 68 72 74 76 78 80 81 83 84 84 85 85 86 85 84 83 81 77 75 74 72 70 69
25 28 30 32 35 36 38 39 42 45 49 53 55 58 60 61 63 65 69 72 75 78 80 82 84 86 87 88 89 89 89 88 87 85 84 83 81 80 78 76 75 74 72
26 29 32 33 35 37 40 44 48 52 55 59 61 63 65 67 70 73 77 80 82 85 88 90 92 93 92 91 90 88 87 86 85 84 82 80 79 77 77 77 77 75 73
31 33 33 35 39 43 47 50 54 57 60 63 65 68 70 73 77 80 84 87 90 93 96 97 96 95 94 92 90 87 86 84 82 82 81 79 78 76 75 75 75 76 75
31 33 36 40 45 50 54 57 61 63 66 68 70 74 77 80 83 87 90 94 96 98 99 98 96 93 91 88 86 86 85 82 80 79 79 78 77 76 74 74 74 75 74
34 38 43 47 52 56 59 62 65 69 71 73 76 79 81 85 90 94 97 99 99 98 98 97 94 90 85 80 77 76 76 74 73 73 73 72 72 72 73 73 72 73 71
38 43 47 52 57 61 64 67 70 73 76 78 80 84 88 93 96 98 98 98 95 92 90 87 83 78 75 73 73 72 71 70 71 71 71 71 71 70 70 70 70 68 67
45 50 54 58 62 65 68 71 74 76 78 81 86 90 94 96 96 95 91 87 83 79 75 73 72 70 69 69 70 71 72 73 74 75 75 74 74 74 74 72 70 68 67
52 56 59 61 64 67 70 72 75 77 81 86 91 94 96 94 89 84 79 75 71 68 67 66 66 66 68 72 75 79 81 82 84 85 84 82 80 79 80 77 74 71 69
56 58 60 63 66 69 72 74 78 81 87 91 95 95 91 85 79 73 70 67 66 65 66 68 70 74 77 80 83 86 87 88 89 89 86 82 79 75 75 74 72 70 66
58 61 64 67 70 72 75 79 83 88 91 93 90 84 79 75 72 69 67 66 67 69 72 74 79 84 86 89 91 92 92 90 88 84 78 73 68 65 63 64 63 62 60
62 65 69 71 73 76 80 85 88 91 90 85 79 75 72 71 70 68 69 70 72 75 79 81 86 90 93 95 95 94 92 88 83 77 70 64 59 56 54 53 52 50 49
65 68 70 72 76 81 85 88 90 89 84 78 74 71 70 70 70 71 73 76 79 82 86 90 94 96 96 95 93 89 84 78 72 66 60 55 49 45 44 43 42 40 40
70 72 73 76 81 85 88 89 87 82 76 71 70 69 69 70 72 75 77 81 86 92 96 98 99 96 91 86 81 75 68 61 56 52 50 48 41 37 35 34 33 33 34
72 74 77 81 85 88 89 87 82 74 70 69 69 70 70 72 75 79 84 90 94 98 99 97 93 87 79 70 63 57 50 44 41 39 40 42 37 31 27 26 27 28 28
73 76 80 85 87 87 83 79 73 70 69 69 69 71 74 78 82 86 90 93 94 93 89 84 78 70 61 52 48 44 39 34 32 31 31 32 32 27 23 22 22 22 21
75 79 83 85 84 81 75 71 68 68 69 71 74 78 82 86 89 90 89 86 79 72 70 66 60 54 49 44 42 39 34 32 31 30 28 27 27 24 19 18 16 15 17

GEFSMW_500_meanwind_006.txt.gz
Wind_Speed
25 26 25 24 23 23 22 23 26 28 31 33 34 34 34 33 32 31 29 29 30 32 34 36 37 40 42 44 46 48 50 52 55 56 56 56 57 57 58 59 61 62 63
22 22 22 21 21 22 23 26 29 32 35 36 34 33 31 29 29 30 31 33 34 36 38 41 43 45 47 50 52 54 55 56 57 59 61 60 58 58 59 60 61 62 62
19 21 23 22 22 23 26 29 32 35 35 33 30 28 28 29 31 33 35 37 39 41 44 46 48 50 51 52 54 56 58 59 59 62 64 66 66 66 65 65 65 65 65
19 22 24 24 24 26 29 32 34 33 30 29 29 30 31 32 34 37 39 41 44 46 47 48 50 51 53 55 57 59 60 62 63 65 69 72 75 77 76 74 73 71 70
20 23 25 27 28 30 32 33 33 31 30 30 32 33 35 37 38 40 42 44 45 46 48 50 53 56 58 60 62 63 65 67 70 73 75 78 80 82 84 82 81 81 80
22 24 27 30 32 32 33 33 32 31 32 34 35 37 38 40 41 42 43 45 48 50 53 57 61 64 66 68 70 72 74 76 78 81 82 84 86 88 91 92 91 90 88
25 27 29 32 34 34 34 33 33 35 36 37 38 39 40 41 42 43 45 49 52 56 60 64 67 70 73 74 76 78 80 82 85 87 89 92 94 96 97 100 100 100 97
27 29 30 32 34 35 35 35 37 38 39 40 40 40 40 42 44 48 51 55 59 63 67 70 72 74 75 77 79 82 84 88 91 94 96 98 99 99 100 100 100 102 100
27 28 30 32 34 36 37 39 39 40 40 40 40 41 43 47 51 55 59 63 68 71 74 75 77 78 81 84 86 89 93 96 99 101 103 103 102 100 98 95 92 91 92
26 27 31 34 36 37 39 39 39 39 39 40 41 44 47 51 55 59 63 68 71 74 77 79 81 84 86 90 93 96 99 102 103 104 103 101 99 95 90 85 78 75 77
26 29 32 34 37 37 37 36 36 38 39 41 44 47 51 55 59 63 68 71 75 78 80 82 84 87 90 94 98 102 104 105 105 103 100 95 90 84 77 71 66 65 68
28 30 32 34 35 35 35 36 37 39 42 45 49 53 56 60 64 68 72 75 78 80 82 85 88 92 96 100 103 105 105 103 100 95 90 84 77 70 65 62 61 63 66
29 31 33 34 34 35 36 38 41 44 48 52 55 59 62 66 69 72 74 77 79 82 86 90 95 99 102 103 103 101 97 94 89 84 79 75 70 66 65 65 66 68 70
30 32 33 34 35 36 39 43 47 51 55 58 61 64 67 70 72 74 76 79 83 87 92 97 100 102 102 99 96 92 87 83 80 76 74 73 72 72 71 72 74 76 79
32 33 34 35 38 41 45 49 53 56 59 62 64 67 69 71 74 77 80 84 89 93 97 99 99 98 94 90 86 83 81 79 77 75 75 76 77 78 80 81 83 86 88
33 34 36 40 43 47 50 53 56 59 61 63 66 68 71 74 77 81 85 90 94 97 98 96 93 88 84 82 82 83 83 82 82 81 81 82 84 86 88 91 93 94 96
35 37 40 44 47 50 52 55 58 60 62 65 68 71 74 78 81 86 90 94 97 96 93 88 85 82 83 86 88 89 90 89 89 89 89 89 89 91 93 93 94 93 92
38 41 44 47 49 52 55 58 60 62 65 68 71 74 77 81 86 90 94 96 94 90 85 82 81 84 88 91 91 90 88 86 84 82 80 79 79 79 80 81 79 76 71
42 45 47 50 53 55 58 60 63 65 68 71 74 77 81 85 89 93 94 92 87 82 79 79 85 89 90 89 86 83 81 76 70 66 65 65 65 62 61 61 60 56 52
45 48 51 54 56 59 61 64 66 68 70 73 76 80 84 88 91 92 90 85 80 77 78 82 88 91 89 83 79 77 73 67 61 58 57 56 56 53 51 50 49 45 41
49 52 55 57 60 62 64 66 67 68 71 75 79 84 87 90 91 88 83 79 76 77 80 86 89 89 84 77 73 69 65 62 59 56 53 51 49 48 45 44 43 41 37
53 56 59 61 63 64 64 65 67 70 74 79 83 86 89 89 87 83 78 75 75 78 83 88 88 84 76 71 66 62 60 60 58 53 48 46 45 44 42 40 39 37 32
59 61 63 64 63 63 64 66 69 73 77 82 85 87 87 85 81 78 75 74 76 80 86 90 87 79 70 65 62 60 58 57 53 47 44 43 43 41 39 38 37 33 26
62 64 63 62 61 62 65 67 71 76 80 84 86 87 84 80 76 74 74 75 78 81 87 90 85 76 69 65 62 59 56 52 47 42 41 42 42 40 38 36 33 28 19
64 62 59 59 60 63 67 70 75 79 83 86 87 84 80 77 73 72 73 75 77 83 89 88 82 74 68 66 62 58 54 49 44 41 40 41 39 35 33 32 29 20 9
59 57 58 59 62 65 70 74 79 83 85 86 84 80 77 73 72 72 71 73 76 81 87 83 75 69 67 65 60 55 51 47 43 41 40 39 36 31 28 25 18 9 3

GEFSMW_500_meanwind_012.txt.gz
Wind_Speed
27 26 26 27 28 28 29 29 27 25 24 25 27 29 31 34 36 36 36 36 35 36 36 37 38 39 40 41 42 42 43 46 48 50 52 54 56 59 61 63 65 66 67
26 26 26 28 30 30 29 26 24 24 24 26 28 31 33 35 36 36 36 36 37 38 39 40 41 41 42 42 44 45 47 50 53 57 60 61 62 63 66 68 69 70 72
25 25 27 29 30 29 27 25 23 24 25 27 30 33 34 35 35 35 36 37 39 40 41 41 41 42 43 45 47 50 52 55 58 62 66 70 72 72 71 72 74 75 76
25 25 26 28 28 27 25 25 25 26 28 30 32 34 35 35 35 36 38 39 40 41 41 42 43 45 47 49 52 55 59 62 65 68 71 75 79 82 82 82 83 83 83
26 26 26 26 26 25 26 26 28 29 31 32 33 34 35 36 37 38 39 39 40 41 42 44 46 49 52 55 58 62 65 68 72 75 78 80 82 85 89 90 89 90 91
28 27 27 26 26 26 27 28 29 31 32 33 34 35 36 38 38 39 39 40 42 43 46 48 51 54 57 61 65 68 71 74 77 80 83 86 88 91 93 94 94 95 96
28 28 28 27 27 28 29 29 30 31 32 34 35 36 38 38 39 39 40 42 44 47 50 53 57 60 64 67 70 72 75 78 81 84 86 89 92 96 99 101 102 102 102
27 28 28 28 28 29 30 30 31 32 34 35 36 37 37 38 38 40 42 44 47 51 55 58 62 65 68 70 73 76 79 82 85 88 91 94 97 100 103 105 108 109 109
28 29 29 28 29 30 31 31 32 33 35 36 36 36 36 38 39 42 45 48 52 56 60 63 66 68 70 73 76 79 82 86 89 93 96 98 100 102 103 104 105 108 110
28 29 29 29 30 31 31 31 32 33 34 34 35 36 38 40 43 47 51 54 58 61 64 67 69 71 73 76 80 83 86 90 94 97 99 101 103 103 103 103 102 102 103
29 29 29 30 30 31 31 31 32 33 33 34 36 38 41 45 49 53 56 59 62 65 68 70 72 74 77 80 83 86 90 93 96 99 102 103 104 103 102 100 98 96 96
29 29 28 28 29 30 30 32 32 32 34 36 39 42 46 50 54 57 60 63 66 69 71 73 74 77 80 83 86 90 93 95 99 102 103 103 102 100 97 95 92 90 88
28 27 27 28 29 30 31 32 33 35 37 40 44 47 51 55 58 62 65 67 69 72 73 75 77 80 83 86 89 92 95 98 101 102 101 99 97 94 92 90 87 83 80
26 26 27 29 30 31 32 34 35 38 41 45 48 52 56 59 63 66 68 70 72 73 75 76 79 82 85 88 91 94 98 100 100 99 97 94 91 90 89 85 80 77 74
26 27 28 30 31 32 34 36 39 42 45 49 53 56 60 64 67 69 71 72 73 74 75 78 81 84 87 91 94 98 100 99 97 94 90 87 87 87 84 80 76 73 70
27 28 29 30 32 34 37 39 42 45 49 53 57 61 65 67 69 71 71 71 73 75 77 80 83 86 90 94 97 99 98 94 91 87 84 84 85 83 78 73 71 69 67
29 29 30 32 34 36 39 42 45 49 53 58 62 65 68 69 70 70 70 71 73 76 79 83 86 89 93 96 96 95 93 89 86 83 82 83 82 77 72 68 65 62 60
30 31 32 34 36 39 42 45 49 54 58 62 66 68 69 69 69 69 71 73 75 78 82 86 89 92 94 95 94 91 87 83 81 81 83 82 77 71 68 64 60 56 54
31 33 35 36 39 41 45 49 54 58 63 66 69 69 69 68 68 70 72 75 78 81 85 89 92 93 93 92 89 86 81 78 78 80 81 77 71 67 64 61 57 53 51
34 35 36 38 41 45 49 54 58 63 66 69 69 68 68 68 69 71 74 77 81 85 89 92 93 93 90 87 83 80 78 77 77 79 76 71 66 62 59 57 55 52 49
35 36 38 41 45 49 54 59 62 66 69 69 68 67 68 69 71 73 77 81 85 89 92 93 93 90 86 81 76 75 77 78 78 77 70 63 60 57 54 52 51 49 46
36 38 41 45 50 54 59 62 66 68 68 67 66 67 69 71 73 76 80 84 89 92 92 91 88 84 79 74 72 73 76 79 78 72 63 58 55 52 49 47 45 43 40
38 42 46 50 54 58 62 65 67 66 65 64 65 67 69 72 76 80 84 88 92 93 91 87 83 77 73 70 71 73 74 76 73 64 57 54 51 47 44 41 39 35 30
42 46 51 55 58 62 64 65 64 63 62 63 65 68 71 75 79 84 88 91 92 91 86 82 77 72 69 70 71 73 74 73 66 57 52 50 47 42 39 35 32 26 20
47 51 54 58 60 61 61 60 59 59 61 63 67 71 75 80 84 88 90 91 89 86 81 77 72 70 69 71 73 75 75 69 58 52 49 46 41 37 32 28 22 18 17
50 54 56 57 58 57 56 56 56 59 62 66 71 75 80 84 88 91 90 88 84 78 73 71 70 70 72 73 75 75 70 60 51 47 44 41 36 30 23 18 15 16 18

GEFSMW_500_meanwind_018.txt.gz
Wind_Speed
29 29 30 31 30 28 27 26 27 28 30 32 34 35 34 33 32 32 33 35 37 39 40 39 37 37 37 37 38 38 40 41 43 44 45 47 49 52 54 56 59 61 63
29 30 30 31 30 29 28 28 28 30 32 34 35 34 33 32 32 33 35 38 40 40 40 39 39 39 39 40 40 42 43 45 48 50 51 53 54 56 59 62 64 66 67
30 29 30 30 31 30 29 29 30 32 33 34 34 33 33 33 34 36 38 40 41 41 40 40 40 41 42 43 44 45 47 49 52 56 59 62 64 64 64 65 67 69 71
30 30 29 30 29 29 28 29 30 32 33 33 33 33 33 35 37 38 40 41 42 42 41 41 42 42 43 44 46 49 52 55 58 61 65 68 71 73 72 71 72 73 75
30 30 29 29 28 27 28 29 30 31 32 32 33 34 35 37 39 40 41 42 42 41 41 42 42 43 44 47 50 54 57 61 64 67 69 71 73 75 77 77 77 78 79
30 30 29 28 28 27 28 29 30 31 32 34 35 37 38 39 40 41 41 41 41 41 41 42 43 45 48 52 55 59 62 65 68 71 73 75 77 78 80 81 81 82 84
29 30 29 28 28 28 29 30 31 33 34 36 38 39 40 40 40 41 41 40 40 41 42 44 47 50 53 57 60 64 67 69 72 74 75 77 79 81 83 86 87 88 89
28 29 28 28 29 29 30 32 33 34 36 37 39 40 40 40 40 40 40 40 41 43 45 48 51 55 58 62 65 68 71 73 74 75 77 78 80 83 87 91 94 96 96
27 27 27 28 29 30 31 33 34 35 36 38 39 40 40 39 39 39 40 41 44 46 49 52 56 59 62 66 69 71 73 74 75 77 78 80 83 87 91 95 99 104 106
25 26 26 28 29 30 31 33 34 35 36 38 38 39 38 38 39 40 41 44 47 50 53 57 60 64 67 70 72 73 74 75 76 78 81 84 88 91 95 99 103 108 112
26 27 28 28 29 31 32 33 34 36 37 37 37 38 38 39 40 42 44 47 50 54 57 61 65 68 70 72 74 74 75 76 78 81 84 88 92 96 100 104 107 109 110
27 28 28 29 31 32 33 34 35 35 36 37 37 38 39 41 42 45 47 51 54 58 62 66 69 71 73 73 73 74 75 77 80 84 89 93 97 101 105 107 107 106 104
26 27 29 30 32 32 33 34 34 35 36 37 38 39 41 43 45 47 51 55 59 63 67 70 72 73 72 72 73 74 77 80 85 90 94 99 103 105 106 105 102 99 96
26 28 30 31 32 32 33 34 34 36 38 39 40 41 43 45 47 51 55 60 64 68 71 72 72 71 71 72 74 77 81 86 90 95 100 103 104 104 101 97 94 91 88
27 29 31 32 32 33 34 35 36 38 39 40 42 43 45 47 51 55 60 64 68 71 71 71 70 70 72 75 79 83 87 92 96 100 102 102 100 96 92 88 86 84 83
29 30 31 32 33 34 35 36 38 39 41 42 43 45 47 51 55 60 64 68 71 70 69 68 69 71 75 80 85 90 94 98 101 102 100 97 91 86 82 80 79 80 81
29 30 31 32 33 34 36 38 39 40 41 43 45 47 51 55 60 64 68 70 69 67 66 68 71 76 81 87 92 96 100 101 101 99 93 87 81 78 77 76 76 76 73
29 30 31 32 34 35 37 38 40 41 43 44 47 51 55 60 64 67 68 67 65 65 67 72 77 82 88 93 98 101 101 100 96 90 83 79 75 74 76 76 74 70 64
30 31 32 33 34 36 38 39 41 42 44 46 50 54 59 63 66 67 65 64 64 67 72 77 83 88 93 98 101 102 99 93 86 79 76 75 74 75 76 75 69 61 55
30 30 31 33 35 37 38 39 41 43 46 49 54 58 62 64 65 63 62 63 67 72 77 82 88 93 97 101 101 99 93 85 79 74 72 73 75 74 71 66 59 52 47
29 31 33 34 36 37 38 39 41 45 49 53 57 61 63 62 61 61 63 67 72 77 81 87 92 97 100 100 96 89 84 80 77 75 73 72 71 67 60 55 50 45 40
30 32 33 35 35 36 38 41 44 48 52 56 59 60 59 58 59 62 67 72 77 81 86 91 96 99 99 94 87 81 78 78 78 76 73 69 62 55 49 44 40 36 32
30 32 32 33 35 37 40 43 47 51 55 57 57 56 56 58 61 66 71 76 82 87 91 96 99 98 92 85 80 77 76 76 76 72 66 58 50 44 39 35 32 28 26
30 31 32 34 37 40 43 46 50 53 54 53 53 54 56 60 65 71 76 81 86 91 95 98 98 92 84 79 77 76 75 72 67 60 52 45 39 35 31 28 26 25 25
30 32 34 37 39 42 46 49 51 51 50 51 52 55 59 63 69 74 80 85 90 95 98 97 93 86 80 77 77 76 71 65 57 49 41 36 31 27 25 23 23 23 23
33 34 36 39 42 45 47 48 47 47 48 50 54 58 63 68 73 78 83 88 93 96 96 91 85 80 78 77 74 68 61 54 47 40 34 29 25 22 19 19 20 20 19

GEFSMW_500_meanwind_024.txt.gz
Wind_Speed
33 31 30 29 29 28 28 27 26 26 26 26 26 26 27 28 29 31 32 31 31 32 33 34 37 39 40 42 43 43 43 43 42 42 41 43 44 46 48 51 54 57 60
34 31 30 29 28 29 28 27 27 27 27 27 27 28 29 30 31 32 31 31 32 34 36 38 40 42 43 44 44 44 44 44 44 44 44 45 47 50 53 57 60 63 65
33 31 30 29 29 29 29 28 27 28 28 28 29 29 30 30 31 31 31 33 35 37 39 41 43 44 45 45 45 44 44 45 47 49 51 53 54 55 56 60 63 66 68
33 30 29 29 29 29 29 28 28 28 29 29 30 30 31 32 32 32 33 36 38 40 42 43 44 44 44 45 45 46 47 48 51 54 57 61 64 66 65 64 65 67 69
33 30 30 30 29 29 29 28 28 28 29 30 30 31 31 32 32 34 36 38 41 42 43 44 44 44 44 45 46 48 51 53 56 59 62 65 68 72 74 73 73 72 71
34 31 30 29 28 28 28 28 28 28 29 30 31 31 32 33 35 36 38 40 42 43 43 44 44 44 45 47 49 52 55 58 61 64 67 69 71 73 75 77 77 77 76
33 31 30 29 29 29 28 28 28 29 29 30 31 32 33 35 36 38 39 41 42 43 44 44 44 45 47 50 53 55 59 62 65 68 70 72 74 75 76 78 78 78 78
32 31 30 29 29 28 28 28 28 29 30 31 32 33 35 36 38 39 40 41 42 43 44 45 46 48 50 53 56 59 62 65 68 70 72 73 74 75 77 79 82 83 82
31 30 29 28 27 27 27 28 28 29 30 31 32 34 36 37 38 40 41 42 42 44 45 46 48 51 53 56 59 62 66 69 71 72 72 72 73 76 79 83 88 92 93
30 29 27 26 26 26 26 27 27 28 29 31 32 34 36 38 39 40 41 42 43 45 47 49 51 53 56 59 63 66 69 71 71 71 71 73 76 80 85 90 95 100 105
28 27 26 25 25 24 24 25 26 27 29 31 32 35 37 39 40 41 42 43 45 47 49 51 53 56 59 62 66 68 70 70 70 71 74 77 82 87 92 97 102 107 113
26 26 25 24 23 23 23 24 25 27 29 31 33 35 37 38 40 41 43 44 47 49 51 53 56 59 62 65 68 69 69 69 71 74 79 83 88 93 99 104 109 113 116
24 23 22 21 21 22 23 24 26 28 30 32 34 35 37 39 40 42 44 46 49 51 53 55 59 62 65 67 68 68 69 71 75 80 85 90 95 100 106 111 114 115 113
21 20 20 20 21 22 23 24 26 28 30 32 34 36 38 40 42 44 46 48 51 53 55 58 61 64 66 67 67 68 71 75 81 86 92 97 102 108 112 115 114 110 104
19 19 19 19 20 21 22 24 26 28 30 32 34 36 38 41 43 46 48 50 52 55 58 61 64 66 66 66 68 71 76 81 86 92 97 103 109 113 114 112 107 101 94
19 19 19 19 20 21 22 25 27 29 31 33 35 37 40 43 45 47 49 52 54 57 61 63 64 65 65 68 71 76 81 87 93 98 103 109 112 112 107 102 96 91 86
18 18 18 19 20 21 24 26 28 30 32 34 37 39 42 44 46 48 51 53 56 59 62 63 63 64 67 71 76 81 87 93 98 104 109 111 109 104 97 91 85 79 72
17 17 18 19 21 23 25 26 28 31 33 36 39 41 43 46 48 50 53 55 58 60 60 61 63 66 71 76 81 87 92 98 103 108 110 107 100 93 87 80 73 64 55
17 18 19 21 22 24 25 27 30 32 35 38 40 42 45 47 49 52 54 57 58 58 60 62 66 71 76 82 87 93 97 102 106 106 103 97 89 82 75 68 58 49 42
19 20 21 22 23 25 27 29 32 34 37 39 41 43 45 48 51 53 55 56 56 58 61 65 70 76 82 88 94 99 102 105 103 98 90 83 77 70 62 54 46 38 32
19 20 21 22 24 26 28 31 33 36 38 40 42 44 47 50 52 53 54 55 56 59 64 69 76 82 88 93 98 102 104 103 97 88 78 70 64 57 50 43 37 32 28
19 20 21 23 25 27 30 32 34 36 38 41 43 46 48 50 51 52 53 55 58 62 68 73 80 86 92 97 100 102 101 96 88 77 68 60 52 45 39 34 30 27 25
18 20 22 24 27 29 31 33 35 37 39 41 44 46 48 49 50 52 54 57 62 67 72 78 84 89 94 99 101 99 93 84 76 67 58 50 43 37 32 28 25 23 22
19 21 23 25 27 29 31 33 35 37 40 42 44 46 47 49 50 53 56 61 66 72 78 83 88 92 96 99 97 91 82 73 64 55 47 41 35 31 27 24 22 22 21
19 22 24 26 28 30 32 34 36 38 41 43 44 45 47 48 51 55 60 66 72 78 83 88 92 95 96 95 90 81 72 63 54 45 38 32 28 26 24 23 22 21 21
21 23 25 27 29 30 32 35 38 40 41 43 44 45 47 50 54 59 65 71 77 83 88 91 94 95 93 87 79 70 62 53 44 36 30 26 23 22 20 19 20 21 21

GEFSMW_500_meanwind_030.txt.gz
Wind_Speed
38 41 41 39 38 36 34 33 32 32 31 29 28 28 29 29 28 28 29 30 31 32 33 34 35 35 35 37 38 40 41 42 43 44 45 46 46 46 47 48 49 51 53
39 41 40 39 38 37 35 33 33 33 31 29 28 28 29 29 29 29 30 31 32 33 34 35 36 37 38 39 41 42 44 45 45 45 45 45 45 47 48 50 52 55 57
41 41 40 38 38 38 36 35 34 33 32 30 28 28 29 30 30 30 31 32 33 34 36 37 38 39 40 42 43 44 46 47 48 48 48 48 47 47 48 51 55 58 61
44 43 41 38 37 37 37 36 35 34 32 30 28 28 29 30 31 31 32 33 35 36 38 39 40 41 43 44 45 46 48 48 49 50 51 53 54 54 53 53 57 60 62
45 43 40 38 38 38 37 36 35 34 32 30 29 28 29 29 31 32 33 34 36 38 40 41 42 44 45 46 47 49 49 50 51 52 54 56 58 61 62 60 61 62 64
45 43 41 39 38 38 37 36 35 34 32 31 29 29 29 30 31 32 34 35 37 39 40 42 44 45 46 47 49 50 51 52 53 55 57 59 61 64 66 66 66 66 66
46 44 42 40 38 38 37 35 34 33 32 31 30 30 30 30 31 33 35 36 38 39 41 43 45 46 47 49 50 51 52 54 56 58 61 63 66 68 70 71 71 70 70
47 45 42 41 39 39 37 35 34 33 32 31 31 30 30 31 33 34 36 37 38 40 42 44 46 47 48 50 51 53 54 57 59 61 64 66 69 71 73 74 75 74 73
46 44 43 42 40 39 38 36 35 34 33 32 31 31 31 32 33 35 36 37 39 41 42 44 46 48 49 51 53 55 57 59 62 64 66 69 71 73 75 76 77 79 79
44 42 42 41 40 39 38 36 35 34 33 32 32 32 32 33 34 35 36 38 39 41 43 45 47 49 51 53 55 57 59 61 64 66 69 71 73 74 75 77 80 84 88
40 40 40 40 39 39 38 36 35 34 33 32 32 32 32 33 34 35 36 38 40 42 44 46 49 51 53 55 57 59 61 64 66 69 71 73 73 75 77 81 85 91 97
38 38 39 39 39 38 37 36 35 33 33 32 32 32 32 33 33 35 37 39 41 43 45 47 50 52 55 57 59 61 64 66 69 71 72 73 75 78 82 86 92 98 104
37 37 38 38 38 37 36 35 34 33 32 32 31 31 32 33 34 36 38 40 42 44 46 49 51 54 56 58 61 64 66 69 70 72 73 75 78 82 87 93 98 104 109
37 37 37 36 36 35 34 34 33 32 31 30 30 31 31 33 35 37 39 41 43 45 48 51 53 56 58 61 63 66 68 70 71 73 75 79 83 89 94 99 105 109 111
34 34 34 33 33 33 32 31 30 30 29 29 29 30 31 33 35 38 40 42 44 47 50 53 55 58 60 63 66 68 69 70 71 74 78 83 89 95 100 105 108 108 105
31 30 30 30 30 30 29 28 28 28 28 28 29 30 32 34 36 38 41 43 46 49 52 55 57 60 63 65 67 68 69 71 74 78 83 89 95 100 104 107 105 99 91
28 28 28 28 28 27 26 26 26 26 26 27 29 31 32 34 37 39 42 45 49 51 54 56 59 62 64 66 67 68 70 74 79 84 89 94 100 104 105 101 93 82 72
26 26 25 25 24 24 23 23 24 24 26 28 29 31 33 35 38 41 44 47 50 53 55 58 61 63 64 65 66 69 73 78 84 89 94 99 102 102 99 91 78 66 57
22 22 21 21 21 20 21 21 23 25 26 28 29 31 34 37 40 43 46 48 51 54 57 59 61 62 63 65 68 73 77 82 88 93 98 101 101 96 88 76 63 53 47
18 18 18 18 18 19 20 22 23 24 26 28 30 33 36 39 41 44 47 50 53 55 58 59 60 61 64 67 72 77 82 87 91 96 99 99 93 83 72 61 51 44 39
15 16 16 17 18 19 20 21 23 25 27 29 32 35 38 40 42 45 48 51 54 55 56 57 60 63 67 72 77 83 88 91 95 97 95 89 80 68 58 49 42 37 34
14 16 16 17 18 19 20 22 24 26 28 31 34 36 38 41 44 46 49 51 53 53 55 57 62 67 72 76 81 87 91 95 96 93 86 76 64 55 47 40 36 33 31
14 15 15 16 17 19 20 22 25 27 29 32 34 36 39 42 45 47 49 50 51 53 56 60 65 70 75 80 85 89 93 94 91 83 72 62 52 44 38 35 32 29 28
13 14 15 16 17 19 21 23 26 28 30 33 35 37 40 43 45 47 48 49 52 56 60 64 68 73 79 84 88 91 92 89 80 69 59 50 42 37 33 31 29 28 29
12 13 14 16 18 20 22 25 27 29 31 33 36 39 41 43 44 45 47 51 55 59 63 68 73 78 83 88 91 92 88 78 67 56 46 39 34 31 31 30 30 31 30
12 14 15 17 20 22 24 26 28 30 32 35 38 40 41 42 43 46 49 54 58 63 68 74 79 84 88 91 90 85 75 64 55 45 37 31 29 28 27 28 30 30 30

GEFSMW_500_meanwind_036.txt.gz
Wind_Speed
47 46 45 43 42 42 43 43 43 43 42 40 38 37 36 37 37 38 37 36 35 34 34 34 35 35 36 36 37 38 38 38 39 40 42 43 44 46 47 49 50 51 51
49 48 47 46 44 43 43 43 43 43 43 42 40 38 37 37 38 38 37 37 36 35 36 36 36 37 38 38 39 40 40 40 41 42 44 46 47 48 50 51 52 53 54
50 49 49 48 46 44 43 44 43 43 43 43 42 40 38 38 38 37 37 37 37 37 38 38 38 39 40 41 42 42 42 43 44 45 46 48 49 50 50 53 54 56 57
51 51 50 49 47 45 44 44 43 43 43 43 42 41 39 38 37 37 37 37 37 38 38 39 40 41 42 43 43 44 45 45 46 47 49 50 52 53 52 52 54 56 58
53 52 51 50 49 47 46 45 44 43 43 43 42 41 39 37 37 37 37 37 38 38 39 40 41 42 43 44 45 45 46 47 49 50 51 52 54 55 57 55 56 57 59
54 53 53 52 51 49 48 46 44 42 42 42 41 40 39 38 37 37 37 38 38 39 40 41 42 43 44 45 46 47 48 49 51 52 54 55 56 58 59 60 60 61 61
54 54 53 53 52 49 48 46 43 42 42 41 40 40 39 38 37 38 38 38 38 39 40 42 42 43 44 45 46 47 49 51 52 54 56 57 59 61 63 65 66 66 66
55 54 53 53 53 51 48 46 44 42 42 41 40 40 39 38 37 38 38 38 39 40 41 42 43 44 45 46 47 48 50 52 54 56 58 60 61 63 65 67 69 70 69
54 55 54 53 52 51 49 46 44 43 42 41 40 40 39 38 37 38 38 39 40 40 41 42 43 44 45 46 47 49 52 54 56 58 60 62 64 66 68 69 71 72 73
54 55 55 53 52 51 49 47 45 44 43 42 41 40 38 37 37 37 38 39 39 40 41 42 43 44 44 46 48 51 53 56 58 60 62 65 66 68 69 71 72 73 75
51 54 55 53 51 50 48 46 45 44 43 42 41 39 38 37 37 38 38 39 40 40 41 42 42 43 45 47 50 53 55 58 60 62 64 66 68 69 70 72 73 74 76
48 51 52 51 50 48 47 46 45 44 43 42 40 39 38 38 38 38 38 39 40 40 41 41 42 44 46 49 52 55 57 60 62 64 66 67 69 70 72 73 75 77 80
44 48 49 49 48 46 45 45 45 44 42 41 40 39 38 38 38 38 38 39 39 40 40 41 43 45 48 51 54 56 59 61 64 65 67 68 69 71 73 75 78 81 86
41 46 47 46 45 44 44 44 43 42 41 40 39 38 38 37 38 38 38 39 39 39 40 42 44 47 50 53 55 58 60 63 64 66 67 69 70 72 75 78 83 87 92
35 41 42 42 41 40 41 42 42 41 40 39 38 37 37 37 37 37 37 37 38 39 41 43 46 49 52 55 57 60 61 63 65 66 68 70 72 75 79 84 89 94 98
31 35 37 37 37 37 38 39 39 38 37 36 36 35 35 35 36 36 36 37 38 40 42 45 48 51 54 56 59 61 62 64 65 67 69 72 75 80 84 90 95 98 99
28 31 32 33 34 34 34 35 35 34 34 33 33 33 33 34 34 34 35 37 39 41 44 47 50 53 55 58 60 61 63 64 67 69 72 76 80 85 90 94 96 95 92
24 26 27 28 29 29 30 30 30 30 30 30 30 31 31 31 32 33 35 37 40 43 46 49 51 54 56 58 60 61 63 65 68 72 76 81 86 91 94 94 92 87 80
21 22 23 23 24 25 25 25 26 26 26 27 27 27 28 29 31 33 36 38 41 44 47 50 52 54 57 58 60 62 64 67 71 76 81 86 90 93 93 90 84 75 65
18 19 19 20 20 21 21 22 22 23 23 23 24 25 27 29 31 34 37 40 43 45 48 50 53 55 56 58 60 63 67 70 75 81 86 90 92 91 87 81 71 60 51
14 14 15 16 16 17 18 18 19 19 20 21 22 24 27 29 32 35 38 41 43 46 48 51 53 55 56 59 62 66 71 76 81 85 89 90 88 84 76 67 57 48 42
12 12 12 12 13 13 14 14 15 17 18 20 23 25 28 31 34 36 39 41 44 46 49 51 53 55 57 61 66 71 76 81 85 88 88 86 80 72 62 53 45 40 37
9 9 9 9 9 10 11 13 14 16 19 21 24 26 29 31 34 36 39 42 44 47 48 50 52 56 60 65 70 75 80 84 87 86 83 76 67 57 48 42 38 35 33
5 6 6 7 8 9 11 13 15 17 19 22 24 27 29 32 35 37 40 42 44 46 48 50 54 58 64 69 74 78 83 85 84 80 72 62 52 43 38 34 32 31 32
4 5 6 7 8 10 11 13 16 18 21 23 25 28 30 33 36 38 41 42 44 46 49 53 57 63 68 73 78 83 85 84 78 69 58 47 39 34 31 30 30 31 32
5 5 6 7 9 10 13 15 17 20 22 24 27 29 32 34 37 39 40 42 45 48 52 57 63 68 73 78 82 85 83 76 65 53 43 36 31 29 28 29 30 31 31

GEFSMW_500_meanwind_042.txt.gz
Wind_Speed
38 38 38 38 39 40 41 43 43 41 42 43 41 40 39 39 39 38 37 38 38 39 39 39 39 39 39 39 40 40 41 41 41 41 42 43 43 44 45 45 46 46 46
41 41 41 41 41 42 43 44 45 45 45 45 44 43 42 40 39 39 38 38 39 39 39 39 40 40 39 40 40 41 41 42 43 43 44 45 45 45 46 47 48 49 49
45 45 45 46 45 45 46 46 47 47 47 47 47 45 44 42 40 40 40 40 40 40 40 40 41 40 40 41 41 41 41 42 44 45 46 47 48 48 47 48 49 50 51
49 50 50 50 50 49 49 49 49 50 50 50 48 47 45 44 42 41 41 41 41 41 41 41 41 41 41 42 42 42 42 43 44 46 48 49 50 50 50 50 51 51 52
53 54 54 54 54 53 53 52 51 51 52 51 49 49 48 46 44 43 42 41 41 42 42 42 42 42 42 42 42 43 43 44 45 47 48 49 51 52 52 52 52 53 54
55 55 56 56 56 56 55 54 54 53 52 51 50 50 49 48 46 44 43 42 42 42 42 42 42 42 42 42 43 43 44 45 47 48 49 50 51 53 53 54 54 54 55
55 55 56 57 57 57 57 57 55 54 53 51 50 50 50 48 47 45 44 43 42 42 41 42 42 42 42 42 43 44 45 47 48 49 50 51 52 54 55 56 57 57 57
56 56 55 55 56 57 58 57 56 54 53 52 50 50 49 48 47 46 45 44 42 42 42 41 41 41 41 41 43 44 46 48 49 50 51 52 53 55 56 58 60 61 61
55 55 54 53 53 55 56 57 56 55 53 52 51 49 48 47 46 45 44 43 42 42 41 41 41 41 41 42 44 45 47 48 50 51 52 53 54 56 58 60 62 65 66
51 51 51 51 50 51 54 55 55 54 53 52 50 48 47 46 45 45 44 43 42 41 40 40 40 40 41 43 44 46 47 49 50 51 52 54 56 58 60 62 65 67 69
50 48 47 47 47 48 50 52 53 53 52 50 48 46 45 45 44 44 43 42 41 40 40 40 40 41 42 43 45 47 48 50 51 52 54 56 58 60 62 65 67 68 70
48 46 44 43 44 44 46 48 50 51 49 47 45 44 44 43 43 42 42 41 40 39 39 39 40 41 43 44 46 48 49 51 52 54 56 58 60 63 65 67 68 69 71
45 43 40 39 39 40 42 44 46 46 45 43 43 42 42 42 41 41 40 39 39 38 39 40 41 42 44 46 47 49 50 52 54 56 58 60 63 65 67 68 69 71 73
39 37 35 33 33 34 37 39 40 41 40 41 41 40 40 40 39 39 37 37 37 38 39 40 42 43 45 47 48 50 51 53 55 58 60 63 64 66 67 69 71 73 76
28 26 25 25 26 28 31 34 36 37 37 38 38 37 37 36 36 35 35 35 36 38 39 41 42 44 46 48 49 50 52 55 57 60 62 64 65 67 69 71 73 76 80
17 15 14 16 19 23 27 30 32 33 34 34 34 33 33 32 32 33 33 34 36 37 39 41 43 44 46 47 49 51 54 56 59 61 63 65 66 68 70 73 77 82 86
5 3 7 12 16 19 24 27 29 30 30 29 29 29 29 29 29 30 31 33 35 37 40 42 44 45 46 48 50 53 55 58 60 62 63 65 67 70 73 77 82 87 91
8 10 11 13 15 18 22 24 25 25 25 25 24 24 25 25 27 28 30 33 35 38 40 41 43 44 47 49 52 54 56 59 61 62 64 66 70 74 78 82 86 89 91
16 16 16 17 18 19 19 20 20 20 19 19 19 20 21 23 26 28 31 34 36 37 39 40 43 45 48 50 53 55 57 58 60 63 66 70 74 78 83 87 89 88 86
17 18 18 18 18 18 17 16 15 14 14 14 15 18 21 24 26 28 30 32 35 36 39 41 44 46 49 51 54 55 57 58 61 65 70 74 78 83 88 89 87 81 73
15 15 16 16 16 16 15 13 12 11 12 14 17 19 21 24 26 27 30 32 34 37 39 42 45 47 50 52 53 55 58 61 64 69 73 78 83 87 88 84 76 67 58
13 13 13 13 13 12 12 12 12 13 14 16 17 19 21 23 25 27 30 32 34 37 40 43 45 48 50 51 54 57 61 65 69 73 77 82 85 85 79 70 60 53 48
9 10 10 10 10 9 9 10 10 11 12 14 16 18 20 23 25 27 30 32 35 38 41 43 45 47 50 52 56 60 65 69 73 77 80 82 80 73 63 54 48 43 40
7 6 6 5 5 5 5 6 7 8 10 13 15 17 20 22 25 28 31 33 36 38 40 42 44 48 51 55 60 65 69 72 75 77 78 75 67 57 48 42 38 37 37
5 4 4 3 2 1 2 3 6 8 10 13 16 18 21 24 27 29 32 34 36 37 40 43 46 50 54 60 64 68 70 72 74 74 70 61 51 42 38 35 34 35 36
3 3 2 1 1 2 4 6 8 11 13 15 18 20 23 25 28 30 32 34 36 38 42 45 50 54 59 64 67 69 71 72 70 65 56 46 38 33 31 32 33 35 35

GEFSMW_500_meanwind_048.txt.gz
Wind_Speed
40 40 39 38 39 39 39 39 38 38 37 37 36 37 37 37 37 37 37 36 35 35 35 35 35 34 34 34 34 34 35 35 35 35 36 37 38 39 40 41 42 43 43
41 41 41 41 41 41 42 42 41 41 41 40 40 40 41 42 41 40 40 38 38 38 38 37 37 36 36 35 35 36 36 36 36 37 37 38 39 40 40 41 42 43 44
42 43 43 44 44 44 44 44 45 45 44 44 44 44 44 43 43 42 42 41 41 41 40 40 39 38 37 37 36 36 36 37 37 37 38 39 40 41 41 42 43 44 45
42 43 44 45 46 46 47 47 48 48 48 48 47 47 46 45 45 45 45 45 45 44 43 42 41 39 38 38 38 37 37 38 38 38 39 40 41 41 42 43 44 45 46
42 43 45 46 47 49 50 50 51 52 52 52 51 51 50 49 48 47 47 47 47 46 45 44 43 42 41 40 39 39 38 38 39 40 40 41 42 42 43 44 44 46 47
43 45 47 48 50 52 53 54 55 55 56 56 56 55 54 52 51 49 49 49 49 48 47 46 45 44 43 42 41 40 40 40 40 41 41 42 43 44 44 45 45 46 48
45 48 50 51 53 54 55 56 57 58 59 59 59 59 58 56 54 52 51 50 50 49 48 48 47 46 45 43 42 42 41 41 42 42 43 43 45 45 47 47 48 48 49
47 49 51 52 54 55 56 58 58 58 59 60 60 60 60 58 56 54 52 51 51 50 49 48 48 46 45 44 43 43 42 43 43 44 44 45 47 47 48 49 51 51 52
45 47 50 52 53 55 56 57 58 58 58 58 59 59 58 59 58 55 53 52 52 51 49 49 48 47 45 44 44 43 42 43 44 45 46 47 48 49 50 52 54 55 56
44 46 49 51 52 53 54 55 56 57 58 58 57 58 58 57 56 55 53 52 51 50 49 48 48 46 45 44 43 42 42 43 44 45 47 49 51 52 53 56 58 59 60
43 46 48 49 51 52 53 53 53 53 54 55 56 57 57 56 55 54 53 51 50 49 48 47 46 45 44 43 42 41 42 43 44 46 49 51 53 55 56 58 60 62 64
43 46 48 50 51 51 49 49 48 49 50 51 52 54 54 54 53 52 51 49 48 47 46 45 43 42 42 41 40 41 42 44 46 48 51 53 56 58 60 61 63 64 66
41 44 45 47 47 46 44 43 42 43 44 45 47 49 50 51 50 50 48 46 45 44 43 41 40 40 39 39 39 40 43 45 47 50 53 56 59 60 62 63 65 66 67
39 40 39 39 38 36 35 34 35 36 38 39 41 43 45 46 46 45 44 42 41 40 38 38 37 37 36 36 38 40 44 46 49 53 56 59 60 62 64 65 66 68 69
34 32 32 31 28 26 25 25 27 28 30 33 35 36 38 41 41 40 39 37 36 35 34 34 34 33 34 36 38 41 46 49 52 56 59 61 62 64 65 67 68 69 70
28 26 24 22 18 16 15 15 17 20 23 26 28 29 31 34 34 33 32 32 31 31 31 31 31 32 34 36 39 44 48 51 55 57 60 62 63 65 66 68 69 71 72
23 22 19 15 11 8 8 8 11 14 18 20 23 24 26 27 28 28 27 27 27 27 27 28 29 31 35 39 43 47 51 53 56 59 61 62 64 65 67 68 70 72 76
20 18 16 12 9 4 1 5 8 12 15 17 19 21 22 23 22 22 22 22 23 24 25 27 30 34 38 42 46 49 51 54 57 59 61 62 63 65 67 70 72 76 80
17 16 14 12 10 8 8 9 11 14 15 17 18 19 19 19 19 18 19 19 21 22 25 30 34 36 40 43 46 49 52 54 56 58 60 62 64 67 70 73 76 79 81
15 14 12 11 11 11 12 12 14 15 15 16 16 16 16 16 16 17 18 20 23 26 29 31 34 37 40 44 47 49 51 53 55 58 61 64 67 71 73 75 77 77 77
12 11 11 11 11 11 12 12 13 14 14 14 14 13 13 13 14 16 18 20 23 26 28 30 34 38 41 44 47 49 51 53 56 59 63 66 70 73 75 76 75 73 69
9 9 9 10 10 10 11 11 11 11 10 9 9 10 10 11 13 16 18 20 23 26 29 32 35 38 41 43 46 49 52 55 58 62 66 70 72 74 74 72 69 64 57
8 7 7 7 7 8 7 7 7 6 5 4 5 6 7 10 12 15 17 21 24 27 30 32 35 38 41 43 47 50 54 58 62 66 70 72 72 71 68 63 57 51 45
7 6 5 5 5 5 5 4 3 2 0 2 4 6 8 11 13 16 19 22 25 28 30 33 35 38 42 45 49 53 57 62 66 69 70 70 67 63 57 51 45 40 39
6 5 5 4 4 4 4 4 3 4 4 6 7 9 11 13 16 18 21 24 26 28 30 33 37 40 44 48 52 56 60 64 67 67 66 62 57 51 45 40 37 36 36
5 5 5 5 5 5 5 5 5 6 8 9 11 13 14 16 18 20 22 24 27 29 32 35 39 43 47 51 55 58 62 64 64 61 56 51 45 40 36 33 33 34 34

GEFSMW_500_meanwind_054.txt.gz
Wind_Speed
42 42 43 42 42 42 41 41 42 42 42 43 43 43 42 42 43 42 42 41 40 39 38 38 38 38 38 37 37 37 37 37 37 37 37 37 37 37 37 37 37 37 37
43 43 44 44 44 43 43 43 44 45 45 45 45 45 46 46 45 45 45 43 42 42 42 41 41 41 41 40 40 40 39 40 39 39 39 38 37 38 38 38 38 38 38
44 44 44 44 44 44 44 45 46 47 48 48 48 48 48 48 48 47 46 46 46 46 45 45 45 45 44 43 43 42 42 42 42 41 41 40 40 39 39 39 39 39 39
43 43 43 44 44 45 45 46 47 48 49 50 51 51 50 50 49 49 49 49 50 49 48 48 48 48 47 46 45 45 45 45 44 44 43 43 42 41 41 40 41 41 41
40 41 42 43 44 45 46 47 48 49 50 52 53 53 53 53 52 52 52 52 52 52 51 51 50 50 50 49 48 48 47 47 46 46 45 45 44 43 43 42 42 43 44
38 39 41 42 43 45 46 48 49 51 52 53 54 55 56 56 56 56 55 55 54 54 54 53 53 52 52 51 50 50 50 49 48 48 47 47 46 46 45 45 45 45 45
36 38 39 41 42 44 47 49 50 52 54 56 57 58 59 60 60 60 60 59 58 57 56 55 55 55 54 53 52 52 51 51 50 50 49 48 48 48 48 47 47 47 47
35 37 39 41 43 45 48 50 52 54 56 58 60 61 62 63 63 63 63 63 62 60 59 58 57 56 55 54 53 53 53 52 52 51 50 50 50 49 49 49 49 49 49
34 36 38 41 43 45 48 50 53 55 57 60 61 63 64 65 66 66 66 66 65 63 62 60 58 57 56 55 55 55 54 54 53 52 51 51 50 51 51 50 50 51 51
33 35 38 40 42 45 47 50 53 55 58 60 62 64 65 66 67 67 67 67 66 64 63 60 58 57 57 57 56 55 55 54 53 52 51 50 50 51 51 50 51 53 54
31 34 36 38 41 44 47 50 52 55 57 60 62 63 64 65 66 66 66 65 65 64 62 60 58 57 56 56 56 55 55 53 52 51 50 50 50 51 51 51 54 56 57
29 31 33 36 39 42 45 48 51 53 55 57 58 59 60 60 60 60 60 60 60 60 59 58 57 55 54 54 54 53 53 51 50 50 49 49 50 51 52 54 57 58 60
27 29 31 33 36 39 42 44 47 49 50 50 51 51 51 52 53 54 54 54 54 54 54 54 53 52 52 51 51 50 49 48 48 48 48 48 49 51 53 56 59 61 63
24 26 28 31 33 36 38 40 41 41 41 41 41 41 42 43 44 44 45 46 46 47 48 48 48 47 47 47 46 46 45 45 45 45 46 48 50 53 55 58 60 62 64
22 24 26 28 30 32 33 34 33 31 30 30 29 29 31 32 32 33 35 37 38 39 40 40 41 41 41 41 41 42 42 42 43 44 46 48 51 54 56 58 61 63 66
20 21 23 25 26 27 28 28 27 25 23 22 20 19 19 20 22 24 26 28 30 31 32 33 34 34 35 36 37 38 39 40 41 43 46 48 52 55 57 60 62 64 66
18 19 20 22 22 23 24 24 23 21 18 16 13 11 11 12 14 16 18 21 22 24 25 26 28 29 31 32 33 34 36 39 41 44 47 49 53 56 57 59 61 64 67
15 16 17 19 19 20 21 21 20 18 16 12 9 5 4 6 8 10 13 16 18 19 21 23 24 25 27 28 30 33 35 38 40 43 46 49 52 55 57 59 62 65 68
14 14 15 16 16 17 18 18 17 15 14 11 9 6 3 2 4 6 8 11 14 15 17 19 22 25 26 27 30 32 34 37 40 43 46 49 52 55 57 60 63 66 68
13 13 13 13 14 14 15 15 15 14 12 10 9 7 4 2 0 3 6 8 10 13 15 16 19 21 24 27 29 31 34 37 40 44 47 50 53 55 58 61 63 65 67
11 11 11 12 12 12 12 13 13 12 11 10 9 7 5 3 1 1 3 6 8 10 12 15 18 20 23 26 29 32 35 38 41 45 48 51 54 57 60 62 63 64 65
11 10 10 10 10 10 11 11 11 11 10 10 9 8 7 5 3 4 5 7 8 10 13 16 19 22 25 27 30 33 36 39 42 46 49 52 55 58 60 62 62 61 59
10 10 10 10 10 10 10 10 10 10 10 9 9 9 8 7 7 7 8 9 11 13 15 18 20 23 25 28 32 35 38 41 44 47 51 54 56 59 60 60 57 53 50
10 10 9 9 9 9 9 9 9 9 10 10 9 9 9 9 9 10 11 13 14 16 17 20 22 25 28 31 34 37 40 44 47 50 53 55 58 58 56 52 48 45 42
10 10 9 8 8 8 8 8 9 9 10 11 11 11 11 12 12 13 14 15 16 18 20 22 25 28 30 33 36 40 43 46 49 52 54 56 55 52 48 44 41 40 38
10 10 9 9 9 8 8 9 10 11 11 12 13 13 14 14 14 15 17 18 19 21 23 26 28 31 34 37 40 43 46 48 51 53 54 52 49 45 41 39 38 36 35

GEFSMW_500_meanwind_060.txt.gz
Wind_Speed
40 39 39 39 39 39 39 39 39 40 41 42 42 43 43 44 44 44 45 45 45 46 45 45 45 44 44 44 44 43 42 42 41 41 40 39 37 36 36 36 36 36 36
39 39 39 39 40 40 40 40 40 41 42 43 44 45 45 46 46 47 47 47 48 48 48 48 48 48 48 48 47 47 46 46 45 44 43 42 40 39 39 38 38 38 38
39 39 40 40 40 41 41 41 41 42 42 43 45 46 47 47 48 49 49 50 50 51 51 51 51 51 51 51 50 50 49 49 48 48 46 45 43 42 42 41 41 41 41
39 40 40 40 41 41 41 42 42 43 43 44 45 46 46 47 48 50 51 52 53 53 54 54 54 54 54 53 53 52 52 52 51 50 50 49 48 46 45 44 44 44 44
39 40 40 40 41 41 41 42 42 43 44 44 45 46 47 48 49 50 51 52 54 55 56 57 57 57 57 56 56 55 55 54 54 53 53 52 51 50 48 48 47 47 47
38 39 39 40 40 40 41 41 42 43 44 44 45 46 47 48 50 51 52 53 55 56 57 58 59 59 59 59 59 59 58 57 57 56 56 55 54 52 51 51 50 50 50
36 36 37 38 38 39 39 40 40 42 43 44 45 46 48 50 51 53 55 56 57 58 59 60 61 61 62 62 62 61 61 60 59 59 57 57 56 54 53 54 53 53 53
33 34 35 35 36 36 37 38 40 41 42 43 45 47 48 51 53 55 57 59 60 62 63 64 64 64 64 64 63 63 62 61 61 60 59 58 57 57 56 55 56 56 56
31 32 33 33 34 35 36 37 38 40 41 43 45 47 49 52 54 56 59 61 63 65 66 67 67 67 66 65 65 64 63 62 61 61 60 59 58 57 57 57 58 59 59
29 30 30 31 32 33 34 35 37 39 41 43 45 47 50 52 54 57 59 61 63 64 65 66 66 66 66 65 63 63 62 61 60 60 60 59 58 58 58 59 59 60 60
27 28 29 30 31 32 32 34 35 38 40 42 44 46 49 51 53 55 57 58 60 61 62 63 62 61 60 60 59 58 58 58 58 58 58 58 57 58 58 58 59 60 59
27 27 28 29 30 30 32 33 35 36 38 40 42 44 46 48 49 51 52 53 54 55 56 57 56 56 55 54 54 52 52 52 53 54 54 55 55 57 57 58 58 58 58
25 26 27 28 29 29 30 31 32 33 34 35 36 38 40 42 43 44 45 46 47 47 47 47 47 47 47 47 46 46 45 46 46 48 49 50 51 53 54 54 54 55 56
24 24 25 26 26 26 26 27 28 28 30 31 32 33 34 35 36 36 37 36 37 37 37 36 37 37 38 38 38 38 38 39 40 42 44 45 47 49 50 51 53 54 56
22 22 22 22 23 23 23 23 24 24 25 26 26 27 28 29 29 29 28 27 28 27 27 28 28 29 29 29 30 31 33 34 35 38 40 41 44 46 47 49 51 53 54
19 19 19 19 20 20 20 20 20 20 21 22 22 23 24 25 25 23 22 20 20 19 19 19 20 22 23 24 25 27 29 30 32 34 36 38 40 42 44 47 48 50 51
17 17 17 17 17 17 17 17 17 18 18 18 19 20 21 21 21 19 17 16 14 13 13 14 15 16 18 19 20 21 23 26 28 30 33 35 38 40 43 44 46 47 49
15 16 16 16 16 15 15 16 15 16 16 17 17 18 18 18 18 17 15 14 12 11 10 10 10 11 13 14 16 17 20 22 25 27 30 33 35 37 39 42 45 47 50
15 15 15 15 15 14 14 15 15 15 15 15 16 16 16 16 16 15 14 12 11 11 10 9 9 10 11 12 15 17 19 21 23 25 28 31 34 37 40 42 45 48 51
14 14 14 14 14 14 14 14 14 14 13 14 14 14 15 15 14 14 14 13 11 11 10 9 9 10 11 12 13 15 18 20 23 26 29 32 35 38 41 44 47 49 51
13 13 13 13 13 13 13 13 13 13 12 13 13 13 14 14 13 13 13 12 12 11 10 10 11 12 13 14 16 18 21 23 26 29 32 35 37 40 42 45 48 50 51
13 13 13 12 12 13 13 13 13 13 12 13 13 13 13 13 13 13 13 13 12 12 12 12 13 14 15 17 19 22 24 27 29 32 35 37 40 42 44 46 48 50 51
13 13 13 13 13 13 12 12 12 12 12 12 12 13 13 13 13 13 13 13 14 14 14 15 16 17 19 21 23 25 27 30 32 35 37 40 42 44 46 48 49 50 50
13 13 13 13 13 12 12 11 11 11 11 12 12 13 13 14 14 14 14 15 15 15 16 17 19 20 22 24 26 28 31 33 35 37 40 42 43 45 47 48 49 49 48
13 13 13 13 13 12 12 12 11 11 12 12 13 14 14 14 15 15 16 16 17 18 19 20 22 23 25 27 29 31 33 36 38 40 41 43 44 46 47 48 48 47 45
14 13 13 13 13 12 12 13 12 12 13 13 14 15 15 16 16 17 18 19 20 21 22 23 25 26 28 30 32 34 36 38 40 42 43 44 45 46 47 47 46 44 42

GEFSMW_500_meanwind_066.txt.gz
Wind_Speed
41 40 40 39 38 38 38 38 37 37 38 38 38 38 37 38 38 39 40 40 41 42 43 43 44 44 45 45 46 47 47 47 48 48 48 48 47 46 45 45 44 43 41
41 40 39 38 38 38 38 39 39 39 39 39 40 40 40 40 40 41 42 43 44 45 45 46 46 47 48 48 49 49 50 50 51 52 52 52 50 49 49 48 48 46 45
41 39 39 38 38 38 39 39 39 39 39 40 41 41 41 41 42 43 44 44 46 46 47 48 49 49 50 51 51 52 53 53 54 55 56 55 54 53 52 51 50 49 48
41 40 39 38 38 38 38 38 38 39 39 40 41 42 42 43 43 44 45 45 46 47 49 50 51 52 52 53 54 55 55 56 57 57 58 58 57 57 55 53 52 52 51
40 39 39 38 38 38 38 38 38 38 39 40 41 42 43 43 44 45 45 46 47 48 49 51 52 53 54 55 56 57 58 59 59 59 59 59 59 59 58 56 55 54 54
39 38 38 38 37 37 37 38 38 38 39 40 41 41 42 43 44 45 46 46 47 48 49 51 52 53 55 57 58 59 60 61 61 62 61 61 61 60 58 58 57 56 55
39 39 38 38 38 37 38 38 38 38 39 39 40 41 41 42 43 44 45 45 46 47 49 50 52 54 55 57 58 60 61 62 62 62 62 61 61 60 59 59 57 56 55
37 38 37 37 37 38 38 37 37 38 38 38 39 40 40 41 41 42 43 44 45 47 48 49 51 53 54 56 57 59 60 60 60 60 60 60 60 60 59 59 58 56 55
36 36 36 37 37 37 37 37 37 37 37 38 38 39 39 39 40 40 41 43 44 45 47 48 50 51 52 54 55 56 57 57 57 57 57 58 58 58 58 57 57 57 57
35 35 35 36 36 36 36 36 36 36 36 37 37 37 37 37 38 39 40 41 42 43 45 46 48 49 51 53 53 54 54 54 54 54 54 55 56 56 55 55 55 56 57
34 35 35 35 35 35 35 35 35 35 35 35 35 35 35 36 36 37 37 38 40 42 43 43 45 47 49 50 50 50 50 49 49 48 49 49 50 51 52 53 53 55 55
33 34 34 34 34 34 34 34 34 34 34 34 33 33 33 33 34 35 35 36 37 38 39 41 42 44 45 45 45 44 44 44 43 42 42 43 44 45 46 48 49 49 50
31 32 32 32 32 32 32 32 32 32 31 31 31 31 31 32 32 32 32 33 34 35 36 38 39 40 41 41 39 37 37 37 37 36 36 36 38 39 40 42 43 44 46
28 29 29 29 29 29 29 29 29 29 29 29 29 29 29 29 29 29 30 31 32 32 34 35 36 37 37 36 35 33 32 31 30 30 31 32 33 34 35 36 38 39 41
26 26 26 26 26 26 27 27 27 27 27 27 27 27 27 27 27 27 28 29 30 30 31 32 33 33 32 31 30 29 28 26 26 25 26 27 29 29 31 32 33 36 38
24 24 24 24 25 25 25 25 25 25 25 25 25 25 25 25 25 26 27 28 28 29 29 30 30 30 29 28 27 26 25 23 23 23 23 24 24 26 27 30 32 34 37
23 23 23 23 23 23 23 23 24 24 23 23 22 23 23 24 25 25 26 26 27 28 28 28 27 26 26 25 24 23 21 20 20 19 20 21 23 24 25 28 30 33 36
21 21 21 21 21 21 21 21 21 22 22 22 22 22 23 23 24 24 25 25 26 26 27 26 25 24 23 22 22 20 19 19 19 20 20 21 22 24 26 29 31 33 36
20 20 20 20 20 20 20 20 20 21 21 21 22 22 22 23 23 24 24 24 25 25 25 24 24 23 22 21 21 20 20 20 20 20 21 23 24 26 28 30 32 35 37
18 18 18 18 19 19 19 19 19 20 20 21 21 21 22 22 23 23 23 23 23 23 23 23 22 22 22 21 21 21 21 22 22 23 25 27 28 30 31 33 35 38 40
17 17 18 18 18 18 18 18 18 19 20 20 21 21 21 21 21 22 22 22 22 22 22 22 22 22 22 22 22 23 23 24 25 26 28 29 31 33 35 37 39 40 42
17 17 17 17 17 17 17 18 18 18 19 19 20 20 20 20 20 21 21 21 21 21 21 21 21 22 22 23 24 25 26 27 28 29 31 32 34 35 37 39 41 43 45
18 17 17 17 17 18 18 18 18 18 19 19 19 19 19 19 20 20 20 21 21 21 21 22 22 23 24 25 26 27 28 29 30 31 33 35 36 38 40 42 43 45 46
18 18 17 17 18 18 18 19 18 18 18 18 18 19 19 20 20 20 21 21 21 22 22 23 24 25 25 26 28 29 30 31 32 34 36 37 39 40 42 44 45 47 48
18 18 18 18 18 18 18 18 18 18 18 19 19 19 20 20 21 21 22 22 23 23 24 25 25 26 27 28 29 31 32 33 34 36 38 40 41 42 44 45 47 48 48
19 19 19 18 18 18 18 18 18 18 19 19 20 20 21 21 22 22 23 24 24 25 25 26 27 28 29 30 31 32 33 35 36 38 40 41 42 43 45 47 48 48 47

GEFSMW_500_meanwind_072.txt.gz
Wind_Speed
44 44 44 43 42 41 40 39 39 38 38 37 37 37 36 36 36 36 36 37 37 38 38 38 39 39 40 41 41 42 43 44 45 46 46 47 47 47 48 49 49 49 49
44 44 43 42 42 41 41 40 40 39 39 38 38 38 38 38 38 38 38 39 39 40 40 40 41 41 42 43 44 45 46 46 47 48 49 49 49 49 50 51 51 52 52
43 43 42 42 42 41 41 41 40 40 40 39 39 39 39 39 39 39 40 40 41 41 42 42 43 43 44 45 45 46 47 48 49 50 51 52 52 52 52 53 53 53 53
43 42 42 42 41 42 42 41 41 41 40 40 40 40 40 40 40 40 41 41 42 42 43 44 44 45 45 46 47 48 48 49 50 51 52 53 54 54 54 54 54 54 54
43 43 43 43 42 42 42 42 42 41 41 41 41 41 41 41 41 41 41 42 43 43 44 45 45 46 47 47 47 48 49 50 51 52 52 53 54 55 56 56 55 55 55
42 43 43 44 43 43 43 43 42 42 42 42 41 42 42 42 42 42 42 43 43 44 44 45 46 46 47 47 47 48 49 50 51 52 53 53 54 54 55 56 56 56 56
41 42 42 43 43 44 43 43 42 42 42 42 42 42 42 42 43 43 43 43 43 44 44 45 45 45 46 46 47 48 48 49 50 50 51 52 53 54 55 56 56 56 55
41 41 41 41 42 43 42 42 42 42 42 42 42 42 42 42 43 43 43 43 43 44 44 44 44 44 45 45 46 46 46 47 48 48 49 51 53 54 54 55 55 55 53
40 40 41 41 41 41 42 42 43 42 42 42 42 42 42 42 42 43 43 43 43 43 43 43 43 43 43 44 44 44 44 45 46 47 49 51 51 52 52 52 52 52 50
39 40 41 41 41 41 42 42 42 42 42 42 42 42 42 42 42 42 42 43 43 42 43 42 42 42 42 42 42 42 43 44 45 46 47 48 47 47 48 48 47 47 47
39 40 41 41 41 41 41 41 42 42 42 41 41 41 41 42 42 42 42 42 41 41 41 41 40 40 40 40 40 40 41 43 43 44 44 43 43 43 44 43 42 42 42
37 39 39 40 40 40 40 40 40 40 41 41 40 40 40 40 40 40 40 40 39 39 39 38 38 38 38 38 38 39 40 41 41 41 40 40 40 41 41 39 38 37 37
35 37 37 38 38 39 39 39 39 39 39 39 39 38 38 38 38 38 38 37 37 36 36 35 35 35 36 36 37 37 38 39 38 37 38 38 37 37 36 35 35 35 34
32 34 35 36 36 36 37 37 37 37 37 37 36 36 36 36 36 35 35 34 34 33 33 33 33 34 34 35 35 36 36 36 35 35 35 34 34 33 32 32 32 32 31
30 31 32 32 33 33 33 33 34 34 34 34 34 34 34 33 33 32 32 32 31 31 32 32 32 32 33 33 34 34 34 33 33 33 32 32 32 31 30 29 29 29 29
26 27 28 28 29 29 30 30 30 30 30 31 31 31 31 31 30 30 30 30 30 30 30 31 31 31 32 32 33 33 32 32 32 31 31 31 30 30 29 29 29 29 29
24 24 25 26 27 27 27 27 27 28 28 28 28 28 28 29 28 28 28 28 28 29 29 29 30 30 30 31 31 31 30 30 30 30 30 30 29 29 29 29 29 30 30
22 23 23 24 24 25 25 26 26 26 26 26 26 27 27 27 27 26 27 27 27 28 29 29 29 29 29 29 29 29 29 30 29 30 30 30 30 30 30 30 31 31 32
21 22 22 23 23 24 24 24 24 24 25 25 25 25 25 25 25 25 26 26 27 27 27 28 28 28 28 28 28 29 29 29 29 29 30 30 31 31 31 32 33 33 34
21 22 22 23 23 23 23 23 23 23 23 24 23 23 23 24 24 24 25 25 26 26 26 27 27 27 27 27 28 28 29 29 29 30 31 31 32 32 33 34 35 36 37
21 22 22 22 22 22 22 22 22 22 22 22 22 22 22 22 23 23 24 24 25 25 25 26 26 26 27 27 28 29 29 30 31 31 32 33 34 34 35 36 37 38 39
21 21 21 21 21 21 21 21 21 21 21 21 21 21 21 22 22 22 23 23 24 24 25 25 26 26 27 27 28 29 30 31 32 33 33 34 35 36 37 37 39 39 40
21 21 21 21 21 21 21 21 21 21 20 20 20 20 20 21 21 22 22 23 23 24 25 25 26 26 27 28 29 30 31 32 33 33 34 35 36 37 38 39 40 41 42
21 21 21 21 21 21 21 21 21 21 20 20 21 21 21 21 21 22 22 23 24 24 25 26 27 27 28 29 30 31 32 32 33 34 35 36 37 38 40 41 42 43 44
21 21 21 21 21 21 21 21 21 21 21 21 21 21 21 21 22 22 23 24 25 25 26 27 28 28 29 30 31 32 32 33 34 35 36 37 39 40 41 42 43 44 45
22 22 21 21 21 21 21 21 21 21 21 21 21 21 21 22 22 23 24 25 26 26 27 28 29 30 30 31 32 32 33 34 35 37 38 39 40 42 43 43 44 45 47

GEFSMW_500_meanwind_078.txt.gz
Wind_Speed
48 48 47 47 46 46 45 44 43 42 41 41 41 40 39 39 39 38 37 37 37 37 36 36 36 37 38 38 39 40 41 42 43 44 43 43 43 44 44 45 45 46 47
46 47 47 47 46 46 46 46 45 44 43 43 43 42 42 41 40 39 39 39 39 38 38 38 39 39 40 41 41 42 43 43 45 45 45 44 43 43 45 45 46 47 47
46 46 46 46 46 46 46 46 46 46 45 45 44 44 43 42 42 41 41 40 40 40 40 40 41 42 42 43 43 44 45 45 45 46 46 46 45 44 44 45 46 46 47
45 45 45 46 45 46 46 46 47 46 46 46 45 45 44 43 43 42 42 42 42 42 42 42 43 43 44 44 45 46 46 46 46 46 46 47 47 46 45 44 45 45 46
45 45 46 46 45 45 46 46 47 47 47 47 47 46 45 45 44 43 43 43 43 43 43 43 44 44 45 45 46 46 47 46 46 46 46 46 47 47 47 45 45 45 46
43 45 45 46 46 46 46 46 47 47 47 47 47 47 46 46 45 44 44 44 44 44 44 45 45 45 46 46 47 47 46 46 46 46 46 46 46 45 46 45 45 45 46
43 43 44 45 46 46 47 47 48 48 48 48 48 47 47 46 46 45 45 45 45 45 46 46 47 47 47 47 47 46 46 46 46 46 46 45 45 45 45 45 45 45 46
43 43 44 45 46 47 47 47 47 48 48 48 48 48 48 47 47 47 47 47 47 47 47 47 47 47 46 46 46 46 46 45 45 45 45 44 44 44 44 45 45 45 45
42 43 44 45 46 47 47 47 47 48 48 48 48 48 48 47 47 48 47 47 47 47 47 47 47 46 47 46 45 45 45 44 44 43 43 43 43 43 44 44 44 44 43
41 42 44 45 46 47 47 47 47 47 47 47 47 47 47 47 47 47 47 47 47 46 46 47 46 46 45 44 44 44 43 43 42 42 42 42 42 42 43 43 43 42 41
40 42 42 44 45 46 46 47 47 47 46 46 46 46 46 46 46 46 46 46 46 46 46 45 45 44 44 43 43 42 42 41 41 41 41 41 41 41 41 41 40 40 40
39 40 41 42 43 44 45 45 46 46 46 46 45 45 45 45 45 45 45 45 45 45 44 43 42 42 42 42 41 40 39 39 39 39 39 39 40 40 40 39 39 39 39
35 37 39 40 41 41 42 44 44 45 45 45 45 45 45 44 44 44 44 44 43 43 42 42 41 41 41 40 39 38 38 38 38 38 38 38 38 38 38 38 37 37 37
33 35 36 37 38 39 40 41 41 42 43 43 44 44 44 44 43 42 42 42 41 41 40 40 40 39 38 38 37 37 36 36 36 36 36 37 37 37 37 36 36 36 36
32 33 34 35 36 37 38 38 39 39 40 40 41 41 41 41 40 40 39 39 39 39 38 38 37 36 36 36 35 35 35 35 35 35 35 36 35 35 35 35 35 35 35
31 32 33 33 34 35 36 37 37 37 38 38 38 38 38 38 38 37 37 37 37 36 36 36 35 34 34 34 34 34 33 33 33 34 34 34 34 34 34 34 34 34 35
30 30 31 32 32 33 33 34 35 35 35 35 35 35 35 35 35 35 35 35 34 34 34 33 33 33 32 32 32 32 32 32 32 33 33 33 33 33 33 34 34 35 35
29 29 29 29 30 30 30 31 32 32 32 32 32 32 32 32 32 32 32 32 32 31 31 31 31 30 30 30 30 30 30 31 32 32 32 32 33 33 33 34 35 35 36
27 27 28 27 27 28 28 28 29 29 30 30 30 30 30 30 30 30 30 30 30 29 29 29 28 28 28 29 29 29 29 30 31 32 32 32 33 33 34 34 35 36 36
26 25 26 26 26 26 26 26 27 27 28 28 28 28 28 28 28 28 28 28 28 27 27 27 27 27 27 28 28 29 29 30 31 31 32 32 33 33 34 35 36 36 37
24 24 25 25 25 25 25 25 26 26 26 26 26 27 27 27 27 27 26 26 26 26 26 26 26 26 27 27 28 29 29 30 31 31 32 33 34 34 35 36 37 37 38
24 24 24 24 25 25 25 25 25 25 25 25 25 26 26 26 25 25 25 25 25 25 25 25 25 26 26 27 28 29 29 30 31 32 33 34 35 35 36 37 38 39 40
24 24 24 24 25 25 25 25 25 25 25 25 25 25 25 25 24 24 24 24 24 24 25 25 25 26 26 27 28 29 30 31 32 33 34 34 35 36 37 38 39 40 41
24 24 24 25 25 25 24 24 24 24 24 24 24 24 24 24 24 24 24 24 24 25 25 25 26 26 27 28 29 30 31 32 33 33 34 35 36 37 38 39 40 41 42
24 24 25 25 24 24 24 23 24 24 24 24 24 24 24 24 24 25 25 25 25 25 25 26 26 27 28 29 30 31 31 32 33 34 35 36 37 38 39 40 41 42 43
24 24 24 24 24 24 24 24 24 24 24 24 24 24 24 25 25 25 25 26 26 26 26 27 27 28 29 30 30 31 32 33 34 35 36 37 38 39 40 41 42 43 44

GEFSMW_500_meanwind_084.txt.gz
Wind_Speed
52 51 50 49 48 48 47 46 45 46 45 45 44 44 44 43 43 42 42 41 40 39 39 38 38 38 38 38 38 38 38 39 40 41 41 41 42 42 43 43 44 43 43
51 51 51 51 50 50 49 48 47 47 47 47 47 46 46 46 46 45 44 43 43 42 42 41 41 40 40 40 40 41 41 41 42 43 44 43 42 42 43 44 44 44 43
51 51 51 52 52 51 50 50 49 49 49 49 49 49 49 48 48 47 46 45 45 44 44 43 43 42 42 42 42 43 43 43 44 45 46 45 44 43 42 42 43 43 44
50 50 50 52 52 52 51 50 50 50 50 50 51 51 50 50 49 48 48 47 47 46 46 45 45 44 44 44 44 44 45 45 45 45 45 46 46 46 44 42 42 43 43
49 50 50 52 52 52 52 52 51 51 51 51 51 51 51 51 51 50 50 49 48 48 48 47 46 46 45 45 45 46 46 46 46 46 46 46 46 46 45 44 43 42 43
48 49 50 51 51 51 51 51 52 52 52 51 51 51 51 51 51 51 50 50 50 50 49 48 48 47 47 47 47 47 47 47 47 47 47 46 46 45 45 44 43 43 42
45 46 47 49 50 51 51 51 51 52 52 52 51 51 51 51 51 51 51 51 51 51 50 49 49 49 49 48 48 48 48 48 47 47 46 46 45 45 44 43 43 42 41
43 44 45 46 48 49 50 50 51 51 51 52 52 51 51 51 51 51 51 51 51 51 50 50 50 49 49 48 48 49 48 48 47 46 46 45 45 44 43 42 41 41 41
40 42 43 44 46 47 48 49 50 50 50 51 51 51 51 51 51 51 51 51 51 51 50 50 49 49 49 49 49 48 48 47 46 45 45 44 43 43 42 41 41 40 40
38 40 41 42 43 45 46 47 48 49 49 49 49 50 50 50 50 51 51 51 50 50 49 49 49 48 48 48 48 48 47 46 45 44 43 42 42 41 40 40 40 39 39
37 38 40 41 42 43 45 46 47 47 48 48 48 49 49 49 50 50 49 49 49 49 48 48 48 47 47 46 46 45 45 45 43 42 42 41 40 39 39 39 38 38 38
35 36 37 38 39 41 43 44 45 46 46 47 47 48 48 49 49 48 48 48 48 47 46 46 46 45 44 44 44 44 43 42 42 41 40 39 39 38 38 37 37 37 36
34 34 35 37 38 39 40 42 43 44 45 46 46 46 47 47 47 47 47 47 47 47 46 46 45 45 44 44 43 42 41 41 40 39 39 38 37 37 37 36 36 36 35
34 34 35 35 37 38 39 40 41 42 43 43 44 44 44 45 45 45 46 46 46 46 45 44 44 44 44 43 42 41 39 39 38 38 37 36 36 36 35 35 34 34 34
33 33 33 34 35 36 37 38 39 40 41 41 42 42 42 42 43 43 44 44 44 44 44 43 42 41 40 40 39 38 38 37 37 36 36 35 35 34 33 33 33 33 33
32 33 33 33 34 34 35 36 37 37 38 39 39 40 40 40 41 41 41 41 40 41 41 41 40 39 39 38 38 37 36 36 35 34 34 33 33 32 32 32 32 32 32
31 32 33 33 33 33 34 34 34 35 36 36 37 37 38 38 38 38 38 38 38 38 38 37 37 37 36 36 36 35 34 34 33 33 32 32 31 31 31 31 31 31 32
30 32 33 33 33 33 33 33 33 33 34 34 35 35 35 36 36 37 37 36 36 35 35 35 35 34 34 34 33 33 33 32 32 31 31 30 30 30 30 30 31 31 31
30 30 31 32 32 32 32 32 32 32 32 32 32 32 33 33 33 33 34 34 34 33 33 33 32 32 32 32 32 31 31 31 31 30 30 29 30 30 30 30 30 31 32
28 28 29 30 30 30 30 30 30 30 30 30 31 31 31 31 31 31 31 31 31 31 31 31 31 30 30 30 30 30 30 30 29 29 29 29 29 29 30 30 31 32 33
26 27 27 28 28 28 29 29 29 29 29 29 29 29 30 30 30 30 30 29 29 29 29 29 30 30 30 29 29 29 29 29 28 28 28 29 29 29 30 31 32 33 34
26 26 26 26 27 27 27 28 28 28 28 28 28 28 28 29 29 29 29 29 29 29 29 29 29 29 29 28 28 28 28 28 28 28 28 29 29 30 31 32 33 33 35
25 26 26 26 26 27 27 27 27 28 28 28 28 28 28 28 28 28 28 28 28 28 28 28 28 27 27 27 27 27 27 27 28 28 29 29 30 31 32 32 33 34 35
25 26 26 26 27 27 27 27 27 27 28 28 28 28 28 28 27 27 27 27 27 27 27 27 27 27 27 27 27 28 28 28 29 29 30 30 31 31 32 33 34 35 36
24 25 26 26 27 27 27 27 28 28 28 27 27 27 27 26 26 27 27 27 27 27 27 27 27 27 27 28 28 28 29 29 30 30 30 31 31 32 33 34 35 36 37
24 24 24 25 26 26 26 26 27 27 27 27 27 27 27 27 27 27 28 28 27 27 27 27 28 28 29 29 29 30 30 30 30 31 32 32 33 33 34 35 36 37 38

GEFSMW_500_meanwind_090.txt.gz
Wind_Speed
51 51 51 50 48 48 47 47 46 45 44 44 43 42 41 41 41 42 42 41 41 41 40 40 40 39 39 39 40 39 39 39 39 39 40 40 41 41 42 43 44 45 44
50 51 51 51 51 50 49 48 47 47 46 46 45 44 43 43 43 43 44 44 44 44 44 43 42 42 42 43 43 42 41 41 42 42 43 42 42 42 43 44 44 45 45
49 49 50 50 50 50 50 50 49 48 48 47 47 47 46 46 46 46 45 45 46 46 47 47 46 45 45 45 45 45 44 44 44 45 46 46 45 46 45 44 44 44 44
49 49 49 50 50 51 50 50 51 50 50 50 50 49 49 48 48 48 48 48 48 48 48 49 49 48 48 48 48 48 47 47 47 47 47 48 49 48 47 46 45 45 45
49 50 51 50 50 50 50 50 51 51 51 51 51 51 51 51 50 49 50 50 49 50 50 51 51 51 51 51 51 51 50 49 49 48 48 49 48 48 48 47 46 46 45
48 49 50 50 50 50 50 51 51 51 51 51 51 51 52 51 51 52 52 52 51 51 51 51 52 53 53 53 53 52 51 50 49 50 49 49 48 48 47 47 46 46 45
46 47 49 49 49 50 50 50 51 51 51 51 51 51 51 52 52 53 53 52 52 52 52 52 52 52 52 52 51 51 50 50 50 50 49 49 48 48 47 47 46 46 45
42 44 45 46 47 49 50 50 51 51 52 52 51 51 51 51 51 52 52 52 52 52 53 53 52 52 52 51 51 50 50 50 50 50 49 48 47 47 47 47 46 45 44
40 42 42 43 44 46 47 49 50 50 51 52 53 53 53 53 53 53 54 53 53 53 53 52 52 51 51 51 51 51 50 50 50 49 49 48 48 47 47 46 45 44 43
37 38 39 40 41 42 44 46 47 48 50 51 52 52 53 54 54 54 53 53 53 53 52 52 51 51 50 51 50 50 49 49 49 48 48 47 47 46 45 44 43 42 42
35 36 37 38 39 40 41 43 44 46 47 47 48 49 50 51 51 51 52 52 51 51 50 50 50 50 50 50 49 49 48 48 47 47 46 45 45 44 44 43 42 41 40
33 34 36 37 38 38 39 41 42 43 44 45 45 46 47 47 48 48 49 49 49 50 50 49 48 48 48 48 47 47 47 47 47 46 45 44 44 44 43 42 40 40 39
33 34 35 36 36 37 38 38 39 40 42 43 44 45 45 46 46 47 47 47 48 48 48 48 47 47 47 46 46 46 46 46 46 45 45 44 44 43 42 40 39 38 37
32 33 34 34 35 35 36 37 37 37 38 40 41 42 43 43 44 44 45 46 46 47 47 46 46 46 46 46 46 46 46 45 45 44 44 43 42 40 39 38 37 36 36
31 32 32 34 34 34 35 35 36 36 36 37 38 39 40 41 41 42 43 44 44 45 44 44 44 44 44 44 44 44 44 43 43 42 42 41 39 38 38 36 35 35 34
31 32 32 33 34 34 34 35 35 36 36 36 37 37 38 39 40 40 40 40 41 41 41 41 42 42 42 42 42 42 42 41 41 40 39 38 37 36 35 35 34 33 33
32 32 32 33 33 33 34 34 35 35 35 35 36 36 36 37 37 38 38 38 38 39 39 39 40 40 40 40 40 39 39 38 37 37 36 35 35 34 33 33 32 32 32
31 31 32 32 32 32 33 34 34 34 34 35 35 36 36 36 36 37 37 37 38 38 38 38 38 38 38 38 37 37 36 35 34 34 34 33 32 32 31 31 31 31 30
29 30 31 31 31 32 32 33 33 33 34 34 35 35 35 35 36 36 36 36 36 36 36 35 35 35 35 35 34 34 34 33 33 32 32 32 31 31 31 30 30 30 30
29 29 30 30 31 31 31 31 32 32 33 34 34 34 34 34 35 35 35 35 34 34 34 33 33 33 33 32 32 32 32 31 31 31 30 30 30 29 29 29 29 29 29
29 29 29 30 30 30 30 30 31 31 32 32 32 33 33 33 33 33 33 33 33 32 32 32 32 31 31 31 31 30 30 29 29 29 29 29 29 29 29 28 28 29 29
29 29 29 29 30 30 30 30 30 31 31 31 31 31 31 31 32 32 32 31 31 31 31 31 30 30 29 29 29 29 29 28 28 28 28 28 28 28 28 28 28 29 29
28 29 29 29 29 30 30 30 30 30 30 30 30 30 31 31 31 31 31 31 31 31 30 30 29 29 29 29 28 28 28 28 28 28 28 28 28 28 28 28 29 29 30
27 28 29 29 30 30 30 30 31 31 30 31 31 31 31 30 30 30 30 30 30 30 30 29 29 28 28 28 28 28 28 28 28 28 28 28 28 28 29 29 30 30 31
27 27 28 28 29 30 30 30 31 31 31 31 31 31 31 30 30 31 30 30 30 29 28 28 27 27 28 28 28 27 27 27 27 27 28 28 29 29 29 30 30 31 31
27 27 27 27 27 28 28 29 30 30 30 31 31 31 31 31 31 30 30 29 29 28 28 28 28 28 28 28 28 28 28 28 28 28 29 29 30 30 31 31 32 32 33

GEFSMW_500_meanwind_096.txt.gz
Wind_Speed
45 46 46 46 46 45 45 45 44 43 43 42 41 41 40 40 40 39 38 37 37 37 37 36 36 37 37 37 37 38 38 38 39 39 39 39 39 40 41 42 43 43 44
45 46 46 46 46 46 47 46 46 45 44 44 43 44 44 43 42 41 41 41 40 40 40 39 39 39 39 39 40 40 40 40 41 41 41 40 41 42 43 44 45 45 45
45 45 46 46 46 46 46 47 47 47 47 46 46 45 45 45 44 43 43 42 42 42 42 42 43 43 43 42 42 42 42 42 43 43 44 44 44 44 44 45 45 46 45
45 45 45 46 47 47 47 48 48 48 49 49 48 48 48 47 46 46 45 45 45 45 45 45 46 46 45 45 44 44 44 44 44 45 46 46 46 47 46 46 46 45 45
44 44 46 47 47 48 48 49 49 49 50 50 50 49 49 49 49 48 48 48 47 47 46 46 47 47 47 46 46 46 46 46 46 47 47 47 48 48 48 47 46 45 45
43 44 45 46 46 47 48 49 49 49 50 50 50 51 50 50 49 50 50 49 49 49 48 48 48 48 48 47 47 47 47 47 47 47 48 48 48 48 48 47 46 45 45
42 43 44 44 45 46 47 48 49 49 50 50 51 51 51 51 50 50 50 49 49 49 49 49 49 49 49 48 48 48 48 48 48 48 48 48 47 47 46 46 46 45 45
40 41 42 43 44 45 45 46 47 49 49 50 50 51 51 52 52 52 51 51 51 51 50 49 49 49 49 49 49 49 49 48 48 48 47 47 46 46 45 45 45 45 45
39 40 41 42 43 44 44 45 46 48 49 50 50 50 51 51 51 52 52 51 50 50 50 49 50 50 50 49 49 49 49 49 49 48 47 46 46 45 45 45 45 45 44
38 39 41 41 41 43 44 44 45 46 47 48 49 49 50 50 51 52 52 51 51 50 49 50 51 51 51 51 50 51 51 50 49 48 48 47 46 45 45 45 45 44 43
35 38 40 41 40 41 42 43 44 44 45 46 48 48 49 49 50 51 51 51 51 50 49 50 50 50 51 51 50 50 49 49 48 48 47 47 46 46 45 45 44 44 43
34 35 37 39 40 40 41 42 43 43 43 44 45 46 47 47 48 49 49 49 49 49 49 49 48 48 48 48 47 47 47 47 47 46 46 46 45 45 45 44 44 44 43
34 35 36 38 39 40 41 41 42 43 43 43 43 44 45 45 45 46 46 46 46 47 47 47 47 47 47 47 47 46 46 46 46 46 45 45 45 45 44 44 43 43 42
34 35 36 37 38 39 39 40 41 42 43 43 43 44 44 44 44 44 44 45 45 45 46 46 46 46 46 45 45 45 45 45 45 44 44 43 43 43 43 42 41 41 40
34 35 36 36 37 38 39 39 40 41 42 42 42 42 42 42 42 43 43 43 44 44 44 44 45 45 44 44 43 43 44 44 44 43 43 42 42 42 41 40 40 39 38
34 35 37 37 37 38 38 39 39 40 41 42 42 41 41 41 41 41 41 42 42 43 43 43 43 43 42 42 42 42 42 42 42 41 41 41 41 40 39 38 38 36 35
33 34 36 37 37 38 38 38 38 39 40 41 41 41 41 41 41 41 41 41 42 42 42 41 41 41 40 41 41 41 41 41 40 40 39 39 38 37 37 36 35 34 33
31 32 34 35 35 36 37 37 37 38 39 39 40 40 40 40 41 41 40 40 40 40 41 41 40 40 40 40 39 39 39 39 39 38 37 36 35 35 34 34 33 32 32
29 30 31 32 33 34 35 36 36 37 37 38 38 38 39 39 39 39 39 39 39 39 39 39 39 38 38 38 38 38 37 37 36 36 34 34 34 33 33 32 32 31 30
28 29 30 31 31 32 33 34 34 35 35 36 37 37 38 37 37 37 37 37 37 37 37 37 37 37 37 37 36 36 35 35 34 33 33 33 33 32 31 30 30 29 29
27 27 28 30 30 31 32 33 33 33 34 34 35 36 37 36 36 36 36 36 36 36 36 36 36 36 36 35 35 35 34 33 33 32 32 31 31 30 29 29 29 28 28
26 27 27 28 29 29 30 31 32 32 32 33 33 34 35 35 35 36 35 35 35 35 35 35 35 35 34 34 33 33 32 32 32 31 31 30 29 29 29 28 28 28 28
26 26 27 27 27 28 28 29 30 31 31 31 32 32 33 33 34 34 34 34 34 34 34 34 34 34 33 33 33 32 32 31 31 30 30 29 29 28 28 28 27 28 28
26 26 26 25 25 26 27 28 28 29 30 30 31 31 32 32 33 33 33 33 33 33 33 33 33 33 33 32 32 32 32 31 30 29 29 29 29 28 28 28 28 28 28
26 25 25 25 25 25 26 27 27 28 29 29 29 30 31 32 32 32 32 32 32 33 33 33 33 33 32 32 32 32 31 30 30 30 30 29 29 29 28 28 28 29 29
26 25 25 25 25 26 26 26 26 27 28 29 29 29 30 31 31 32 32 32 32 32 33 33 33 32 32 31 31 31 31 31 30 30 30 30 30 29 29 29 29 29 30

GEFSMW_500_meanwind_102.txt.gz
Wind_Speed
45 44 42 41 40 40 40 40 39 39 38 40 41 41 40 39 38 36 37 37 36 36 35 35 35 35 35 36 36 36 36 37 38 38 38 38 38 39 39 39 39 40 41
44 45 43 43 41 41 41 41 42 42 40 40 40 41 41 41 40 39 39 39 38 38 38 38 38 38 38 38 38 38 39 40 40 40 40 40 39 40 41 42 42 43 43
44 46 45 44 43 42 42 42 43 43 43 42 40 40 41 42 42 41 41 41 40 39 39 39 40 40 40 40 41 41 41 41 41 41 42 42 42 42 42 42 43 43 44
43 43 44 45 45 44 43 43 43 43 43 43 43 43 42 42 42 43 42 42 42 41 41 41 42 42 43 43 43 42 42 42 42 42 43 44 44 44 43 43 44 44 44
42 42 43 44 45 45 44 44 44 45 45 44 44 44 45 44 44 44 44 44 44 43 43 44 44 44 44 44 43 43 44 44 45 45 45 45 44 45 45 44 44 44 45
40 42 43 43 44 45 45 45 44 45 46 46 46 46 46 45 45 45 45 46 46 46 45 45 46 46 46 46 47 47 47 47 47 47 46 46 46 46 46 46 45 45 45
40 41 42 44 45 45 46 46 46 46 47 48 48 48 48 47 47 47 47 48 48 47 47 47 48 49 48 47 47 47 47 47 47 47 47 47 47 47 47 47 47 46 46
39 41 43 45 46 47 47 46 46 46 47 48 49 49 49 49 49 49 48 48 49 49 49 49 49 50 49 48 48 48 48 47 48 48 48 48 47 47 47 47 47 47 47
37 39 42 44 45 46 47 46 47 46 46 47 48 49 49 49 50 50 50 50 51 51 50 50 50 51 50 49 49 49 49 49 48 47 47 47 47 47 48 48 48 48 47
36 38 40 42 44 45 46 46 47 47 47 48 48 49 49 49 49 50 50 51 50 50 50 50 51 50 50 50 50 50 49 49 48 47 47 47 48 47 48 48 47 47 47
35 38 40 41 42 44 46 46 47 47 48 48 47 48 49 48 48 49 49 50 49 50 50 50 50 50 50 50 50 50 50 50 50 50 49 48 48 48 47 47 47 47 46
34 36 38 39 40 42 44 46 48 48 47 48 47 48 48 48 48 48 48 48 49 49 50 50 51 50 50 50 50 50 50 50 50 49 48 47 47 47 46 46 46 45 44
33 35 37 39 40 42 44 46 46 47 47 47 47 47 47 47 48 48 49 49 49 49 50 50 50 50 50 49 49 48 48 48 48 47 47 46 45 45 44 44 44 43 43
33 34 36 38 40 41 43 44 45 46 46 47 47 48 48 48 48 48 48 48 48 48 48 48 48 48 48 47 47 46 45 45 46 46 45 45 44 43 42 42 42 42 41
34 35 36 36 37 39 41 43 44 45 46 47 48 48 48 48 48 48 48 48 48 47 47 47 46 46 45 44 44 44 44 44 44 44 44 43 42 41 41 41 41 40 40
33 34 36 36 37 38 40 42 43 45 45 45 46 47 47 47 47 47 47 47 47 47 46 45 45 45 44 44 43 43 43 42 42 42 41 40 40 40 40 40 40 40 39
31 33 34 35 37 37 38 39 41 43 44 44 44 44 44 45 45 46 46 46 46 46 45 45 45 44 44 43 43 42 42 42 41 40 40 40 40 40 40 39 39 38 37
31 32 33 33 34 36 37 38 38 39 40 41 42 43 43 43 43 42 42 43 44 43 43 43 43 43 42 42 42 41 41 41 40 40 40 40 39 39 38 37 37 35 34
30 30 31 33 33 34 35 36 37 38 38 39 40 41 41 42 42 41 41 40 40 41 41 41 41 41 41 41 41 40 39 39 39 39 39 38 38 37 36 35 34 33 32
29 29 30 31 32 34 34 35 36 37 37 38 38 39 40 40 40 41 40 39 39 39 39 39 39 39 39 39 38 38 38 38 38 37 37 37 36 35 34 33 32 31 31
29 29 30 30 31 32 33 34 34 35 36 37 37 38 39 39 39 39 39 39 38 38 37 37 37 36 36 37 37 37 37 37 37 36 36 35 34 33 32 32 31 31 30
28 28 29 29 29 29 30 31 32 33 33 34 36 36 37 37 38 38 38 38 37 36 36 36 36 35 35 36 36 36 36 36 36 35 35 34 33 33 32 32 31 30 29
28 28 27 27 27 28 28 29 29 30 31 33 34 35 35 35 36 36 36 36 36 36 36 35 35 34 34 34 34 34 35 34 34 34 34 33 33 32 32 31 30 30 29
26 27 26 26 26 26 27 27 28 28 29 30 31 32 33 33 33 34 34 34 35 35 34 34 34 34 34 33 33 33 33 33 33 33 33 33 33 32 31 31 30 30 29
25 25 25 25 24 25 26 26 26 27 27 28 28 28 29 29 30 31 32 31 31 32 32 32 33 33 33 33 33 33 33 33 32 32 32 32 32 31 31 30 30 30 29
24 24 23 23 24 24 24 24 25 25 26 27 27 27 28 28 28 29 29 30 30 31 31 31 32 32 32 32 32 32 32 32 32 31 31 31 30 30 30 30 30 30 30

GEFSMW_500_meanwind_108.txt.gz
Wind_Speed
40 39 40 41 40 40 38 38 39 39 40 41 40 41 42 43 43 43 43 41 40 40 41 40 39 39 38 37 37 37 37 37 37 37 36 36 37 36 37 37 37 38 39
39 39 38 40 40 41 39 37 37 39 40 40 40 41 43 44 44 43 42 42 42 42 42 41 41 40 39 38 38 39 39 39 38 38 38 38 38 38 38 39 38 39 39
37 38 38 39 38 39 39 38 39 39 41 40 41 42 43 44 44 44 44 44 43 43 43 43 42 42 41 41 40 40 39 39 39 39 39 39 39 38 38 39 40 41 42
36 37 39 39 39 39 39 39 39 40 41 40 39 41 44 45 45 46 47 46 45 44 45 44 44 45 44 42 41 40 40 40 40 40 41 41 42 41 41 42 43 43 42
34 36 37 38 38 37 37 37 38 39 40 40 40 41 43 44 45 46 47 47 46 46 46 46 45 45 44 44 44 43 42 42 42 42 43 43 44 44 44 43 43 42 42
32 34 36 37 37 38 37 38 37 38 39 40 41 41 42 44 45 46 46 47 47 47 47 47 46 45 45 45 44 44 44 43 43 44 44 44 44 45 44 43 43 43 43
30 32 35 36 37 38 39 40 40 40 40 40 40 41 42 44 46 46 46 47 47 47 46 46 46 46 46 45 46 45 45 45 45 45 45 45 46 45 44 44 44 44 44
27 30 32 35 36 38 39 39 40 41 40 39 40 43 44 45 45 46 47 48 48 47 46 45 45 45 46 45 46 45 46 46 46 45 45 45 45 44 45 45 45 45 44
25 28 30 31 33 36 38 39 41 41 41 41 41 42 43 45 45 46 48 49 49 48 47 47 47 46 46 47 47 47 47 46 45 45 45 45 45 45 46 46 46 45 44
24 26 28 31 33 35 37 40 41 41 42 43 42 42 43 44 45 46 47 47 48 47 47 47 47 46 47 47 48 48 47 47 46 46 46 45 46 46 45 45 45 45 45
24 25 27 30 33 36 38 40 41 42 42 43 43 42 42 45 47 47 47 48 48 48 48 48 48 47 47 47 47 47 47 47 47 47 47 45 44 44 45 45 45 44 44
25 27 29 31 34 36 38 40 41 42 42 43 44 44 44 44 46 47 47 48 48 47 47 48 48 47 46 46 46 47 47 47 46 45 45 44 44 44 44 44 44 44 43
27 29 32 33 35 37 38 40 41 42 42 42 43 45 44 44 44 45 46 47 48 48 48 48 47 47 47 46 46 46 45 45 45 44 44 44 43 43 43 43 42 42 41
28 30 31 33 35 36 37 38 40 41 42 43 43 44 44 44 44 45 46 46 46 47 48 47 47 47 46 46 46 44 43 42 42 42 42 42 41 41 41 41 41 40 39
28 29 30 31 33 34 35 37 39 40 42 43 43 44 45 45 44 45 45 44 44 44 44 44 44 44 45 44 44 44 43 42 42 41 41 40 40 40 40 40 40 39 39
26 28 29 30 31 33 34 36 38 39 40 41 42 43 44 45 44 45 45 44 44 44 44 43 44 44 44 43 43 42 43 43 42 41 40 39 39 39 38 38 38 38 37
25 27 28 29 30 32 34 35 37 38 39 40 41 42 43 43 43 43 43 42 43 43 44 43 44 44 44 43 42 42 42 42 41 40 38 37 37 37 38 37 37 37 37
25 27 29 29 29 30 31 32 33 35 37 39 40 41 42 42 42 42 42 41 41 41 41 41 42 42 42 42 41 41 40 39 39 38 38 37 37 37 37 37 37 36 36
25 26 27 28 29 29 29 29 30 31 34 36 38 39 39 40 40 40 40 40 40 40 40 40 39 39 39 39 39 38 38 38 38 37 37 37 36 36 36 35 35 34 34
26 27 27 27 28 28 28 28 28 29 30 32 34 36 37 38 39 39 38 38 38 38 38 38 38 37 37 37 37 37 38 37 37 37 37 36 36 35 35 35 34 33 33
27 26 26 26 26 26 27 27 27 28 29 30 31 33 34 35 36 37 37 37 37 36 36 36 36 36 36 36 36 37 37 37 37 36 36 35 35 35 35 34 33 33 32
25 25 24 24 25 25 26 26 26 27 28 28 29 29 30 31 32 34 34 35 35 35 34 34 35 35 35 36 36 36 35 35 35 35 35 34 34 34 33 33 32 32 31
24 24 23 23 24 25 25 25 25 26 26 27 27 27 28 29 31 32 33 34 34 34 33 33 34 34 35 35 35 34 34 34 34 34 34 33 33 32 32 32 31 31 30
23 24 24 24 24 24 25 24 25 25 25 25 26 26 27 28 29 30 31 32 32 32 32 32 33 33 33 33 33 33 33 33 33 33 32 32 31 31 31 31 31 31 30
24 24 25 24 24 24 24 25 25 25 24 24 24 25 25 27 28 28 28 29 30 31 32 32 32 33 33 33 32 32 32 32 31 31 31 31 31 31 31 31 31 31 30
25 25 25 24 24 25 25 25 25 25 24 24 24 25 25 25 26 26 27 27 28 29 30 31 31 32 32 33 33 32 32 31 31 31 31 31 31 31 31 30 30 30 30

GEFSMW_500_meanwind_114.txt.gz
Wind_Speed
34 35 38 39 39 39 40 41 44 44 44 43 42 41 42 44 43 42 42 42 42 42 41 40 39 39 39 39 39 39 39 39 39 39 39 39 39 38 38 38 37 37 37
32 32 34 34 36 37 37 38 40 40 40 39 37 37 40 42 42 42 43 42 42 42 42 42 42 41 41 42 41 41 41 41 41 41 41 41 40 40 39 38 38 38 38
26 29 30 31 33 34 35 35 39 40 38 38 37 35 37 39 42 42 42 42 43 44 45 45 45 45 45 45 44 44 43 43 42 42 42 42 42 41 40 40 40 39 38
22 24 25 27 31 33 33 32 33 36 37 38 38 36 37 37 38 41 42 43 45 46 47 47 47 47 47 47 46 47 46 46 45 44 44 44 42 41 41 41 41 40 40
19 21 23 25 27 29 30 30 31 33 34 35 36 37 37 37 37 38 40 43 46 48 49 49 49 49 49 49 48 48 48 48 47 47 46 46 44 44 43 42 41 42 41
16 19 20 21 23 25 27 28 30 31 32 33 35 35 35 38 38 37 39 42 45 46 48 49 50 49 48 49 49 49 49 48 48 47 47 46 45 44 43 43 42 41 41
14 16 17 19 21 22 23 25 27 29 31 32 35 36 35 37 39 39 40 42 42 43 46 47 48 48 48 48 49 48 48 48 47 46 45 45 45 44 44 44 42 41 42
12 14 15 17 18 20 21 23 25 27 30 31 33 34 35 35 37 39 40 42 43 43 44 46 47 48 48 48 48 49 49 49 48 46 46 45 45 45 44 44 44 43 43
12 13 15 16 18 19 21 23 25 27 29 31 33 34 33 33 35 36 38 40 41 42 43 45 46 46 47 48 49 49 49 49 48 49 48 46 46 46 45 45 45 44 43
13 15 16 18 19 20 22 23 25 28 30 32 33 34 35 36 36 36 39 40 42 42 43 46 47 47 47 47 48 48 48 48 48 48 48 48 46 45 46 47 46 44 44
13 14 16 18 20 22 23 25 26 28 29 31 33 34 35 37 38 38 39 40 41 42 44 45 46 47 48 48 48 47 46 47 48 49 48 47 46 45 45 44 44 43 42
13 15 17 19 22 25 26 27 29 30 31 32 32 33 35 36 38 40 42 42 42 42 43 44 45 46 47 48 47 47 47 46 46 46 47 46 46 45 44 44 43 43 43
14 16 18 21 22 25 27 28 29 30 30 31 33 34 35 37 39 40 42 42 43 42 42 42 44 46 46 46 46 46 46 46 46 47 47 47 47 45 45 45 44 43 42
14 17 18 20 22 23 26 28 29 30 30 30 30 31 34 37 38 39 41 41 43 43 44 44 44 44 44 44 45 46 45 45 45 46 46 47 46 45 44 44 42 40 39
15 17 17 18 20 22 24 25 26 28 29 29 30 31 33 36 38 39 39 41 43 43 44 44 44 43 43 43 43 43 44 44 44 44 44 45 46 45 44 42 40 39 39
16 17 18 19 21 23 23 24 25 27 28 29 30 32 34 35 37 37 38 39 41 42 43 43 43 42 42 42 41 42 42 43 43 42 42 42 42 42 41 39 37 36 37
16 17 18 20 21 22 23 24 25 27 28 30 31 33 34 35 36 37 37 38 39 40 41 41 40 41 40 39 39 39 40 41 40 39 39 39 39 39 38 37 36 36 35
17 18 19 20 20 21 23 24 24 26 27 29 31 32 33 35 35 36 37 38 39 39 38 37 37 37 36 36 36 37 37 38 37 37 37 37 37 36 36 36 36 35 35
17 18 19 20 20 21 22 24 25 26 27 29 30 31 32 34 34 35 36 36 37 38 38 36 35 35 34 34 35 35 35 36 37 36 36 36 36 35 35 34 35 35 35
18 18 19 20 21 21 22 24 26 26 28 29 30 31 31 32 33 34 35 35 36 37 37 37 36 35 35 34 34 33 33 34 34 34 35 34 34 34 34 34 34 34 34
19 20 21 22 22 23 24 25 26 27 28 29 30 31 31 32 32 33 33 34 34 35 34 35 35 35 34 35 34 33 33 34 33 33 33 33 33 34 34 34 34 34 34
21 22 23 24 24 25 26 27 27 28 29 29 29 30 31 31 32 33 32 33 32 31 31 31 32 33 33 33 34 34 34 34 33 34 33 33 33 33 34 34 34 34 34
22 24 25 25 26 27 27 28 28 28 29 29 29 30 30 31 32 32 32 32 31 30 31 31 31 31 31 31 32 33 33 33 33 33 33 33 33 34 34 34 34 34 33
25 26 27 27 27 28 29 29 29 29 30 30 30 30 30 31 31 31 31 30 30 30 30 30 31 31 31 30 31 32 32 31 31 32 33 33 33 33 33 33 32 32 32
27 28 29 29 29 30 31 31 30 30 31 31 31 30 30 30 30 30 30 30 30 30 30 29 29 29 29 30 31 30 31 30 31 31 32 32 32 32 32 31 31 31 31
28 29 30 30 31 31 32 31 31 31 31 31 31 30 30 30 29 29 29 29 29 29 28 28 28 29 29 29 30 30 31 31 30 31 31 31 31 31 31 31 31 31 31

GEFSMW_500_meanwind_120.txt.gz
Wind_Speed
33 34 35 37 41 41 42 44 43 43 43 42 42 43 44 45 45 43 43 42 43 44 44 42 42 42 42 42 42 41 40 40 41 42 42 41 41 41 42 42 42 42 42
29 30 31 32 35 38 39 39 40 42 43 44 45 44 43 43 44 44 42 41 42 43 43 43 42 43 43 44 44 43 42 43 43 43 43 43 43 43 44 44 44 44 44
23 26 28 28 32 35 37 37 38 40 42 42 43 42 41 41 43 43 43 40 41 41 41 42 42 43 43 44 45 44 44 45 45 45 46 45 44 44 45 45 45 45 46
19 20 22 24 26 29 32 33 34 36 37 40 40 39 38 40 39 39 40 40 40 40 41 41 41 42 43 45 46 46 46 46 47 47 46 47 47 47 47 47 47 47 46
14 16 18 18 20 23 27 29 31 31 31 34 36 36 35 37 38 38 38 39 39 39 40 40 42 43 44 45 46 47 47 48 49 49 48 48 49 49 49 49 48 46 46
10 12 14 16 17 19 23 26 29 29 29 30 32 33 34 35 37 38 37 37 38 38 39 40 41 42 43 45 46 47 48 48 49 50 51 50 49 49 49 49 48 47 46
9 10 12 14 14 16 20 22 24 26 28 29 29 32 33 34 36 37 37 37 38 38 38 39 40 41 41 43 44 46 47 48 50 51 52 52 49 48 48 48 47 47 46
9 8 9 11 11 12 15 18 19 21 24 26 27 30 33 34 34 35 36 37 39 38 38 38 39 39 41 43 45 47 48 49 51 52 53 53 51 49 48 48 47 47 46
7 7 7 8 9 9 11 13 16 18 21 22 24 27 30 32 33 34 36 37 38 38 38 39 39 39 40 43 46 47 49 50 50 51 52 52 51 50 50 49 47 47 47
6 6 6 7 8 9 9 10 12 16 18 20 23 25 27 30 31 33 35 36 36 38 40 40 41 42 43 44 46 47 49 49 49 50 51 50 50 50 50 49 49 49 50
4 4 4 6 7 8 9 10 12 14 17 20 22 24 25 27 30 33 35 37 39 40 40 41 42 43 46 48 49 49 49 48 48 48 49 48 47 49 49 50 50 49 48
3 2 4 6 8 9 10 12 13 15 17 19 21 23 25 27 29 32 34 37 39 41 43 44 44 45 46 47 48 48 48 48 48 48 48 48 48 49 49 49 49 48 47
2 2 4 6 8 9 10 11 13 16 17 19 21 23 25 27 29 30 33 35 37 39 41 43 45 45 45 45 46 47 49 49 48 47 46 46 46 47 46 45 45 44 44
1 2 5 6 7 8 10 11 13 15 17 20 22 24 26 28 29 30 31 33 35 37 39 41 43 44 44 45 46 46 46 47 46 47 47 46 45 44 43 43 42 42 42
2 4 6 6 7 8 9 11 13 15 17 19 22 24 26 27 28 29 30 32 34 36 37 39 41 43 43 44 45 45 45 46 47 47 47 45 43 42 41 40 41 41 40
4 5 6 6 7 8 9 11 12 15 16 19 21 23 25 26 26 28 29 32 34 36 37 38 39 41 43 44 45 46 46 45 44 44 43 43 42 41 40 40 39 39 38
4 5 5 6 7 8 9 11 14 16 18 20 21 21 23 23 25 26 29 31 34 36 37 37 38 39 39 40 41 42 43 42 40 41 40 40 40 39 39 39 38 38 39
5 6 7 8 9 10 11 13 15 17 19 21 21 22 23 24 25 28 29 31 33 35 35 36 37 38 38 38 38 38 38 38 38 37 37 37 37 38 37 38 38 36 37
7 8 9 10 11 12 14 15 17 19 21 21 22 23 24 26 27 29 29 30 31 32 34 35 36 37 37 38 37 36 37 36 36 35 35 35 34 35 36 36 36 36 37
8 10 10 11 13 14 16 18 20 21 22 22 23 25 26 27 28 29 29 30 31 32 32 34 34 34 35 35 35 36 36 35 34 34 35 35 35 35 36 36 35 36 36
10 11 12 14 15 17 18 20 21 22 23 24 25 27 28 28 29 28 29 30 31 31 31 32 33 33 33 33 34 34 34 33 33 33 34 35 36 36 36 36 36 36 36
12 13 15 16 18 19 21 22 23 24 25 26 27 28 29 29 29 29 29 30 31 31 31 31 32 32 32 31 32 32 33 32 32 32 33 34 35 36 37 37 37 36 35
14 16 17 18 20 22 23 25 25 25 26 27 29 29 30 30 30 30 31 31 32 32 31 31 31 31 31 31 31 30 30 31 32 32 33 34 34 34 35 34 34 34 33
16 17 19 20 22 23 25 26 27 27 27 28 29 30 30 30 31 32 32 32 33 32 31 31 31 31 31 30 30 29 29 30 30 31 32 33 33 33 33 32 32 32 31
18 20 21 22 23 25 27 28 28 28 29 30 30 30 30 31 31 31 32 33 33 32 32 32 31 31 31 29 29 28 28 29 28 29 30 31 31 31 31 31 30 30 31
21 22 23 25 26 28 29 30 30 30 31 31 31 31 32 32 32 33 33 34 34 34 34 33 32 32 30 29 28 28 27 28 28 28 28 28 28 28 29 29 29 29 30

GEFSMW_500_meanwind_126.txt.gz
Wind_Speed
33 35 37 38 41 43 45 46 45 46 47 47 46 46 45 46 45 44 45 46 44 44 44 43 42 42 42 41 41 42 42 42 43 43 43 43 43 43 44 44 44 43 43
29 29 31 33 36 39 42 43 43 43 44 45 46 45 45 44 44 43 43 44 43 43 43 43 43 43 42 42 43 43 43 43 44 45 45 45 45 44 45 45 45 45 45
26 28 28 30 32 35 38 40 40 40 42 42 42 44 44 44 44 43 43 44 44 43 43 42 43 43 43 43 44 44 44 45 46 46 47 46 46 46 46 45 46 47 47
22 24 26 27 29 31 33 34 36 38 39 39 40 41 42 44 44 42 41 41 42 42 42 43 43 43 43 43 44 44 45 45 46 46 47 47 48 48 47 46 46 46 47
17 19 21 21 24 27 28 30 32 34 36 36 36 38 39 40 41 41 41 40 41 42 42 42 42 42 43 44 44 44 46 46 46 47 47 47 47 48 48 48 47 47 48
13 14 15 17 20 21 23 26 27 29 30 31 32 34 35 36 38 39 41 41 41 41 41 40 41 43 44 45 45 45 46 46 46 47 47 48 48 48 49 49 49 49 49
10 9 11 13 15 17 19 21 22 23 25 26 27 29 31 33 34 36 38 39 39 38 39 40 40 41 43 44 45 45 45 46 47 46 47 48 48 49 51 51 50 50 50
8 8 8 10 12 13 14 15 18 20 21 23 25 26 27 29 32 34 37 38 39 39 39 41 40 39 41 43 44 44 45 45 47 48 49 50 49 50 51 50 50 50 50
7 7 7 8 9 12 14 15 15 17 19 22 23 25 26 27 28 30 32 34 36 37 37 39 41 40 40 41 42 43 44 46 48 48 48 48 48 49 49 50 51 51 51
6 7 7 7 8 9 11 13 14 14 16 19 22 24 25 25 26 28 30 32 34 35 37 38 40 41 41 41 42 44 45 47 48 47 47 47 48 48 49 50 51 51 51
6 5 5 6 7 8 9 10 11 13 15 18 20 22 24 24 25 28 30 31 34 37 38 39 40 41 41 41 43 44 45 45 45 46 47 48 49 50 50 50 49 48 48
4 5 4 4 4 4 6 8 8 10 13 16 18 19 22 24 25 27 29 30 33 36 37 38 39 40 41 42 42 42 44 46 46 47 48 50 50 50 51 49 48 48 48
4 4 3 2 2 3 5 7 8 9 11 13 16 18 20 22 24 27 28 30 31 33 35 36 38 39 40 41 43 44 45 46 47 48 49 50 50 51 48 47 48 47 47
4 4 4 3 4 5 6 8 9 9 11 12 14 17 20 22 24 25 27 28 30 32 33 34 36 38 40 41 43 45 46 47 47 47 48 48 48 46 45 45 46 45 44
4 4 4 5 6 7 7 7 8 9 11 12 14 15 18 20 22 24 26 27 29 30 31 32 34 36 39 40 42 44 45 44 44 45 46 47 46 46 45 45 45 43 42
4 4 4 5 6 6 7 7 7 7 8 9 12 14 16 18 20 23 26 28 29 29 30 31 33 36 38 39 40 42 42 42 41 41 42 44 45 45 45 45 44 43 43
5 5 6 6 6 6 7 7 7 8 10 12 13 15 17 19 22 24 26 27 28 29 31 33 35 36 37 37 38 39 40 40 40 41 41 40 41 42 43 41 40 40 40
5 6 6 7 6 6 7 8 9 10 11 12 15 16 18 20 22 24 24 25 27 28 30 32 34 35 35 35 36 37 38 38 38 39 39 39 39 40 40 40 39 38 37
7 7 7 7 7 8 9 10 11 12 13 14 16 18 19 21 22 23 23 24 25 27 29 30 32 33 33 34 35 35 35 35 36 36 37 37 38 39 39 39 39 37 36
8 8 8 8 8 9 10 11 12 13 15 16 17 19 21 22 23 23 24 25 26 28 29 30 30 31 32 32 33 34 34 34 34 35 35 36 36 37 37 37 36 36 35
9 9 9 10 11 12 13 13 15 16 17 19 20 21 22 24 24 24 25 26 27 29 30 30 31 32 33 33 33 34 34 34 33 33 34 34 33 34 34 34 34 34 33
12 12 12 13 14 15 16 17 18 19 21 22 23 24 25 26 26 27 27 27 28 30 30 30 31 32 34 34 33 34 35 35 34 33 33 33 31 31 31 31 30 30 30
14 14 14 16 16 17 18 19 20 22 23 24 25 27 27 27 28 29 29 30 31 32 31 31 32 32 34 34 34 33 34 35 35 34 33 32 31 30 30 29 29 29 29
15 16 16 17 18 19 20 21 22 24 25 27 29 29 29 29 30 31 31 32 33 33 33 33 33 34 34 34 34 34 34 34 35 34 33 31 31 30 29 28 28 29 29
18 19 19 20 21 22 23 24 25 26 27 29 30 31 32 31 32 33 33 33 34 34 35 35 35 34 33 33 34 35 34 34 34 33 32 31 31 31 30 29 29 28 27
21 21 21 22 23 24 25 26 27 29 30 31 32 33 34 34 34 35 35 35 36 36 36 36 35 35 34 34 35 35 35 34 33 33 32 31 30 30 30 29 28 28 27

GEFSMW_500_meanwind_132.txt.gz
Wind_Speed
35 37 37 38 40 42 44 47 49 49 49 49 50 50 50 50 49 48 47 46 45 44 45 45 43 43 43 42 42 42 42 42 42 42 42 41 41 41 41 42 42 42 43
32 33 33 34 35 37 40 42 44 46 47 47 48 48 49 49 49 49 49 48 47 46 44 44 44 44 43 43 43 43 43 43 43 43 43 43 43 42 42 43 44 45 46
28 29 30 31 32 34 34 35 37 41 43 45 46 47 48 49 48 47 47 47 47 47 46 44 43 43 44 44 44 44 44 44 44 44 45 45 44 44 44 46 46 46 46
24 26 28 30 31 32 32 32 34 35 38 40 42 44 45 45 46 46 46 47 47 47 46 46 45 43 43 43 43 44 45 45 45 45 45 46 46 46 46 46 46 46 46
21 23 25 26 28 29 29 30 32 32 33 35 38 40 42 43 43 43 43 44 44 45 46 46 45 45 45 44 44 44 45 45 46 46 46 46 46 47 47 46 45 46 46
19 20 22 22 24 26 26 27 28 29 30 31 32 34 37 39 40 40 40 41 41 41 43 43 44 45 45 45 45 45 46 47 47 47 46 45 46 47 47 46 46 46 46
15 17 16 17 19 22 23 25 26 28 29 29 29 31 33 34 36 36 38 39 40 39 40 41 42 43 45 46 46 46 47 47 47 45 44 44 45 46 47 47 47 47 47
11 13 13 14 16 17 19 20 22 24 26 27 27 27 27 29 30 31 32 33 35 36 36 38 39 41 43 45 45 45 44 44 44 44 45 45 44 46 48 47 47 47 48
10 10 11 12 13 14 15 16 18 19 20 21 22 23 25 26 27 27 29 30 31 33 35 37 39 39 40 39 39 40 41 42 43 45 45 45 44 45 46 46 47 48 49
8 8 10 11 11 11 11 12 13 13 15 17 18 19 21 23 25 26 27 28 29 31 33 35 37 38 38 39 39 39 40 41 43 45 45 44 44 45 46 47 48 50 51
6 6 7 8 9 9 9 10 11 11 12 14 15 16 18 19 21 22 25 27 29 30 32 33 33 36 37 37 38 39 40 41 42 43 44 45 45 46 47 49 50 50 51
4 5 5 6 8 8 9 9 9 9 11 12 13 16 17 18 19 21 22 25 27 28 29 30 31 34 35 36 37 37 39 39 39 41 42 44 45 45 46 48 49 50 50
4 5 6 6 6 7 8 7 8 10 11 13 15 15 16 16 18 20 21 22 24 26 28 29 30 32 34 36 36 37 37 37 37 39 40 42 44 45 46 47 48 48 48
4 5 4 5 6 6 6 7 7 9 10 10 12 13 15 16 18 19 20 22 23 25 26 28 29 31 33 35 36 37 37 36 37 39 40 42 42 43 44 45 46 46 46
5 5 5 5 6 7 7 8 8 8 8 10 11 14 15 17 18 19 20 22 23 25 26 27 29 31 33 35 36 37 37 37 37 39 40 41 41 42 44 44 43 43 43
5 5 6 6 6 6 6 6 7 9 9 10 11 13 15 17 19 20 21 21 23 24 26 28 30 32 34 36 35 36 38 39 39 38 39 40 40 41 41 42 41 41 41
5 6 7 7 7 7 7 8 8 8 9 10 11 13 14 16 18 19 21 23 24 25 27 29 31 33 35 34 35 35 37 39 40 40 39 40 40 40 40 40 39 39 39
6 7 7 7 7 8 8 9 9 9 10 11 12 13 14 15 16 18 20 21 23 25 27 29 31 33 33 32 32 34 36 37 38 40 40 40 40 40 40 40 39 39 38
6 7 7 8 8 9 9 9 9 10 11 12 14 15 16 17 17 19 20 21 22 24 25 27 29 29 29 30 31 33 34 34 35 37 38 39 38 38 38 37 37 36 35
7 7 8 9 9 10 11 11 11 12 13 14 15 16 17 17 19 20 22 22 24 25 25 26 27 27 28 29 31 32 33 34 34 35 36 37 37 38 37 35 35 35 35
9 10 10 11 11 12 13 13 14 14 15 16 16 17 19 19 20 21 22 23 25 26 27 27 27 28 28 29 31 32 33 33 34 34 35 36 37 37 36 35 34 33 33
13 13 13 14 14 14 15 15 16 16 17 18 18 19 20 21 22 23 24 26 27 28 29 29 29 30 31 31 31 32 33 34 34 35 35 36 37 37 36 35 34 33 32
16 16 16 16 16 16 17 17 18 18 19 20 20 22 23 24 25 26 27 28 29 30 31 31 31 32 33 32 32 33 34 35 36 36 36 36 36 36 35 33 33 32 32
18 18 18 18 18 18 19 19 20 21 21 22 23 24 25 26 27 28 29 30 31 32 32 33 33 34 34 34 34 35 35 36 37 37 36 36 36 35 34 32 32 32 31
20 20 20 20 21 21 21 22 22 23 24 24 25 26 28 29 30 30 31 32 33 33 34 34 34 34 34 35 35 36 36 36 36 36 35 35 35 34 33 31 31 31 31
22 22 23 23 23 23 23 24 24 25 26 27 28 29 30 31 32 32 32 34 35 35 35 35 35 35 35 35 35 36 36 35 35 35 34 34 34 34 33 32 31 31 31

GEFSMW_500_meanwind_138.txt.gz
Wind_Speed
38 38 39 41 42 42 42 42 43 44 45 46 47 47 47 47 48 48 48 48 48 48 47 47 45 45 45 44 43 43 42 41 40 40 40 39 40 40 40 40 40 41 41
36 37 38 39 40 40 41 40 40 41 42 43 44 45 45 46 47 48 49 48 47 47 46 45 45 44 44 44 44 43 42 40 40 40 40 40 41 41 41 41 41 42 43
33 34 35 35 36 37 38 38 38 39 40 40 42 44 44 44 44 46 46 46 46 46 45 45 44 44 44 44 44 44 42 41 40 40 41 41 41 41 41 42 42 42 42
29 31 31 31 31 32 33 35 36 36 38 39 41 41 42 42 42 42 43 45 45 44 44 43 43 44 43 44 44 43 42 42 42 42 43 43 43 43 42 42 43 42 42
26 27 27 28 28 30 31 33 33 34 35 37 39 40 41 41 40 41 42 44 44 44 43 43 43 44 44 44 43 43 42 42 43 43 44 44 43 43 43 42 41 41 42
23 24 25 26 27 29 30 32 32 33 34 35 36 38 39 39 39 40 40 41 42 43 43 42 41 42 43 43 43 43 43 43 43 43 43 43 43 43 43 42 42 41 41
23 24 24 25 26 27 27 28 29 30 31 32 34 36 37 37 36 37 38 38 40 41 41 40 39 40 41 41 42 43 43 42 42 42 42 42 42 42 43 43 43 43 43
20 21 23 23 23 24 25 25 25 26 28 29 30 32 33 34 34 34 34 34 34 36 37 37 37 38 38 39 39 39 40 40 41 41 41 42 42 43 43 45 45 45 45
15 17 18 19 20 22 23 24 23 23 24 26 27 28 29 30 30 29 28 29 31 32 33 33 34 34 35 35 36 37 37 38 39 40 40 42 43 43 44 45 46 46 47
12 13 14 16 17 19 20 21 20 19 20 20 22 24 25 24 24 23 24 25 27 27 29 30 31 32 32 32 33 34 35 36 38 39 40 41 42 43 44 45 46 47 47
10 10 10 10 12 13 14 15 16 16 16 16 18 19 20 20 20 20 21 22 23 23 24 25 26 27 28 30 31 32 33 36 38 39 40 42 42 44 45 45 46 46 47
8 7 7 7 8 10 10 11 12 12 12 13 15 17 18 19 20 20 20 20 20 21 22 23 24 26 27 28 29 31 32 34 36 37 39 40 41 43 43 44 45 46 46
7 7 7 7 7 8 9 9 10 9 8 9 12 15 16 16 17 17 17 18 19 20 21 21 22 24 26 27 29 30 32 33 34 35 36 38 40 41 42 43 43 44 45
7 7 6 5 6 6 8 8 8 8 8 8 9 12 14 14 15 15 16 17 19 20 21 22 23 24 26 27 28 29 31 32 34 34 36 37 38 40 41 41 42 43 44
6 6 6 6 6 7 8 9 9 8 9 9 9 10 12 13 15 17 18 19 19 20 21 22 23 25 26 27 29 30 31 32 34 35 37 38 38 39 39 40 41 43 43
6 6 6 6 6 7 8 9 10 10 11 11 10 10 12 13 14 15 17 18 20 21 22 23 24 25 27 28 29 31 32 34 35 36 37 38 39 39 41 41 42 42 42
5 6 6 7 7 7 8 9 10 11 11 12 12 13 14 15 15 16 17 18 19 21 23 24 25 26 27 28 30 32 33 34 35 36 37 38 39 40 40 40 41 41 41
9 8 8 9 9 10 9 9 10 11 13 14 14 14 15 15 15 16 17 18 20 22 23 24 25 26 28 29 30 31 32 33 34 36 37 38 38 39 39 39 39 39 39
10 10 10 10 11 11 12 12 12 13 14 14 14 15 15 15 16 17 18 20 21 22 23 24 26 27 28 29 31 32 33 34 35 37 38 37 36 36 37 37 37 38 38
13 13 13 12 12 12 13 13 13 14 14 14 14 14 15 16 17 19 20 21 22 24 24 25 27 28 29 30 31 33 34 35 35 36 36 35 34 34 35 36 37 38 38
14 15 15 15 14 14 14 14 14 14 14 15 15 16 16 17 18 20 21 22 24 25 25 26 27 29 30 31 32 33 34 35 36 36 36 35 35 35 35 36 37 37 38
15 15 15 15 15 15 15 15 15 16 16 16 17 18 19 20 21 22 22 23 24 25 26 27 28 30 31 32 33 34 35 36 36 36 36 37 37 37 36 37 37 37 37
16 16 17 17 17 17 17 17 18 18 18 19 19 20 21 22 23 24 25 26 26 27 28 29 30 31 32 33 34 35 36 36 36 36 37 37 37 37 37 37 36 36 37
19 19 19 19 19 19 19 20 20 20 20 21 21 22 23 24 25 26 27 28 29 30 30 31 32 32 33 34 35 36 36 37 37 37 37 37 37 37 36 36 36 36 35
21 21 21 21 21 22 22 23 23 23 23 24 24 24 25 27 27 28 28 29 30 31 32 32 33 34 34 35 36 37 37 37 37 37 37 36 36 36 36 36 35 36 35
23 23 23 24 24 24 24 25 25 26 26 26 27 28 28 29 29 29 30 31 31 32 32 33 34 35 36 37 37 37 37 37 38 37 36 36 35 35 35 35 35 35 35

GEFSMW_500_meanwind_144.txt.gz
Wind_Speed
36 36 37 38 38 39 40 41 42 42 43 42 42 43 43 44 44 44 45 45 46 45 44 45 45 44 44 44 44 43 42 41 41 41 41 40 40 40 40 39 39 39 40
34 35 36 37 37 37 39 40 41 42 42 42 42 42 43 43 43 44 44 44 45 44 45 46 45 45 44 44 43 43 42 42 41 41 42 41 41 42 41 41 41 41 41
32 32 33 34 34 34 35 37 37 38 39 40 40 41 42 42 42 44 44 44 45 44 44 45 45 45 45 44 44 43 43 42 42 42 42 42 41 41 41 41 42 43 42
29 30 30 30 31 32 33 35 36 36 37 38 39 40 41 41 41 43 43 44 44 43 43 43 43 43 43 43 43 43 43 43 43 43 43 44 43 43 42 42 42 41 41
27 27 28 29 30 31 32 33 34 35 36 37 37 38 39 39 40 41 42 42 42 42 41 41 41 41 41 42 43 44 44 45 45 44 44 44 43 44 43 42 42 43 42
25 26 27 28 29 30 31 32 33 34 34 35 35 36 36 37 37 38 40 41 41 40 39 39 39 39 39 40 41 42 43 44 44 45 44 44 43 43 42 42 42 42 41
24 25 26 27 28 29 30 31 32 32 33 33 34 35 35 35 35 36 37 38 38 38 38 38 39 38 38 38 39 40 41 42 42 43 43 43 43 42 42 42 41 41 40
19 21 23 24 26 28 29 30 30 30 31 31 32 33 34 34 34 34 35 35 36 36 37 37 37 38 38 38 38 40 39 39 39 39 41 42 42 42 42 41 41 42 42
17 19 21 22 24 26 27 28 28 28 28 28 29 30 31 31 32 33 33 33 33 33 34 34 36 36 37 38 38 38 38 37 36 37 38 39 40 39 40 41 42 42 42
16 18 19 20 21 23 24 25 25 25 26 26 27 28 28 29 30 31 31 31 32 31 31 31 32 33 34 35 36 36 36 36 36 36 37 37 38 39 39 40 41 41 42
15 15 16 16 17 18 20 21 22 22 23 24 25 26 27 28 28 28 28 28 29 28 28 28 29 30 31 32 32 32 34 35 35 34 35 36 37 38 38 39 39 41 43
12 13 13 13 13 14 15 17 19 20 20 21 21 21 23 23 24 25 25 25 25 26 27 27 27 28 28 29 30 31 31 31 32 34 34 35 36 37 38 39 40 42 44
11 12 12 13 13 13 13 13 15 16 17 18 18 18 19 20 21 22 22 23 23 24 25 26 26 26 27 28 28 29 30 31 33 33 34 34 35 37 38 39 41 42 43
10 10 10 11 11 11 12 12 12 14 15 15 16 16 17 17 18 19 21 21 22 22 23 24 25 26 26 27 28 28 30 31 32 33 33 34 35 37 39 41 42 42 43
10 9 8 9 10 11 11 12 12 12 13 14 14 14 15 16 16 17 19 19 20 21 21 23 24 25 25 26 28 29 30 31 31 31 32 33 35 37 39 40 42 42 43
9 9 9 9 9 10 10 11 11 11 12 13 14 15 15 15 15 16 17 18 18 18 19 21 21 22 23 24 25 26 28 28 29 30 31 32 34 35 37 39 40 41 42
10 9 9 10 9 10 10 11 11 11 12 13 14 15 15 15 15 15 16 17 17 17 18 18 17 18 19 21 22 23 25 26 27 28 29 31 32 34 35 36 38 39 40
11 10 10 10 10 11 11 12 13 13 13 14 15 16 17 16 16 16 16 17 17 18 19 19 19 19 20 22 23 24 26 27 28 29 30 32 33 35 36 37 37 37 38
11 11 11 11 11 11 12 13 14 15 16 15 16 16 17 17 16 16 17 17 18 18 19 19 20 21 22 23 25 26 27 29 29 30 31 33 34 35 36 37 37 37 38
13 13 13 14 13 14 14 14 14 15 16 16 16 17 17 18 18 18 18 19 19 19 19 20 21 22 23 25 26 27 28 29 30 31 32 34 35 36 37 37 37 37 37
15 15 15 15 15 15 15 16 16 17 17 18 18 18 18 19 19 20 20 20 20 20 21 22 23 23 24 25 26 27 28 29 30 31 33 34 35 36 37 37 37 38 37
18 17 17 17 17 17 17 18 18 19 19 20 20 20 20 21 21 21 22 22 21 22 23 23 24 25 26 27 27 28 29 30 31 33 34 35 36 37 37 36 37 38 37
21 20 19 19 19 19 19 20 21 21 21 21 21 20 20 21 22 22 23 23 23 24 24 24 25 26 27 28 28 29 30 31 33 34 35 36 37 37 37 37 37 38 37
23 23 22 22 21 21 21 21 22 22 22 22 23 23 22 23 24 25 25 25 25 25 26 27 28 28 29 29 30 31 32 33 34 35 36 37 37 37 37 37 37 36 36
24 24 24 24 24 23 23 22 23 23 23 24 24 25 25 25 25 25 25 26 26 27 27 28 29 29 30 31 32 33 34 34 35 36 36 37 37 38 38 37 36 35 35
25 25 26 26 26 26 25 24 24 24 25 25 26 27 27 27 27 28 28 29 29 29 30 30 30 31 32 33 34 35 35 36 36 37 37 37 37 37 37 36 35 35 35

GEFSMW_500_meanwind_150.txt.gz
Wind_Speed
38 39 39 38 38 38 39 40 40 40 41 41 42 42 42 42 42 43 44 43 43 43 42 42 42 43 43 43 44 44 44 44 44 43 43 41 41 41 41 41 41 41 41
36 37 37 37 37 38 38 39 40 40 41 41 41 42 43 43 43 43 44 44 43 43 43 42 42 42 43 44 44 45 44 44 44 43 43 43 42 42 41 41 41 41 41
33 34 35 36 37 37 38 39 39 39 40 40 40 41 41 41 41 42 42 43 43 44 44 44 43 43 43 43 44 43 44 45 45 44 45 44 43 42 43 42 42 42 43
33 34 35 36 37 37 37 37 38 38 39 39 39 39 39 40 40 40 40 41 42 43 43 44 45 45 44 43 43 43 44 44 44 44 45 45 44 43 42 42 42 41 41
30 32 34 35 35 35 35 36 36 37 37 38 38 38 37 38 38 39 38 39 40 41 41 42 43 44 44 43 43 43 43 44 44 44 44 45 44 43 43 42 41 41 42
28 30 31 33 33 34 34 35 36 36 36 36 36 36 36 37 37 38 38 37 37 39 40 40 41 42 42 42 41 42 42 42 42 43 43 44 44 45 45 44 43 43 43
25 27 28 29 31 32 33 33 34 35 35 35 35 35 36 36 36 37 37 36 36 37 38 38 39 40 41 42 40 40 40 41 41 41 43 44 45 45 44 44 44 44 43
22 23 25 26 28 29 31 32 33 34 34 34 35 35 35 35 36 36 35 35 35 35 36 37 37 38 39 39 39 39 40 40 41 41 42 43 43 43 43 43 43 43 43
20 21 22 24 26 27 28 30 30 31 32 33 34 34 35 35 35 35 33 33 33 33 34 35 36 37 37 37 38 38 39 39 39 40 40 41 41 42 42 43 43 43 43
18 19 21 23 24 26 27 28 29 29 30 32 32 33 33 34 34 34 33 33 32 32 33 33 35 36 36 37 37 37 36 36 36 37 38 39 40 40 41 42 42 42 42
18 19 20 22 23 24 25 26 27 29 30 31 32 32 33 33 33 34 34 34 34 34 34 34 34 34 34 35 36 36 36 36 36 36 36 38 39 39 40 41 40 41 41
19 20 20 21 22 23 23 24 25 26 27 28 29 30 31 31 31 32 32 33 33 33 33 32 32 32 33 34 35 35 35 35 35 35 36 36 36 37 37 38 38 39 38
19 20 20 20 20 21 22 22 23 23 25 25 26 26 27 28 28 29 29 30 30 31 31 31 31 31 31 31 32 33 34 34 34 34 34 35 35 35 36 37 37 37 38
20 20 20 20 19 19 20 20 21 21 21 22 22 23 24 25 26 27 28 28 29 29 29 29 30 30 29 30 30 31 31 32 33 33 33 33 34 35 36 36 36 36 38
20 20 20 19 19 18 18 19 19 19 20 20 21 22 23 24 24 25 25 26 27 27 26 27 28 28 28 28 29 29 30 30 31 31 32 32 33 33 34 35 36 37 38
20 20 20 19 19 18 19 19 19 19 19 20 20 20 21 22 22 23 24 24 25 26 26 26 26 26 26 27 27 28 28 29 29 30 30 30 31 32 33 34 35 36 38
21 21 20 20 20 20 20 19 19 19 19 19 19 19 19 20 21 21 22 23 24 25 25 25 25 26 26 26 26 27 27 28 29 29 29 30 30 32 33 33 34 36 36
21 21 21 21 20 20 20 19 19 18 18 18 18 18 18 19 19 21 22 22 23 23 23 24 24 24 24 25 26 27 28 29 29 29 30 30 30 31 32 33 34 35 36
22 22 22 22 21 21 21 20 19 19 19 19 19 19 19 20 21 21 22 23 23 23 23 23 22 23 24 25 26 27 28 28 28 29 30 30 31 32 33 34 35 35 37
23 22 22 22 22 22 22 22 22 21 21 21 22 22 22 23 23 23 23 23 23 23 23 23 23 24 24 25 26 27 27 28 29 30 30 31 32 32 34 35 36 37 38
26 25 24 24 24 23 23 23 23 23 23 23 23 24 25 25 25 25 25 25 25 25 25 25 26 26 26 27 27 28 28 29 30 30 31 33 33 34 34 36 37 37 38
28 27 27 26 25 25 24 23 24 25 24 24 24 25 25 25 25 26 26 25 26 26 27 27 27 28 28 29 29 29 29 30 30 31 32 33 34 35 35 36 38 38 39
29 29 28 27 27 27 26 24 24 25 25 25 25 26 26 26 26 27 27 27 27 28 29 29 29 30 31 31 31 31 31 32 32 33 34 34 35 36 37 37 38 38 39
31 30 30 28 28 28 27 27 27 27 27 27 27 28 28 28 28 28 29 29 30 30 31 30 31 32 33 33 32 33 33 34 34 34 35 36 36 36 37 37 38 38 38
33 32 31 30 30 30 28 28 28 28 28 28 28 29 30 30 29 29 30 31 31 31 31 32 33 33 33 33 34 34 34 34 35 35 36 36 36 37 37 38 38 38 38
33 33 33 32 32 32 31 30 30 30 30 30 30 30 31 32 32 31 31 32 33 33 34 34 34 33 34 34 35 35 35 35 36 36 37 37 37 38 38 38 39 39 39

GEFSMW_500_meanwind_156.txt.gz
Wind_Speed
34 34 35 37 38 39 39 40 40 40 40 40 40 41 41 41 41 40 40 40 40 41 41 40 41 41 41 42 42 42 42 42 43 44 44 44 43 42 42 42 40 40 41
33 34 35 35 36 37 38 39 40 41 41 41 41 41 41 41 41 41 41 41 40 40 41 41 41 41 41 41 41 41 42 43 43 44 45 45 45 44 43 43 42 41 42
31 32 33 34 35 36 37 38 39 40 40 41 41 41 41 42 41 40 40 41 41 41 41 41 41 41 41 41 41 40 41 41 42 43 45 45 44 44 44 43 43 43 43
30 31 32 33 33 34 35 37 37 38 39 40 40 40 40 40 40 40 40 40 40 40 40 40 40 41 42 42 42 41 41 41 42 43 44 44 44 44 43 43 43 44 44
29 30 30 31 32 32 33 34 35 36 37 38 38 39 39 38 38 38 39 39 39 40 40 40 40 41 41 41 41 41 41 41 42 42 42 42 42 43 44 44 44 45 45
27 28 28 29 31 32 33 33 34 35 35 35 36 37 37 38 38 37 38 38 39 39 39 40 41 40 40 41 41 40 41 41 42 42 42 42 42 42 42 43 44 45 45
24 26 27 27 28 30 32 32 32 33 34 34 35 36 37 38 38 38 38 39 39 39 40 40 40 40 40 40 40 40 40 41 40 41 41 41 41 40 41 41 42 43 43
23 25 26 27 28 29 30 31 32 32 32 33 33 34 36 37 37 38 39 39 39 40 41 41 40 40 40 40 40 40 40 40 40 39 39 39 40 40 41 41 42 42 42
22 23 24 25 26 28 29 29 30 31 32 32 31 32 33 34 35 37 38 38 38 39 40 41 40 40 40 39 39 39 39 39 39 38 38 39 39 39 40 40 41 41 41
20 21 22 23 24 25 26 27 27 29 30 31 32 32 33 33 34 35 35 36 37 37 38 38 38 38 38 38 38 38 38 38 39 39 39 39 38 38 39 39 39 40 40
20 20 21 22 23 23 25 25 27 28 29 29 30 31 31 31 32 33 35 36 36 36 37 37 37 37 37 37 38 38 38 38 38 39 39 39 39 39 39 39 38 39 40
22 22 22 23 23 23 24 26 26 27 28 29 29 30 31 32 32 32 33 34 35 35 36 36 36 36 36 36 37 37 37 37 38 38 38 38 39 39 39 39 39 39 39
23 23 23 23 24 24 24 25 25 26 26 27 28 28 29 29 30 31 32 32 33 34 35 36 36 36 36 36 36 36 36 36 36 37 37 37 37 38 37 37 38 38 38
23 23 23 23 24 24 24 24 24 24 25 26 26 27 27 28 28 29 30 30 31 32 33 34 35 36 36 35 35 35 35 35 35 34 34 34 34 35 36 36 37 37 37
23 23 23 23 23 23 24 23 23 24 24 25 25 26 27 27 27 28 28 29 29 30 31 32 33 34 34 34 34 35 34 34 33 33 33 33 34 35 36 36 36 36 37
24 25 25 24 24 24 24 24 24 24 24 24 25 25 26 26 27 27 27 27 28 29 29 30 31 32 32 33 33 33 33 33 33 34 34 34 35 35 35 36 36 36 36
25 26 26 26 25 26 25 25 25 24 25 25 25 26 26 26 26 27 27 27 27 28 28 29 30 30 31 31 31 31 32 32 32 32 33 33 34 34 35 35 35 35 36
28 27 27 27 27 27 27 27 27 27 27 26 26 26 26 26 25 25 26 26 26 27 28 29 29 30 30 31 31 31 31 31 31 31 32 32 33 33 34 34 34 35 36
28 29 29 29 29 29 28 28 28 28 28 27 27 27 27 27 26 26 26 26 26 26 27 28 29 29 29 30 30 29 29 30 30 31 31 32 33 34 34 34 34 35 36
30 30 30 30 30 30 29 28 28 28 28 27 27 27 26 26 27 26 26 27 27 27 27 28 28 29 29 29 29 29 29 29 29 30 31 32 33 33 33 33 33 34 35
31 31 31 31 31 31 31 30 29 29 30 29 28 28 27 27 27 27 27 27 28 28 28 29 29 29 30 30 30 30 30 30 30 31 31 32 33 33 34 34 35 36 37
32 32 32 32 32 32 32 31 31 31 31 30 30 29 28 28 29 29 28 28 29 29 29 29 30 30 31 32 32 31 31 32 32 32 33 33 34 34 34 35 35 36 37
33 34 34 33 33 34 33 32 31 31 31 31 30 30 29 29 29 30 29 29 30 31 31 30 30 31 31 31 32 32 33 33 33 33 34 34 34 34 35 36 36 36 37
35 36 36 35 34 34 34 34 33 32 32 31 31 31 30 30 30 31 31 32 32 32 32 32 32 31 32 32 32 33 33 33 33 34 34 35 35 35 35 36 36 36 37
37 37 38 37 36 36 36 36 35 34 33 33 33 33 33 33 32 32 32 33 33 33 33 33 33 32 32 33 33 34 34 34 34 34 34 35 35 35 34 35 36 36 37
39 39 39 39 38 37 37 37 37 36 35 34 35 35 34 34 34 33 33 34 35 35 34 34 34 34 34 34 34 34 34 34 34 34 35 35 35 35 35 36 36 36 36

GEFSMW_500_meanwind_162.txt.gz
Wind_Speed
29 30 31 33 33 33 34 34 35 35 36 37 37 37 38 39 39 39 39 38 38 38 38 38 39 39 39 38 38 39 39 39 39 40 39 39 40 40 40 40 40 41 41
29 30 31 32 34 34 34 35 36 36 36 37 37 37 37 38 39 39 39 39 38 38 38 38 38 38 38 38 38 39 39 39 40 40 40 40 40 41 41 41 42 42 42
29 30 31 32 32 33 34 35 36 37 37 37 38 39 39 38 38 38 39 39 40 40 39 39 38 38 38 38 38 38 38 39 39 40 40 40 40 41 41 41 42 42 43
29 30 31 31 32 33 34 35 36 37 37 38 39 40 40 40 40 40 40 40 40 40 39 39 39 38 38 38 38 38 39 39 40 40 41 41 41 41 41 41 41 41 42
27 29 30 30 31 32 32 33 33 35 36 37 38 39 39 40 39 40 40 39 39 40 39 38 37 37 38 38 38 38 39 40 40 40 40 40 41 41 41 40 40 41 41
25 27 28 30 30 31 31 32 33 34 35 37 37 38 38 38 38 38 38 38 38 38 39 39 38 38 38 38 38 39 39 40 40 40 40 41 41 41 40 40 40 40 39
24 26 28 29 29 30 31 32 33 33 34 35 35 36 36 37 37 37 37 37 37 37 37 37 37 38 38 39 38 39 40 39 39 40 40 41 41 41 41 41 40 39 39
23 25 26 28 29 29 30 31 31 32 32 32 33 33 34 35 36 36 36 36 37 37 37 37 37 37 38 39 39 39 39 39 39 40 41 42 41 41 41 41 40 40 40
23 24 25 26 27 28 29 30 31 31 31 31 32 32 32 33 34 35 35 35 35 36 36 37 37 38 38 38 38 39 39 39 40 40 41 41 41 41 41 41 41 41 41
24 25 26 27 27 27 28 29 30 31 32 32 32 32 32 33 33 34 35 35 35 36 36 37 37 38 38 38 38 39 39 40 40 41 41 41 40 40 40 40 40 41 41
25 26 28 28 29 29 29 29 30 31 32 32 33 33 33 33 33 33 34 34 34 35 36 37 37 37 38 38 38 38 38 39 40 40 40 40 40 40 40 41 41 41 41
26 27 28 29 29 29 29 29 30 30 31 32 32 33 33 33 34 34 34 34 34 35 35 36 36 37 37 38 38 39 39 40 40 39 39 39 39 40 40 40 40 40 39
27 28 28 28 29 29 29 29 30 30 30 31 32 32 32 33 33 33 34 34 33 34 34 34 35 36 36 37 38 38 39 39 39 39 39 38 38 38 38 39 39 39 39
27 28 28 29 29 29 30 31 31 31 31 31 31 32 32 33 33 34 34 34 34 34 34 34 34 34 34 35 37 37 38 38 38 38 38 39 39 39 39 39 39 38 38
29 29 29 29 30 30 30 30 31 31 31 31 31 31 32 33 33 34 34 34 34 34 34 34 33 34 34 34 36 37 37 37 38 38 38 38 39 39 38 38 38 38 37
31 31 31 32 32 32 31 31 31 31 31 31 31 31 32 32 33 33 34 33 33 33 33 33 33 33 33 33 34 34 35 36 37 37 37 37 38 37 37 37 37 38 37
33 34 33 33 32 32 32 32 32 32 32 32 32 32 32 33 33 33 33 33 33 33 33 33 33 33 33 33 33 33 34 35 36 36 36 36 36 37 37 37 37 37 37
34 35 35 35 35 34 34 34 33 33 33 33 33 33 33 33 33 33 33 33 33 33 34 34 34 34 34 33 33 33 33 34 34 35 35 36 36 37 37 37 37 38 38
37 37 37 36 36 35 35 35 35 35 35 35 35 35 34 34 34 34 34 34 34 34 34 34 34 34 33 33 33 33 33 33 34 34 35 36 36 36 37 37 37 37 37
38 38 37 37 37 37 36 36 36 35 35 35 35 35 35 35 34 34 34 34 34 34 34 34 34 33 33 34 34 34 34 34 34 35 35 36 36 36 37 37 37 36 36
39 39 39 38 38 38 37 37 37 36 36 36 36 36 36 36 35 35 35 35 35 35 35 34 34 34 34 35 35 36 36 35 35 35 35 36 36 36 36 37 36 36 36
40 40 40 39 39 39 39 38 38 38 38 38 37 37 37 37 36 37 36 36 37 37 36 36 36 35 36 36 36 36 36 36 35 35 35 35 36 35 36 36 36 36 36
41 41 41 41 40 40 41 40 39 39 39 39 39 39 39 38 38 38 38 38 38 38 37 37 37 36 36 36 36 36 35 35 35 35 35 35 35 35 35 36 36 36 36
43 43 43 42 42 42 42 42 42 41 41 40 40 40 40 39 39 39 39 38 37 37 37 37 36 37 36 36 36 36 35 35 35 35 35 35 34 34 35 35 35 36 36
45 45 44 44 43 44 44 44 44 43 43 42 42 41 41 40 40 39 39 38 38 38 37 37 36 36 36 36 36 36 36 35 35 35 36 35 34 34 34 35 36 36 36
46 45 44 44 44 44 44 44 45 44 44 44 43 43 42 41 40 40 39 39 39 38 38 38 37 37 36 36 36 36 36 36 35 35 35 34 34 34 34 35 36 36 36

GEFSMW_500_meanwind_168.txt.gz
Wind_Speed
24 25 26 27 29 29 31 32 33 33 34 34 34 34 34 34 34 36 36 36 36 36 36 36 37 37 37 37 37 37 37 37 38 38 39 39 40 39 39 39 39 39 39
24 24 25 26 28 29 30 32 33 34 34 34 34 34 34 34 34 35 35 36 36 37 37 37 37 37 37 37 37 37 37 38 38 39 39 39 40 39 40 40 41 40 40
23 24 25 26 27 29 30 31 32 33 34 35 35 35 35 36 36 36 36 37 38 37 37 37 37 36 36 36 37 38 39 39 39 39 39 39 39 39 40 40 41 40 40
23 24 25 26 27 28 29 30 31 31 32 33 33 34 34 36 37 37 38 38 39 39 39 38 38 37 37 37 37 38 38 38 38 38 38 38 39 39 39 39 40 40 40
23 24 25 26 27 28 28 29 29 29 30 31 32 32 33 33 34 35 36 37 38 38 38 39 39 38 38 38 38 38 38 38 38 38 37 37 38 39 40 39 39 40 40
23 24 25 25 26 27 27 27 28 29 29 30 31 32 31 32 33 33 33 34 35 36 37 38 38 38 38 38 39 39 39 39 39 38 38 37 37 38 39 39 39 40 40
22 23 24 25 26 27 28 28 29 30 30 31 31 32 33 33 33 33 33 33 34 35 36 36 37 38 38 38 38 39 39 39 39 39 39 39 38 38 38 38 39 39 40
21 22 23 25 26 27 28 29 30 31 31 32 33 33 34 34 33 33 33 33 33 33 34 35 36 37 38 38 38 39 39 39 40 40 40 40 39 39 39 39 39 40 40
22 24 25 26 27 28 29 30 30 32 32 33 33 34 34 33 33 33 33 33 33 34 34 35 35 36 37 38 39 39 39 39 40 40 39 39 40 40 40 40 40 40 40
24 25 26 27 28 29 30 31 32 32 33 34 34 35 35 35 35 35 35 35 35 35 35 36 36 36 36 37 38 39 39 39 39 40 40 40 40 40 41 42 42 41 41
26 27 28 29 30 30 31 32 33 34 34 34 35 35 36 37 37 37 36 36 36 36 37 37 37 37 37 37 38 39 40 40 40 41 41 41 42 42 42 42 42 42 41
27 28 29 30 31 31 32 33 34 35 35 35 35 36 36 37 38 38 38 38 38 38 38 38 38 38 38 38 38 39 39 40 40 41 41 42 43 43 43 43 43 43 42
27 28 29 31 32 32 33 34 34 35 36 36 37 37 38 38 39 39 39 39 39 39 39 38 38 37 37 37 37 38 38 38 39 40 41 41 42 42 43 43 43 43 42
28 29 30 31 32 33 33 34 34 35 35 36 37 37 38 38 38 38 38 38 38 38 37 37 36 36 36 37 37 37 37 37 37 38 39 39 40 40 41 42 42 42 42
31 31 31 32 33 33 34 35 35 35 36 36 37 37 37 38 38 37 37 37 37 37 36 36 36 36 36 36 36 36 37 37 37 37 38 38 39 39 39 40 40 41 41
33 33 34 35 35 35 36 36 37 37 38 38 38 38 38 38 39 39 38 38 38 37 36 36 36 36 36 36 36 37 37 37 37 37 37 37 38 38 38 38 39 39 40
35 36 36 36 37 37 38 38 39 39 39 39 39 40 40 40 39 39 39 39 39 38 38 37 37 37 37 37 37 37 37 37 37 37 37 37 37 37 37 37 38 38 38
37 37 38 38 39 39 40 40 40 40 40 40 40 40 41 40 40 40 40 40 39 38 38 38 38 38 38 38 38 38 38 37 37 37 37 37 37 37 38 38 38 38 39
38 39 40 40 41 41 41 41 41 41 41 41 41 41 42 41 41 41 41 41 40 40 39 39 39 39 39 39 39 39 38 38 38 38 38 38 37 38 38 38 38 39 40
41 42 42 42 42 42 43 43 43 43 43 43 43 42 42 42 42 42 41 41 41 40 40 40 40 41 40 41 41 40 39 39 39 38 38 38 38 39 39 40 40 40 40
44 44 44 44 44 44 44 44 44 44 44 44 44 44 43 43 43 43 42 42 42 42 41 41 41 41 42 42 42 41 40 40 39 39 39 39 40 40 41 41 40 40 40
45 45 45 45 45 46 46 46 45 45 45 45 45 45 45 45 45 45 44 44 43 42 42 42 42 42 42 42 42 42 41 41 40 40 40 40 41 41 41 41 41 41 41
47 48 48 48 48 48 47 47 46 46 46 46 46 46 46 46 46 46 45 44 44 44 43 44 43 43 43 42 42 42 42 41 41 41 42 41 41 41 41 41 41 40 40
49 49 50 50 49 48 48 47 47 47 46 46 47 46 46 46 46 46 46 46 45 45 45 45 44 44 43 43 43 42 42 42 41 41 41 41 41 41 41 41 41 40 40
49 49 49 49 49 48 48 47 47 47 47 47 46 46 45 45 45 45 45 45 46 46 46 45 45 44 43 43 43 42 42 42 42 41 41 41 41 41 41 41 41 40 40
49 49 49 49 48 48 47 47 48 47 47 46 46 46 46 45 45 45 45 45 45 45 45 45 44 43 43 42 42 42 42 42 41 41 40 40 40 40 40 40 40 40 39

GEFSMW_500_meanwind_174.txt.gz
Wind_Speed
25 25 24 24 24 26 26 25 25 27 29 30 30 29 28 28 28 29 30 30 32 32 33 33 34 34 34 35 36 36 36 37 37 37 37 38 37 37 36 37 38 38 38
24 25 26 25 25 26 26 26 27 27 27 28 28 28 28 28 28 28 29 29 29 30 31 32 32 32 33 34 34 35 36 36 37 37 38 38 38 38 38 38 38 38 38
23 23 24 24 25 25 26 27 27 27 27 27 28 29 28 28 28 28 28 29 29 30 31 32 33 33 34 35 36 35 35 36 36 36 36 37 38 37 37 38 38 38 38
23 24 24 24 25 26 27 28 28 28 28 29 29 30 30 29 30 29 29 30 30 31 31 32 34 33 34 35 35 36 36 37 38 38 38 38 38 39 38 37 38 39 39
24 24 25 26 26 27 28 28 28 29 29 29 30 30 30 30 30 30 30 31 31 31 32 33 34 34 34 35 36 37 37 37 38 38 38 39 39 38 37 37 38 39 40
25 25 26 27 27 28 29 29 29 29 29 29 30 31 31 30 30 31 32 32 32 32 33 34 35 35 35 35 35 36 36 37 37 37 38 39 39 39 38 38 38 39 40
25 25 26 27 28 29 29 29 30 30 30 31 31 31 32 31 31 31 31 33 34 35 35 35 36 35 35 35 35 36 36 36 36 36 37 38 38 39 39 40 40 40 40
26 26 27 28 28 29 30 30 30 31 31 32 32 32 32 32 32 32 32 32 33 34 35 36 36 36 36 36 35 35 35 35 36 36 37 37 38 39 40 41 41 41 41
27 28 28 29 29 30 31 31 31 32 33 33 33 34 34 34 35 35 35 34 34 34 34 35 36 37 36 36 35 35 35 36 36 36 37 38 39 40 40 41 41 41 40
28 29 30 30 31 32 32 33 34 34 35 36 36 37 37 37 37 37 38 38 37 36 36 36 36 37 37 37 37 37 37 38 37 37 38 38 39 39 40 40 41 41 41
29 30 31 32 33 33 34 35 36 36 37 38 38 39 39 39 39 39 39 40 40 39 38 38 39 39 39 39 39 39 39 39 39 39 39 39 39 39 40 40 41 42 42
31 32 33 34 34 35 36 37 38 38 39 39 40 40 41 41 41 41 41 42 42 42 42 42 41 41 41 41 40 40 40 40 40 40 39 39 39 39 40 40 40 41 42
32 33 34 35 36 36 36 37 38 38 39 39 40 41 41 42 42 42 42 42 42 43 43 43 43 43 43 43 42 42 42 41 40 40 40 40 39 39 40 40 41 41 42
33 34 34 35 36 37 37 38 39 39 40 40 41 41 41 42 42 42 42 42 42 42 42 43 43 43 43 43 43 43 43 42 41 40 40 40 40 40 40 40 41 41 41
35 36 36 37 37 38 38 39 40 41 41 42 42 42 42 42 43 43 43 43 42 42 43 43 43 43 43 43 43 43 42 42 41 41 40 40 40 40 40 40 40 41 41
38 38 39 39 39 40 40 41 42 42 43 43 43 44 44 44 44 44 45 45 45 44 44 44 44 44 43 43 43 43 42 42 42 42 41 41 40 40 40 40 41 42 42
40 40 40 40 41 42 42 43 44 44 44 44 44 45 45 45 46 46 46 46 46 46 46 46 45 45 45 44 44 44 44 43 43 43 42 42 42 42 42 42 42 42 43
42 41 42 42 43 44 44 45 45 45 46 46 46 46 47 47 47 47 47 47 47 47 47 47 47 47 46 46 45 45 45 44 44 44 44 44 44 44 43 43 43 43 43
43 43 43 43 44 44 45 46 46 47 47 47 47 47 48 49 48 48 48 48 48 48 48 48 48 48 48 47 47 47 46 46 45 45 45 44 44 44 44 43 42 42 42
45 45 45 45 45 45 46 47 47 48 49 49 50 50 50 50 50 50 49 49 49 49 49 49 49 49 49 49 49 48 47 46 45 45 45 45 45 45 44 43 43 42 42
46 47 47 46 46 47 48 48 49 50 50 51 51 51 51 51 51 51 51 51 50 50 50 50 50 50 50 49 49 49 48 47 47 47 46 46 46 46 45 44 44 43 43
47 47 47 47 47 48 49 49 50 51 51 51 51 52 52 52 52 52 52 51 51 51 51 51 50 50 50 50 50 50 49 49 48 47 47 47 47 46 45 44 44 44 44
49 49 49 49 49 50 50 50 50 51 51 51 51 51 52 52 52 52 51 51 51 51 51 51 50 49 49 49 49 50 50 49 48 47 47 47 47 47 46 45 44 44 44
51 51 52 51 51 51 52 52 51 51 52 52 51 51 51 52 52 52 51 51 51 51 51 50 50 49 49 49 49 49 49 49 49 48 48 48 48 47 46 45 44 44 45
54 54 54 54 53 53 53 52 52 53 53 53 52 52 51 52 51 51 51 51 51 50 50 49 49 49 48 48 49 49 49 49 48 48 48 48 47 46 46 45 44 44 44
55 56 55 55 55 54 54 53 53 54 54 53 53 52 51 51 51 50 50 50 50 50 49 49 49 49 48 48 48 48 48 48 48 48 48 47 46 46 45 45 44 44 43

GEFSMW_500_meanwind_180.txt.gz
Wind_Speed
20 20 21 20 21 23 25 27 26 28 29 29 30 32 33 32 32 34 33 33 32 31 30 30 30 31 31 31 31 31 32 32 32 32 33 34 34 34 34 35 35 36 36
19 20 20 21 21 22 23 26 27 29 29 30 30 32 33 33 32 33 32 32 32 32 32 32 31 30 30 31 30 30 30 30 30 31 32 32 33 34 35 35 35 36 37
20 20 20 21 22 22 23 25 28 28 27 26 28 29 31 33 33 32 32 32 32 32 31 32 32 31 31 31 30 29 29 29 29 29 31 32 32 33 33 35 36 37 38
21 20 20 21 22 23 25 25 27 27 26 26 26 28 30 31 31 31 32 32 33 32 32 31 31 30 30 30 30 30 31 30 30 29 30 32 32 33 33 34 35 36 37
23 23 23 23 24 25 25 26 26 27 27 26 27 28 30 31 31 31 31 32 33 32 32 32 32 31 31 30 30 30 30 31 30 30 31 32 33 33 34 33 34 36 37
24 25 25 26 26 27 26 26 27 27 27 27 26 28 30 31 32 31 30 31 33 32 33 33 33 33 33 33 32 31 31 31 31 31 32 32 33 34 34 34 35 35 36
26 26 27 27 27 27 27 27 27 28 28 29 29 28 30 32 32 33 32 33 34 34 34 35 35 34 35 35 35 34 34 33 33 33 33 33 34 35 35 36 36 36 36
27 27 27 28 28 28 28 28 28 29 31 31 31 31 32 33 34 35 34 34 34 35 35 36 37 36 36 36 36 36 36 36 35 35 35 35 36 36 36 37 37 37 37
27 28 28 29 29 29 30 30 30 31 32 32 33 34 34 34 35 36 36 36 36 36 36 37 38 38 38 38 39 39 38 38 37 37 37 37 37 38 38 38 38 38 37
28 29 29 30 31 32 32 32 33 33 34 34 35 35 36 36 36 36 38 38 37 37 39 39 39 39 40 40 40 40 39 39 39 39 39 39 39 39 39 39 39 39 39
29 29 30 32 33 34 34 35 35 35 36 37 37 37 37 38 38 39 39 40 40 39 39 39 39 40 41 41 41 41 42 41 41 41 41 41 40 40 41 41 40 40 40
31 32 33 34 34 35 36 36 37 37 38 38 39 39 39 39 40 41 41 42 41 41 41 40 40 41 41 42 43 43 43 43 43 43 43 43 42 42 41 41 41 41 41
33 34 35 35 36 36 37 37 38 38 38 39 40 40 41 40 40 41 42 43 43 43 42 41 41 42 42 42 44 44 44 44 44 44 44 44 43 42 42 41 41 41 42
35 35 35 36 36 37 38 38 39 39 39 39 40 40 40 41 42 42 42 43 43 43 42 42 41 42 42 43 44 44 44 44 44 44 44 44 43 43 42 42 42 42 42
37 37 37 38 38 38 39 39 40 40 40 40 41 41 42 42 43 43 43 43 44 44 44 43 43 43 43 43 43 44 44 44 44 44 44 44 44 44 44 44 44 44 44
38 38 39 40 39 39 40 40 41 41 41 42 42 43 43 44 44 44 44 44 45 45 45 45 45 45 45 45 45 45 45 45 45 45 45 45 45 45 45 46 46 45 45
40 40 41 42 42 42 42 43 43 44 44 44 44 44 45 45 46 46 46 46 46 47 47 47 47 47 47 47 47 47 47 47 48 47 47 47 47 47 47 47 47 47 46
42 42 43 43 43 43 44 44 45 45 45 45 45 45 45 46 46 47 48 48 49 49 49 49 49 49 49 50 50 50 50 50 49 49 49 49 48 48 49 49 48 48 47
43 42 43 43 43 43 44 45 45 46 46 46 47 46 46 47 47 48 49 49 50 51 51 52 52 52 52 52 52 52 52 51 51 51 51 51 50 50 51 51 50 49 48
42 42 43 43 44 44 44 45 46 46 47 47 48 48 48 49 49 50 51 52 52 53 53 53 54 54 54 54 54 54 54 53 53 52 52 52 52 52 53 53 51 50 49
43 43 43 43 44 45 45 46 46 47 48 49 49 50 50 51 51 51 52 53 54 54 55 55 55 56 56 56 56 56 56 55 55 54 54 53 53 53 53 53 52 51 50
43 44 45 45 45 46 47 47 47 48 50 50 51 51 52 52 53 53 54 54 55 55 56 56 56 56 57 57 56 56 56 56 55 55 54 54 54 53 53 52 52 51 51
44 45 46 46 47 48 49 49 49 50 51 52 53 53 54 54 55 55 55 55 55 56 56 56 56 55 55 55 55 55 55 55 55 54 53 53 53 52 52 51 51 51 50
45 46 47 47 47 48 50 51 52 53 54 54 54 54 54 54 54 54 54 55 55 55 55 55 54 54 54 53 54 54 53 53 53 52 52 51 50 50 50 50 50 50 50
47 47 47 47 48 49 50 51 52 53 53 53 53 53 53 53 53 53 53 54 54 54 54 53 53 53 52 52 52 52 52 51 51 50 49 48 47 47 47 47 47 47 47
47 47 48 48 48 49 49 50 51 51 51 52 52 53 53 53 54 54 54 54 54 53 53 52 51 50 50 49 49 49 49 48 47 47 46 45 45 44 44 44 44 44 44

GEFSMW_500_meanwind_186.txt.gz
Wind_Speed
21 22 24 25 27 28 28 27 28 29 29 31 31 30 31 32 33 34 33 35 35 35 34 33 32 31 30 31 31 30 31 31 32 32 32 33 33 33 33 32 32 32 31
21 22 24 25 27 28 28 28 29 30 30 30 31 31 32 34 36 35 35 36 36 36 36 35 33 33 32 32 32 32 32 32 31 31 31 31 31 32 32 32 32 31 30
22 22 23 24 26 27 28 28 28 29 29 29 30 31 33 33 35 35 36 36 36 36 36 36 36 34 33 32 32 32 31 31 31 31 31 31 30 31 31 31 31 31 31
22 24 24 26 26 28 29 28 29 28 27 29 30 30 32 33 33 33 34 34 34 34 34 35 35 34 33 32 32 32 32 31 31 31 31 31 30 29 29 30 30 31 31
22 24 26 26 28 29 29 29 29 30 29 28 30 30 31 32 33 33 34 34 34 36 35 36 35 35 34 34 34 33 34 33 33 33 33 32 31 30 29 29 30 30 31
23 25 25 26 27 29 30 30 31 31 31 32 32 31 31 32 34 34 34 36 37 37 37 36 36 36 36 36 36 35 35 35 34 34 34 33 32 31 31 31 31 31 31
25 26 27 27 28 30 32 33 33 34 34 34 34 33 34 34 36 36 36 36 36 36 37 38 38 38 37 37 37 36 37 37 37 36 35 34 34 34 34 33 33 33 33
27 28 29 29 30 31 33 34 34 34 34 34 34 34 35 35 36 36 36 37 37 37 39 39 39 39 38 39 40 40 39 38 37 37 37 36 37 36 36 36 36 36 35
29 29 30 31 31 32 33 34 34 34 35 35 35 35 35 35 36 36 37 39 40 39 39 40 40 40 41 41 41 41 40 39 39 39 39 39 39 39 39 39 39 39 38
31 31 30 31 32 33 35 35 35 35 36 36 36 35 35 36 36 37 38 39 39 39 40 41 40 41 41 42 42 41 42 42 42 41 41 41 42 42 41 42 42 41 41
32 32 32 33 34 34 35 36 35 36 36 37 36 36 36 37 37 38 38 40 40 41 42 42 42 42 42 43 43 43 43 43 43 43 43 43 44 43 43 43 43 43 43
34 35 35 35 35 35 36 36 36 36 37 37 37 37 37 37 38 39 40 41 41 42 43 44 44 44 44 44 45 45 44 45 45 45 45 45 45 45 44 44 44 44 44
37 37 37 36 36 37 37 38 37 37 38 39 39 40 41 40 40 40 41 42 42 43 44 45 45 46 46 46 46 46 46 46 47 47 47 47 47 46 46 46 46 46 46
38 38 38 38 38 38 39 39 39 39 39 40 40 41 42 43 43 43 43 43 44 44 45 45 46 47 47 47 47 47 48 47 48 48 48 47 48 47 47 47 46 46 47
40 39 39 39 40 40 40 41 41 40 41 41 42 42 42 43 43 44 44 44 44 45 46 45 46 46 47 47 48 48 49 49 49 49 48 48 48 49 48 48 48 48 48
41 42 42 42 42 42 42 43 43 43 43 43 44 44 44 44 45 44 45 45 44 45 46 45 45 46 47 48 48 48 49 49 50 49 49 50 50 50 50 50 50 51 50
44 44 44 44 45 45 45 45 45 46 45 45 45 46 46 46 46 46 46 45 45 46 46 47 47 47 47 48 49 49 50 50 51 51 52 51 52 52 52 53 53 53 53
46 46 45 46 46 47 47 47 47 47 47 47 47 47 47 47 47 48 48 47 47 47 48 48 49 49 49 49 49 49 50 51 51 52 52 53 53 53 54 54 54 54 54
46 46 46 47 47 47 47 48 48 48 48 48 48 48 48 49 49 49 50 50 50 50 50 51 51 51 51 51 51 51 52 52 52 53 53 53 54 54 54 54 54 53 53
46 46 46 47 47 47 47 48 48 48 48 49 49 49 50 50 51 51 51 52 52 52 52 52 53 53 53 53 53 53 53 53 53 53 53 53 54 54 54 54 54 53 53
47 47 47 47 47 47 48 48 48 48 49 50 50 50 50 51 51 52 53 54 54 54 54 54 54 54 54 54 54 54 55 56 55 54 54 54 55 55 55 55 55 55 54
47 47 48 48 47 48 48 48 47 48 49 49 50 50 51 51 52 53 54 55 56 56 56 56 56 56 55 55 55 55 56 56 56 56 55 56 56 56 56 56 56 55 55
47 47 48 48 48 48 48 48 48 49 49 50 51 51 52 52 53 54 55 56 56 57 57 57 57 56 56 56 56 56 56 56 56 56 56 57 57 56 56 56 56 55 55
48 48 49 49 49 48 48 49 49 49 50 50 50 51 52 53 54 55 56 57 57 57 57 57 57 57 56 56 56 56 56 56 56 56 56 56 56 55 55 54 54 53 52
48 48 49 49 48 48 48 48 48 49 49 49 50 50 51 53 53 54 54 55 55 55 55 55 55 55 55 54 55 56 56 56 56 56 55 55 54 53 53 52 51 50 50
48 48 48 47 47 46 46 46 47 47 48 48 49 50 50 51 52 52 51 52 52 52 53 53 54 54 55 55 55 55 55 55 55 55 54 53 52 51 50 49 48 48 47

GEFSMW_500_meanwind_192.txt.gz
Wind_Speed
21 21 21 22 23 24 25 28 28 30 30 29 28 30 31 32 33 34 34 34 35 35 35 36 35 35 35 34 33 32 33 32 32 33 32 32 32 31 31 31 31 30 30
21 21 21 23 24 24 26 27 28 29 30 31 30 31 31 32 33 34 35 35 35 36 36 37 37 37 36 36 35 34 34 34 34 33 33 34 34 33 32 32 31 30 30
21 21 22 23 24 24 25 27 29 29 30 30 30 32 32 33 35 36 36 36 37 37 37 38 39 38 38 37 37 36 35 35 35 35 35 35 35 34 33 33 32 31 30
22 22 23 23 25 25 26 27 28 30 31 30 30 31 32 33 33 34 35 36 38 39 39 40 38 38 38 38 37 37 36 36 36 36 35 35 35 35 34 33 33 32 32
23 23 24 24 25 26 27 26 28 30 31 31 30 30 31 32 33 33 34 36 36 38 39 40 39 38 38 38 38 37 37 38 37 37 37 37 37 36 35 34 34 34 34
23 24 25 26 27 28 28 28 29 30 31 31 31 33 33 34 35 34 35 37 38 37 38 39 40 41 40 40 40 39 38 39 39 39 38 38 37 37 36 36 36 35 35
24 25 26 27 28 29 30 30 32 33 33 34 34 34 35 35 35 35 36 37 38 39 40 41 41 42 42 41 42 41 40 40 40 40 40 39 39 39 38 37 37 36 36
28 28 28 28 29 30 31 32 33 34 35 36 36 36 36 36 36 36 37 37 38 39 39 40 41 42 43 42 42 42 42 42 42 41 42 41 41 40 39 38 37 37 37
28 28 29 29 29 30 31 33 34 34 36 37 39 39 39 38 38 39 38 38 38 39 41 41 41 41 43 43 42 44 44 44 43 43 43 42 43 42 41 40 40 40 39
30 29 29 31 31 32 33 34 35 35 36 37 38 40 40 40 40 40 40 40 39 40 41 42 43 43 43 44 44 44 45 44 44 44 43 43 43 43 44 44 44 43 43
31 32 31 31 32 33 34 35 35 36 38 38 39 40 41 41 40 40 40 41 42 41 41 42 44 44 44 45 45 45 45 45 45 44 44 44 45 46 46 45 45 45 45
33 33 34 34 34 34 35 36 36 37 38 39 39 40 40 41 41 41 41 41 42 43 42 43 44 45 46 46 46 46 45 46 46 46 45 46 47 47 48 48 47 47 47
35 36 36 37 37 36 37 37 38 38 39 39 39 40 40 41 41 42 42 43 43 43 43 44 44 45 46 47 47 47 47 46 48 49 49 49 49 49 50 50 50 50 50
37 38 38 38 38 38 38 39 39 40 40 41 41 41 42 42 43 43 43 44 44 44 43 43 44 45 46 47 47 48 48 48 49 50 50 50 50 51 51 51 52 52 52
39 40 39 39 39 39 40 40 41 42 42 43 43 43 43 44 44 44 43 44 45 46 45 44 45 46 47 47 48 49 50 49 49 50 50 50 51 52 52 52 52 53 53
41 41 41 41 41 41 41 42 43 44 44 44 44 45 45 45 45 45 45 45 45 46 46 46 46 46 46 48 49 49 50 51 51 52 51 51 51 52 52 52 52 53 52
43 43 43 43 43 43 43 43 44 45 46 46 46 46 47 46 46 46 46 46 46 46 47 47 48 47 47 48 49 50 51 52 53 53 53 54 54 55 54 53 53 53 52
45 44 44 44 45 45 44 44 45 46 47 47 48 48 48 47 47 47 47 46 47 47 47 47 48 48 48 49 50 51 53 54 54 54 54 55 56 56 56 55 55 55 54
44 45 45 45 46 46 46 46 46 47 47 48 48 49 49 49 49 49 49 48 48 48 48 48 49 49 50 50 51 52 54 54 54 55 56 56 56 56 56 56 56 56 56
45 45 45 46 46 46 47 47 47 47 47 48 48 49 50 50 50 50 50 50 50 49 50 49 49 50 51 52 52 53 54 55 56 56 56 56 56 56 56 57 57 57 57
45 45 46 46 46 46 47 47 47 47 48 48 48 49 50 51 51 51 50 51 51 51 51 51 51 51 52 53 53 54 55 56 56 56 56 56 56 56 57 57 57 57 57
45 46 46 46 46 46 47 47 47 47 47 48 48 49 49 50 50 50 51 51 51 52 52 53 53 53 53 53 53 54 55 56 57 56 56 56 56 56 56 57 57 58 57
46 46 46 46 46 46 46 46 47 47 48 48 48 48 48 49 49 50 51 52 52 52 53 53 54 54 53 54 55 55 55 56 56 55 55 55 55 56 56 56 56 57 57
45 45 46 46 46 46 47 47 47 48 48 48 48 48 47 47 48 49 50 51 52 52 53 53 53 53 53 53 54 54 55 55 55 55 54 54 54 54 54 54 54 55 55
43 44 44 44 44 45 46 47 47 48 48 47 47 47 47 47 47 48 49 49 50 51 51 51 52 52 52 52 53 52 52 53 53 53 53 52 52 52 53 53 53 53 54
43 43 43 43 44 44 45 45 46 46 46 46 46 46 46 47 47 47 47 48 48 48 49 51 51 51 51 51 50 50 51 51 51 52 51 51 51 51 51 52 52 52 52

GEFSMW_500_meanwind_198.txt.gz
Wind_Speed
24 25 26 26 26 27 27 27 28 28 29 29 31 32 32 31 31 32 32 33 34 34 34 35 35 35 35 35 34 34 34 34 34 34 34 34 33 34 33 33 32 32 32
24 24 25 26 26 27 29 29 28 29 30 30 31 32 33 32 31 32 31 33 35 35 35 36 36 36 36 36 36 37 37 36 35 35 35 35 35 35 34 34 34 33 33
25 25 25 25 26 26 27 28 28 28 30 30 31 33 34 34 32 33 33 33 35 37 37 37 37 37 37 37 37 38 38 38 37 37 37 36 35 34 34 34 34 34 33
26 26 25 25 25 26 26 26 27 28 30 31 32 34 34 34 33 33 34 34 36 38 39 39 38 38 39 38 39 39 39 39 39 38 37 36 35 34 34 34 34 34 34
29 27 27 27 26 26 27 27 28 28 30 31 32 33 34 35 35 34 35 35 36 38 39 39 39 39 39 39 39 39 39 38 38 38 37 37 36 36 36 36 36 36 36
30 30 29 28 28 27 28 29 29 29 30 31 33 33 33 35 36 35 35 36 37 38 40 40 40 40 40 40 41 40 40 40 39 39 39 39 38 37 37 37 38 37 38
31 31 31 29 30 29 29 30 30 31 31 31 32 33 34 36 36 36 36 38 39 39 39 39 39 40 40 39 40 41 41 41 41 41 41 41 40 40 40 40 40 40 40
34 33 33 31 30 31 32 31 31 31 32 33 34 34 35 36 37 37 36 37 38 38 39 40 40 41 41 41 41 43 43 42 42 43 42 42 43 42 42 42 42 42 41
35 34 34 33 32 32 33 33 33 33 33 34 35 36 37 37 37 37 36 36 37 38 40 41 40 41 42 42 42 43 44 43 43 45 45 44 44 44 44 44 44 43 42
34 35 35 35 34 34 34 35 35 35 35 36 37 38 38 39 38 38 38 38 38 39 40 41 41 42 42 43 43 44 44 44 44 44 45 45 45 45 45 45 45 44 44
34 35 35 36 36 36 36 36 37 38 37 37 38 39 40 40 40 40 40 40 40 40 41 41 42 43 44 44 44 45 46 46 46 46 46 46 46 46 46 47 46 46 46
36 36 36 36 37 37 38 38 39 39 39 39 40 40 41 41 41 41 41 42 42 42 43 43 44 45 45 45 46 46 47 47 47 48 48 47 48 48 49 48 48 47 47
36 37 37 37 37 38 39 39 39 40 40 40 41 41 42 42 42 43 43 43 42 43 44 45 45 46 47 46 46 46 47 47 47 48 48 48 49 48 49 49 49 49 49
38 38 38 38 39 40 41 42 41 41 41 42 42 42 43 43 43 44 44 44 44 44 45 45 46 46 47 47 48 48 48 48 48 49 49 50 51 50 50 50 51 51 51
39 39 39 40 41 42 42 43 44 43 43 43 44 44 44 45 45 45 46 46 46 46 46 46 46 47 48 49 49 49 50 50 50 50 51 52 53 53 53 53 53 52 52
40 41 41 41 43 43 44 45 45 45 46 46 45 45 45 46 46 46 46 47 47 48 49 49 48 48 49 49 50 50 50 50 50 51 52 53 54 55 54 54 54 54 53
41 41 42 43 44 44 45 46 46 46 47 47 47 47 47 47 47 48 48 48 49 49 50 50 50 50 50 50 50 50 50 50 51 51 51 52 53 54 55 55 55 55 55
42 42 43 44 45 46 47 48 48 48 49 49 49 49 49 50 50 50 50 50 51 51 51 51 51 51 52 52 52 52 52 52 52 52 52 53 54 54 55 55 55 56 56
43 43 44 45 46 47 48 49 49 49 50 50 51 51 51 51 51 52 52 52 52 52 52 52 52 53 53 53 53 53 53 53 53 53 53 54 54 55 56 56 56 57 57
44 44 45 45 46 47 48 49 49 50 50 50 51 51 51 51 52 52 53 52 52 53 53 52 52 53 53 53 54 54 54 54 54 54 54 54 55 56 56 57 57 57 57
46 46 46 46 47 47 48 48 48 48 48 49 50 50 50 50 51 51 52 52 52 52 52 52 52 52 53 52 53 54 54 54 54 54 54 54 55 56 56 56 56 57 57
47 47 47 46 46 47 47 47 48 47 48 49 49 49 49 49 49 50 50 51 51 51 51 52 52 52 52 52 52 52 53 53 53 53 54 54 54 55 55 55 55 55 56
46 47 47 46 46 46 46 47 47 48 48 48 49 49 49 49 48 49 49 50 50 50 50 51 51 51 51 51 51 52 52 52 53 53 53 53 53 53 53 53 54 54 55
44 45 45 45 45 45 46 46 47 48 48 48 48 48 48 48 47 47 48 49 49 49 49 49 49 50 50 51 51 52 52 53 53 52 52 52 51 51 51 52 52 52 53
43 43 44 44 44 44 45 45 46 47 47 47 47 47 48 48 48 47 47 48 48 48 48 48 49 49 49 50 51 51 51 52 52 52 51 51 51 50 51 51 51 50 51
42 43 43 44 44 44 44 45 45 45 45 45 46 46 47 47 47 47 47 47 47 47 47 47 47 48 48 49 50 50 51 51 51 51 50 50 50 49 49 50 49 49 49

GEFSMW_500_meanwind_204.txt.gz
Wind_Speed
29 30 31 30 30 30 28 29 29 30 32 34 35 35 36 36 36 35 35 35 36 36 36 37 35 35 35 34 34 35 34 34 34 33 32 33 32 32 31 31 31 30 30
30 30 31 30 31 30 29 28 29 30 31 33 34 34 35 36 36 36 35 36 37 36 36 37 37 37 36 36 34 35 35 35 34 34 34 34 34 34 33 33 32 32 32
30 30 32 31 31 31 29 29 28 29 29 31 32 34 36 36 35 35 35 36 38 38 37 36 38 38 38 37 36 36 36 36 36 35 35 34 35 34 34 34 34 34 33
31 31 32 32 30 31 31 31 30 29 31 31 32 34 35 35 35 35 35 36 37 38 38 38 39 39 39 39 38 36 36 37 37 37 37 36 36 36 35 35 35 35 35
32 33 33 32 31 31 32 32 31 30 30 31 32 33 34 33 34 35 36 36 37 38 39 38 39 40 40 40 40 38 37 37 37 38 38 38 37 37 37 37 37 37 36
32 33 33 34 34 33 34 33 31 32 31 31 31 33 34 33 33 35 36 36 37 39 40 39 39 40 41 41 41 41 40 40 40 40 40 39 39 39 39 39 38 38 37
33 33 33 34 34 35 34 33 34 33 33 32 32 33 34 34 34 35 36 37 38 38 39 40 39 40 41 42 43 43 42 42 42 42 42 41 41 39 39 40 40 40 39
34 34 34 34 35 35 35 35 35 35 35 34 34 34 35 35 35 36 36 37 38 39 40 41 41 41 42 42 42 44 45 44 43 42 43 43 42 41 40 41 41 42 42
34 36 35 34 35 35 36 36 36 37 37 37 36 36 36 36 36 37 38 38 39 41 41 42 42 43 44 44 44 43 44 45 45 45 44 44 44 43 43 43 44 43 43
35 35 36 35 34 35 36 36 37 38 38 38 37 37 37 37 37 37 39 40 41 41 42 42 43 43 44 44 44 44 44 44 44 45 45 46 46 46 46 45 45 45 45
36 36 36 37 37 37 37 37 37 38 38 38 38 38 38 38 39 38 39 41 41 42 43 43 43 43 44 44 44 44 45 44 45 45 46 47 47 46 46 46 46 47 47
38 39 39 38 39 40 40 39 39 39 39 39 40 39 39 39 39 39 39 40 41 42 43 43 43 44 45 45 46 46 46 46 46 47 47 47 48 48 48 48 49 49 50
39 40 40 40 40 41 42 42 41 41 41 41 41 41 41 41 40 41 41 42 44 45 45 45 45 45 45 45 46 47 48 48 48 47 47 48 50 50 50 50 51 51 51
39 40 41 40 41 41 42 42 42 43 42 43 42 41 41 41 42 42 42 43 45 46 46 46 47 47 47 47 48 48 49 49 49 49 49 50 51 52 52 53 53 52 52
39 40 41 41 41 42 42 42 42 44 44 44 43 43 42 42 43 43 43 44 45 46 47 47 47 48 48 49 49 49 50 50 51 51 51 51 52 53 54 54 53 53 53
39 40 41 41 41 41 41 42 42 43 44 44 44 44 44 44 44 44 45 45 46 47 48 48 49 49 49 49 50 50 51 52 52 52 52 52 53 54 55 55 55 54 54
39 40 40 40 40 41 41 42 43 43 44 45 46 46 46 46 46 46 46 46 47 48 49 50 51 51 51 51 51 51 52 52 52 53 53 53 54 55 56 56 56 56 55
40 41 41 41 41 42 43 43 44 45 46 47 47 47 48 48 49 49 49 49 49 50 50 51 52 52 52 52 52 51 52 53 53 54 55 55 55 55 56 57 57 57 56
40 41 42 43 42 43 43 43 45 46 47 47 48 48 48 49 50 51 51 51 51 51 51 52 52 53 53 53 53 53 53 53 54 54 55 55 55 55 56 57 57 57 56
39 40 41 42 42 42 43 43 44 45 46 47 48 49 49 50 50 51 51 51 52 52 51 52 53 53 53 53 53 52 53 53 53 54 54 54 55 55 56 56 57 57 56
39 39 40 40 41 41 43 43 44 45 46 48 49 49 50 50 50 50 50 50 51 51 51 51 52 52 53 53 53 53 53 53 53 53 53 53 54 54 55 55 56 56 56
38 39 40 41 41 41 43 44 44 44 46 47 48 48 49 48 48 48 49 49 49 49 50 50 50 51 51 52 52 52 52 52 52 52 51 52 52 53 53 54 54 53 54
38 39 40 40 40 40 40 41 41 43 44 45 46 46 47 47 47 47 48 48 48 48 49 49 49 49 50 50 50 51 51 51 51 51 51 51 51 51 51 51 52 52 53
39 40 40 40 40 40 41 40 41 41 42 43 44 44 45 46 46 46 46 47 47 47 47 48 48 48 49 49 49 49 50 51 51 51 50 50 50 50 50 50 51 51 51
37 38 40 40 40 40 40 40 41 41 42 42 43 44 44 45 45 45 45 46 46 46 46 46 47 47 47 47 48 49 49 50 50 50 50 50 49 48 49 49 50 50 50
35 36 37 39 39 40 40 40 40 40 41 42 42 43 43 44 44 44 44 45 45 45 45 46 46 46 46 47 48 48 48 48 48 48 48 47 47 48 48 48 49 49 50

GEFSMW_500_meanwind_210.txt.gz
Wind_Speed
36 37 37 38 39 38 38 37 36 37 38 37 38 38 38 39 39 38 39 39 39 39 40 39 38 38 37 37 36 35 34 33 32 32 31 32 31 31 30 30 30 29 29
36 37 38 38 38 38 38 37 36 37 38 37 37 37 37 38 38 39 40 40 40 40 40 39 39 39 39 38 37 36 35 35 34 33 33 33 33 33 33 32 32 31 31
36 37 38 38 38 38 38 38 37 37 38 37 38 38 38 37 38 38 39 40 40 40 41 41 40 40 39 39 38 37 37 37 36 36 36 35 34 34 35 34 34 34 33
36 37 38 38 38 39 38 37 36 37 38 36 37 37 37 37 37 38 39 40 41 41 41 41 40 40 41 40 40 40 39 38 38 38 37 37 35 35 35 35 35 35 35
35 36 37 38 38 39 39 38 35 38 38 38 39 38 37 36 36 38 39 39 40 40 40 41 40 40 40 41 41 41 41 41 40 39 38 38 36 36 35 36 36 36 37
34 35 37 39 39 39 39 38 38 38 40 40 39 38 38 37 35 37 38 39 39 39 39 40 41 42 42 42 42 42 41 42 41 40 40 39 38 37 37 37 37 37 38
34 34 36 39 39 39 38 39 38 39 39 40 40 39 38 38 37 37 38 38 39 39 38 39 40 42 43 43 42 42 41 42 42 42 42 42 41 40 40 39 39 39 40
34 34 35 37 39 39 38 39 40 39 38 40 40 40 39 38 38 38 39 39 40 40 39 40 41 41 42 43 42 42 41 42 42 43 43 43 44 44 43 42 42 42 41
33 33 35 35 38 39 39 39 40 39 39 39 39 39 39 39 38 37 38 39 39 40 40 40 41 41 41 42 42 42 42 43 42 43 44 44 44 45 45 45 45 45 43
33 33 35 36 37 38 39 40 41 42 41 40 40 40 40 40 40 39 39 40 40 40 40 41 42 41 42 42 43 42 42 43 43 44 44 44 44 45 47 47 48 48 46
34 34 35 36 38 39 39 41 41 43 43 43 41 41 41 41 42 42 41 41 41 41 41 42 43 43 43 43 43 43 44 44 44 45 45 46 47 47 48 48 49 49 48
35 35 36 37 38 39 40 41 42 43 43 43 43 43 43 43 43 43 42 42 42 42 42 43 44 44 45 45 45 45 46 47 46 46 46 47 48 48 48 49 49 49 49
36 36 37 39 39 40 40 41 42 43 43 43 44 44 45 44 44 44 43 43 43 44 44 44 45 45 45 45 46 47 47 48 48 48 48 49 49 49 50 50 50 50 50
37 37 39 40 40 42 42 42 41 42 43 43 44 44 45 45 45 45 45 44 45 46 46 46 45 45 46 47 47 47 48 49 49 50 50 51 51 51 51 51 51 51 52
38 38 39 39 40 42 43 43 42 42 43 43 43 44 45 45 45 45 45 45 45 45 45 45 45 46 47 48 49 48 49 49 50 51 51 52 52 52 51 52 53 53 54
38 38 39 39 39 40 42 43 43 42 43 43 43 43 44 44 44 45 45 45 45 45 45 45 46 46 47 48 49 50 50 51 51 52 52 52 52 52 52 53 53 54 53
39 39 38 39 39 40 41 43 44 44 43 44 44 45 45 45 45 46 46 47 47 47 47 46 47 48 48 48 49 50 51 50 51 51 52 53 53 54 54 53 53 53 53
41 41 40 40 41 41 42 42 44 44 44 45 46 46 46 46 46 46 47 48 48 48 48 48 48 49 49 49 49 50 50 50 51 51 51 52 52 52 52 53 53 53 54
40 40 40 40 41 42 42 43 44 44 44 45 45 46 47 47 47 48 48 48 49 49 49 50 50 50 50 50 50 51 51 51 51 51 52 52 51 51 52 54 54 54 54
39 39 39 40 40 40 41 41 42 43 44 44 45 46 48 49 49 49 49 50 50 50 50 51 51 51 51 51 51 52 52 52 51 51 51 51 51 52 53 54 54 54 54
38 38 38 39 39 39 39 39 39 41 43 44 45 45 47 49 49 50 50 51 51 51 51 52 52 51 51 51 52 52 52 52 51 51 51 52 52 52 52 53 53 53 53
37 37 38 38 38 38 38 38 38 39 40 41 42 44 45 46 47 49 50 51 51 51 51 52 52 51 51 51 51 51 51 52 53 53 53 52 53 53 52 52 52 53 53
36 36 36 37 37 38 38 38 38 39 39 40 40 42 43 45 46 47 48 49 49 50 50 51 51 51 50 50 50 50 51 52 53 53 54 54 54 53 53 52 51 52 52
34 35 35 36 36 37 37 38 39 39 40 40 40 41 42 43 44 45 45 46 46 47 48 50 50 50 50 50 51 51 51 52 52 52 53 53 53 53 52 51 51 50 50
32 34 35 36 36 37 37 37 37 37 38 39 39 40 41 42 42 42 43 44 45 45 46 46 46 47 49 49 50 50 50 50 50 50 51 51 51 51 50 50 50 49 49
32 32 33 34 34 35 35 35 35 35 36 38 38 39 39 39 40 40 41 42 43 43 43 43 44 45 46 47 47 47 47 48 48 48 48 48 49 49 49 49 48 48 48

GEFSMW_500_meanwind_216.txt.gz
Wind_Speed
35 35 36 36 37 37 38 39 40 40 40 40 39 39 39 40 41 42 41 41 40 41 41 40 39 39 38 38 37 36 36 35 35 34 33 33 32 32 31 31 31 31 30
36 36 36 37 37 37 38 38 39 40 40 41 41 40 39 40 41 42 42 43 42 42 42 41 40 40 40 39 39 39 38 38 37 36 35 35 35 34 33 33 33 33 33
38 37 37 37 38 38 38 39 39 40 41 41 43 42 41 41 42 42 43 43 43 43 42 42 42 42 41 40 40 41 41 40 39 39 38 37 37 36 35 33 34 35 35
39 38 38 38 38 39 39 40 40 41 41 42 44 43 42 42 42 43 44 43 43 43 42 42 43 42 42 42 42 42 41 42 41 40 39 38 38 37 36 36 35 35 36
39 39 39 39 39 39 39 40 41 41 42 42 44 45 44 43 43 44 45 45 44 43 43 43 42 43 43 43 43 43 42 42 42 40 40 39 39 38 37 37 37 37 38
38 39 38 38 39 39 39 39 40 42 42 42 43 44 44 43 43 44 45 45 45 44 42 43 43 43 44 44 44 43 43 42 42 42 42 41 40 40 39 38 38 37 38
37 37 38 38 38 38 38 39 40 41 42 43 43 44 44 42 41 42 44 45 45 44 43 43 42 42 44 45 45 45 44 43 43 43 42 41 41 41 41 40 40 39 39
36 36 36 36 36 37 38 38 39 40 42 43 43 45 44 42 41 41 43 43 44 43 43 43 42 41 43 44 45 45 45 44 44 44 43 42 42 42 43 43 42 42 42
36 35 35 36 36 36 37 38 38 40 41 43 44 46 44 41 40 41 43 43 43 43 44 45 44 43 43 44 45 45 45 45 44 43 43 43 43 43 43 44 44 44 44
35 35 35 36 36 36 37 37 38 39 40 41 45 45 44 42 41 41 43 43 43 43 43 45 45 43 42 42 43 45 45 45 45 44 44 44 44 44 44 44 45 46 46
35 35 35 36 36 35 35 36 37 38 39 41 43 44 44 43 42 42 42 42 42 42 42 44 44 43 43 43 44 45 45 45 45 44 44 44 44 45 45 45 46 47 47
36 35 36 36 36 36 36 36 36 36 38 41 42 43 44 44 44 44 44 45 44 43 43 44 44 43 42 43 44 45 46 46 45 44 44 45 46 46 46 46 47 48 49
36 36 36 36 36 36 36 36 36 36 38 40 42 43 44 44 44 44 44 44 44 44 45 45 45 44 44 44 45 45 46 46 46 46 45 45 46 47 47 47 48 49 49
37 37 37 36 36 36 37 37 38 39 40 41 42 43 44 45 46 45 45 45 45 45 46 46 46 46 46 46 46 47 47 47 47 47 47 46 47 48 49 49 49 49 50
38 37 37 36 36 37 38 38 39 40 40 41 42 42 44 45 46 46 47 47 45 45 46 48 48 47 47 47 47 47 47 47 48 48 48 49 49 49 50 50 50 51 52
39 38 37 37 37 37 38 38 38 39 40 40 41 41 43 44 45 46 47 48 47 46 46 47 47 47 47 48 48 48 48 48 48 49 49 50 50 51 51 52 53 53 54
40 39 39 39 38 38 38 38 38 39 39 39 39 40 41 42 43 45 46 46 45 46 45 45 46 46 46 47 47 48 49 49 49 50 51 51 52 53 54 55 55 55 56
40 39 39 39 38 38 39 40 39 39 39 39 39 40 42 42 43 43 44 44 44 44 45 45 45 46 46 47 47 47 48 49 49 50 51 52 53 55 55 56 56 56 56
40 39 39 39 39 39 39 39 39 39 39 40 40 41 42 43 42 43 43 43 44 45 45 46 46 46 47 47 48 48 49 49 50 51 52 53 53 54 55 56 56 56 56
38 38 37 37 37 38 38 39 39 39 39 40 40 41 42 43 43 42 43 44 45 45 46 46 47 47 47 47 48 49 49 50 51 52 53 54 54 55 55 55 55 56 56
36 36 35 35 35 36 36 37 37 37 38 40 40 40 42 42 42 43 44 45 46 46 47 47 48 48 48 48 49 49 50 51 52 52 53 53 53 54 55 55 55 55 55
34 34 34 33 33 34 34 35 35 36 38 39 40 40 41 41 41 42 44 44 45 46 47 47 48 49 49 50 50 51 51 52 52 52 52 52 53 54 54 54 54 53 53
32 33 34 34 33 33 33 33 34 35 36 37 38 38 39 40 40 41 42 43 44 46 46 47 48 48 49 51 51 52 52 52 52 52 52 52 53 53 54 54 54 54 53
31 32 33 33 34 33 33 32 33 34 35 35 36 37 38 38 38 39 40 42 44 45 46 46 47 48 49 50 51 51 51 51 52 52 52 52 53 53 53 53 53 54 53
29 30 32 33 33 33 33 33 33 33 33 34 34 36 36 36 37 38 39 40 42 43 44 45 46 47 48 49 49 49 49 49 50 50 50 50 50 51 51 51 52 52 52
29 30 30 31 33 34 33 33 33 33 33 33 33 33 35 35 35 36 37 38 39 40 42 43 44 45 45 46 46 47 47 47 48 48 49 49 49 49 50 50 50 50 50

GEFSMW_500_meanwind_222.txt.gz
Wind_Speed
40 40 40 39 39 38 38 38 38 39 39 38 38 39 38 38 39 39 40 40 41 41 40 39 39 39 38 36 37 36 35 34 33 33 33 32 32 31 30 30 29 29 30
42 41 41 41 40 39 39 39 39 39 40 40 40 40 40 39 39 39 40 41 42 43 43 42 41 40 40 38 37 38 37 36 36 36 35 34 33 32 31 32 31 31 31
42 42 42 42 41 41 41 40 40 40 41 41 41 41 40 40 40 40 41 42 42 43 44 43 43 43 42 41 40 40 39 38 38 38 37 36 36 33 33 33 33 33 33
43 43 43 43 42 42 42 42 41 42 42 41 41 41 40 40 40 41 42 42 43 43 43 44 44 44 43 42 42 42 42 41 41 40 40 39 38 36 35 35 35 34 34
44 44 44 43 43 43 43 43 43 43 43 42 42 42 40 41 41 42 42 42 43 44 44 45 45 45 44 43 43 43 43 42 42 42 41 40 40 38 36 36 36 36 36
44 44 44 44 43 43 44 44 44 43 43 43 43 42 42 42 42 42 43 43 43 44 44 45 46 45 45 44 43 43 43 42 41 41 42 41 41 40 39 38 38 38 38
44 45 45 45 44 43 43 44 44 43 43 43 43 43 44 44 43 43 43 43 44 44 45 45 46 46 46 45 44 43 43 43 42 42 42 43 43 42 40 40 40 39 39
43 43 43 44 43 43 44 44 44 44 43 43 44 44 44 45 44 44 44 44 44 44 45 45 45 46 46 46 45 44 44 44 44 44 43 43 44 43 41 40 40 40 41
42 42 42 42 43 44 44 45 45 44 44 43 43 43 44 44 45 45 45 45 44 44 44 45 45 46 47 47 46 45 45 45 45 45 45 45 45 44 43 42 41 41 42
42 42 42 43 43 44 44 44 44 44 44 44 43 43 43 44 44 45 45 45 46 45 44 45 47 48 48 48 47 46 46 46 45 45 45 45 46 45 44 44 43 43 42
42 42 41 42 43 43 43 44 44 44 43 43 43 43 43 43 44 45 45 45 46 45 45 45 46 47 48 48 48 47 46 47 47 46 46 46 45 46 47 45 44 44 44
43 42 42 43 43 43 43 43 42 42 43 43 43 43 43 44 44 44 45 45 46 46 46 46 45 46 47 48 48 48 47 47 47 47 48 49 48 48 48 48 47 46 46
43 43 43 43 43 43 42 42 42 42 43 43 43 43 44 43 43 44 44 45 46 46 47 47 47 46 46 48 49 49 48 48 48 48 49 50 50 49 49 50 50 48 47
43 43 43 43 42 42 42 42 42 42 43 43 44 44 44 44 45 45 45 46 46 47 48 49 48 48 47 48 48 50 49 49 49 50 50 50 51 49 49 49 50 49 49
43 43 43 43 43 42 42 42 42 42 43 43 43 44 44 44 45 45 45 46 47 48 49 50 50 49 49 49 50 51 51 51 50 50 50 50 51 50 50 49 50 50 50
42 43 43 42 42 42 42 43 43 43 43 44 43 44 44 44 44 44 45 45 46 48 49 50 51 51 51 53 53 53 52 52 52 51 51 50 50 50 50 50 50 50 50
42 42 42 42 42 42 42 42 43 43 44 44 44 43 43 43 43 44 43 44 45 46 47 49 51 52 52 53 54 53 53 54 52 51 51 50 50 50 49 50 50 51 52
41 42 42 43 43 43 43 43 42 42 43 44 44 44 43 42 42 43 43 43 44 45 46 46 48 49 50 51 52 52 52 52 51 51 51 50 50 50 51 51 52 52 52
39 40 41 41 42 42 42 42 42 42 42 43 43 44 44 43 43 43 43 43 43 44 45 46 46 47 48 49 49 50 50 51 50 50 50 50 51 51 52 52 52 53 54
37 37 37 39 40 41 41 41 40 41 41 41 42 42 43 43 43 42 41 42 42 42 43 43 44 45 46 47 47 48 49 50 49 49 49 50 51 51 52 53 54 54 55
35 36 36 36 37 38 39 39 39 38 39 40 41 41 41 42 42 41 42 42 42 42 42 42 43 44 45 46 46 47 48 48 48 48 49 50 51 51 52 53 54 55 56
34 34 34 34 35 35 36 37 37 38 38 39 40 40 40 40 41 41 41 42 42 43 43 43 44 45 46 46 47 48 49 49 49 49 49 50 50 51 52 54 54 55 55
32 33 33 33 34 35 35 36 37 37 38 39 40 40 40 40 41 41 42 42 43 43 42 43 44 46 46 47 48 49 49 50 50 49 50 50 51 51 52 53 54 54 55
30 31 32 32 33 33 34 35 36 36 37 38 38 39 40 39 40 41 41 42 41 42 42 43 44 45 46 47 48 49 49 50 50 50 50 51 51 51 52 52 52 53 53
29 30 31 32 32 33 34 35 35 35 36 37 37 38 39 39 39 39 39 40 41 41 42 42 42 43 43 44 44 46 47 48 49 50 50 51 50 51 51 51 51 51 51
29 30 30 31 32 33 33 34 34 34 35 35 36 36 36 37 37 38 39 39 39 39 39 40 40 41 41 41 43 44 46 47 48 48 49 49 48 48 49 49 50 50 50

GEFSMW_500_meanwind_228.txt.gz
Wind_Speed
45 44 44 43 43 42 41 40 40 39 38 38 38 38 38 38 38 39 39 39 39 39 39 39 39 39 38 38 38 37 37 37 37 36 35 35 34 33 32 32 31 30 30
47 46 46 45 44 43 42 42 41 41 40 40 40 40 40 40 39 40 40 40 40 40 40 40 41 41 40 40 40 39 38 38 38 38 38 37 36 35 34 34 34 33 32
48 48 47 46 45 44 43 43 43 42 42 41 41 41 42 41 41 41 41 41 41 41 41 40 41 42 42 42 42 42 40 40 40 39 39 38 38 37 36 35 36 36 35
48 48 48 48 46 45 45 44 44 43 43 42 42 42 42 41 41 42 42 42 42 41 41 41 42 42 43 43 44 43 42 41 41 40 40 40 39 39 38 37 37 38 38
47 48 48 48 47 47 46 45 45 45 44 43 42 42 42 42 42 42 42 42 42 43 43 43 42 43 43 43 44 43 43 42 42 42 41 41 41 41 40 39 38 39 39
48 48 48 48 48 48 47 46 46 45 45 44 43 43 43 43 43 43 43 43 42 43 44 44 44 43 43 44 44 45 44 43 43 43 42 42 41 41 42 41 40 40 40
48 48 48 48 48 47 47 46 46 45 45 44 44 44 44 43 43 43 43 43 43 43 44 45 45 45 44 45 45 45 45 44 43 42 42 42 42 42 42 42 41 40 41
48 47 48 48 48 47 47 47 46 46 45 45 44 44 44 44 43 42 43 43 43 43 44 45 45 45 46 46 46 46 46 45 45 44 44 43 43 43 43 43 43 42 42
47 47 48 48 48 47 47 47 46 46 45 45 45 45 44 44 44 43 44 44 43 43 43 44 45 46 46 46 46 47 47 47 46 46 45 45 44 44 44 44 44 44 44
46 47 47 48 48 48 47 47 46 46 45 45 45 45 45 45 45 45 45 45 44 43 43 44 45 46 47 47 48 48 48 48 47 47 46 46 46 45 45 45 45 45 44
46 46 46 47 47 47 47 46 46 46 46 46 46 46 46 46 46 47 46 46 45 44 44 44 45 46 46 47 48 48 48 49 49 49 48 47 47 47 47 47 46 45 45
46 46 46 46 46 47 46 46 46 46 46 47 47 47 47 47 47 47 47 46 45 45 45 46 46 46 46 46 47 48 48 49 49 49 48 48 48 48 49 48 48 48 48
45 45 45 45 46 46 46 46 47 46 46 46 46 47 48 48 48 47 48 47 46 45 45 46 46 46 46 46 47 47 47 48 49 49 49 49 49 49 49 49 49 49 49
44 45 45 45 45 46 46 46 46 46 46 46 47 47 47 47 47 47 47 47 47 47 47 47 47 47 47 47 47 47 47 48 48 48 49 49 50 50 50 50 50 50 49
43 43 44 45 45 45 46 45 45 45 45 46 46 46 46 47 47 47 47 48 48 48 48 48 48 48 48 48 48 48 48 48 48 48 49 49 50 51 51 51 51 51 50
43 43 43 44 44 45 46 46 46 46 46 46 46 46 46 46 47 46 46 47 47 48 49 49 48 48 48 47 48 49 49 49 50 50 50 49 50 50 51 52 52 52 51
41 42 43 43 44 44 45 45 45 45 46 46 46 46 47 47 47 47 47 47 47 47 47 47 48 48 49 49 49 50 50 50 50 50 50 51 51 52 52 53 53 53 52
39 41 42 42 43 43 44 44 45 45 45 45 46 46 47 47 47 47 47 48 48 48 47 47 47 48 48 50 50 50 51 51 50 50 51 51 52 52 53 53 54 54 54
38 39 40 41 41 41 42 42 43 44 44 44 45 46 46 46 46 46 46 46 46 47 47 47 47 48 48 48 49 50 51 51 51 51 51 51 52 52 52 52 53 53 53
37 38 38 39 40 40 41 41 41 42 43 43 43 44 45 45 45 44 45 45 45 45 45 46 46 46 47 47 48 48 49 50 50 50 50 50 50 51 51 51 52 53 52
36 37 37 37 38 39 39 40 40 41 42 43 43 44 44 44 44 44 44 44 44 43 43 44 44 45 46 46 47 47 47 48 48 49 49 49 50 50 51 52 52 52 53
35 36 36 36 37 37 38 38 38 39 41 42 42 43 43 44 44 44 44 44 43 43 43 43 43 43 44 44 44 45 46 47 47 47 47 48 49 49 50 51 51 52 53
33 34 35 35 35 36 36 37 37 38 38 39 41 42 42 43 43 44 43 43 43 43 43 42 42 42 42 43 43 44 45 46 46 46 47 48 48 48 48 49 50 51 51
31 33 34 33 34 34 35 35 35 36 36 37 39 40 41 42 42 43 43 42 42 42 42 42 42 42 43 43 43 44 44 44 45 46 47 47 48 48 48 49 50 50 51
29 30 31 31 31 32 33 34 34 35 36 36 36 37 38 39 40 41 41 41 42 42 42 42 42 42 42 42 42 43 43 43 44 45 46 47 48 48 49 49 49 49 49
28 28 28 29 30 31 32 33 33 34 34 35 35 35 36 37 37 38 38 39 40 40 41 41 41 41 41 41 41 42 42 43 43 44 45 46 46 47 48 48 48 48 49

GEFSMW_500_meanwind_234.txt.gz
Wind_Speed
48 48 47 46 46 45 44 43 42 41 41 40 39 39 38 38 38 38 37 37 36 36 36 36 35 35 36 35 35 35 35 34 34 33 33 33 32 32 32 31 30 30 30
50 49 49 48 47 47 46 45 44 42 41 40 41 41 40 40 40 40 39 39 39 38 38 37 37 37 37 37 36 36 36 35 35 35 35 35 35 35 34 34 33 32 32
51 51 50 50 49 49 48 47 46 45 44 43 42 42 41 41 40 40 40 40 40 40 39 38 38 38 37 37 37 37 37 37 37 37 37 36 36 36 36 36 36 35 34
51 51 51 51 50 50 50 49 48 47 46 45 45 43 42 42 41 41 41 41 41 41 40 39 39 39 39 39 38 38 39 39 39 39 39 38 38 38 38 37 37 37 36
51 51 51 50 50 50 51 51 50 49 48 47 46 45 44 43 42 42 42 42 42 42 42 41 40 40 40 40 39 39 39 40 39 39 39 39 39 38 39 38 38 38 38
50 50 51 51 51 51 51 51 50 50 49 48 47 47 46 45 44 43 43 43 42 42 42 41 41 41 41 41 41 41 41 40 40 41 41 41 40 39 39 39 39 39 39
50 50 50 50 50 51 51 51 51 50 50 49 48 47 47 46 45 44 44 43 43 42 42 42 42 42 42 42 42 42 42 42 42 42 41 41 41 41 40 40 40 40 40
49 49 49 49 49 49 49 49 49 50 50 50 49 48 48 46 46 45 45 45 44 43 43 43 43 43 43 43 43 42 43 43 43 42 43 43 42 42 42 41 41 40 41
48 47 48 48 48 49 49 48 48 48 48 49 49 49 48 47 46 46 45 45 45 44 44 44 44 43 43 43 43 43 43 43 43 43 43 43 43 43 43 42 42 41 41
48 48 48 47 48 48 48 48 48 48 48 47 47 47 47 47 47 46 46 45 45 45 44 44 44 43 43 43 43 44 43 44 44 44 44 44 44 44 44 44 43 43 43
47 48 48 47 47 47 48 48 48 48 48 48 47 47 47 46 46 46 47 46 46 45 45 44 44 44 44 43 43 43 44 44 44 44 44 45 45 45 45 45 44 44 44
47 47 47 48 48 48 48 48 48 48 48 48 48 47 47 47 47 47 47 47 47 47 46 46 46 45 44 44 44 44 44 45 45 45 45 45 46 46 45 45 44 44 44
45 47 47 47 48 49 49 48 48 49 49 49 49 48 48 48 48 47 47 47 47 47 47 47 47 46 46 45 45 45 45 45 45 45 45 46 47 46 46 46 45 45 45
44 46 47 47 48 48 49 49 50 50 50 49 49 49 49 49 49 48 48 48 47 47 48 48 47 47 47 46 45 45 45 45 45 45 45 46 47 47 47 47 47 47 46
43 45 46 47 48 48 49 49 49 50 50 51 50 50 50 50 49 49 49 49 49 48 48 48 48 48 47 47 47 46 46 45 45 45 45 45 46 46 46 47 47 47 47
43 44 45 46 47 48 49 49 49 49 49 50 51 51 51 51 50 50 50 50 50 49 48 48 49 49 49 49 48 48 47 47 46 46 46 46 46 46 46 46 47 48 49
41 43 45 46 47 47 48 48 48 48 49 49 49 50 50 51 51 51 50 50 50 50 49 49 49 49 50 49 49 49 48 48 47 47 47 47 47 47 47 47 47 48 48
39 40 43 44 45 46 47 47 47 47 48 48 48 48 48 49 49 50 50 50 50 50 50 49 49 49 49 49 49 50 50 49 48 47 47 47 47 47 47 47 48 48 48
38 39 40 42 43 44 45 45 46 46 46 47 47 47 47 47 48 48 49 49 49 49 49 48 48 48 48 49 50 50 50 50 49 48 48 47 47 47 47 47 47 47 48
38 39 39 40 41 42 42 43 43 43 44 45 45 45 46 46 46 47 47 48 48 48 47 47 47 47 46 47 48 48 48 48 48 48 48 49 49 48 48 48 47 47 48
36 37 38 38 39 40 40 41 41 42 42 43 44 44 44 45 46 46 46 46 46 47 47 46 46 46 45 45 45 46 46 45 46 47 48 48 48 49 48 48 47 47 47
35 36 37 38 39 39 39 39 40 41 41 42 42 43 43 44 44 44 44 44 45 45 45 45 45 45 45 45 45 45 44 44 44 45 45 47 47 48 48 47 47 47 47
35 35 36 37 37 38 38 39 39 40 40 40 41 41 42 42 42 42 43 43 43 44 44 45 44 44 45 45 45 45 45 44 44 44 44 45 45 45 46 47 47 48 48
33 33 34 35 36 36 37 37 38 38 39 39 39 39 40 40 41 42 42 42 42 43 43 44 44 44 44 44 44 44 44 44 44 44 44 44 44 44 45 46 47 48 49
31 32 33 34 34 34 35 36 37 37 37 37 37 37 38 37 38 39 40 41 42 42 43 44 44 44 44 43 44 44 44 44 44 44 44 44 45 45 46 46 47 47 48
29 29 30 31 32 33 33 34 35 36 36 36 36 36 36 37 37 37 38 39 40 41 42 42 43 43 44 44 44 43 43 43 42 43 43 43 44 44 45 46 46 47 47